Darstellungsparameter: Aktuell verwendete Einstellungen:
Skalierung der Graphiken ... ?
xyx+y,   Skalierungsfaktor:      Skalierung: Modus: x, Faktor: 1
Darstellungszeitraum ... ?
Vom - - bis: - -   Zeitraum: 02.05.2020 - 08.05.2020
Min/Max/Avg-Anzeige ... ?
Zeige MMA aktuell
Zeige MMA Monat
Zeige MMA alles
Zeige --A aktuell
Zeige --A Monat
Zeige --A alles
Keine MMA-Anzeige
MMA:
Average (ber die Originaldaten)
MMA-Basis: 02.05.2020 - 08.05.2020
Quicknavigation für Darstellung... ?
Tage:      1T, 2T, 3T, 5T -1T -2T -3T -5T +1T +2T +3T +5T
Wochen: 1W, 2W, 3W -1W -2W -3W +1W +2W +3W
Monate: 1M, 3M, 6M -1M -3M -6M +1M +3M +6M
Jahre:    1J, 3J, 5J, 10J -1J -3J -5J -10J +1J +3J +5J +10J
Nutze für die Darstellung ... ?
Originaldaten oder Mittelwerte auf ...
Stundenbasis Tagesbasis Wochenbasis
Monatsbasis Jahresbasis      Datenbasis: Original-Daten
Darstellen als:
Statistik (Auto) Statistik J:M      Darstellung:
Zur Graphik,    zurück zur Übersicht aller Sensoren.
 
Tabellarische Datenbersicht: ?
 
Sensor: Nr:Datum:Temp:Abs-Feuchte:Windchill:Wind:
Aussen-T/F 1 02-05-2020 00:00:00 9.7 C 8.11 g/m*3 9.02 C 6.4 km/h
2 02-05-2020 00:05:00 9.7 C 8.2 g/m*3 9.7 C 4.8 km/h
3 02-05-2020 00:10:00 9.6 C 8.15 g/m*3 9.6 C 4.8 km/h
4 02-05-2020 00:15:00 9.6 C 8.15 g/m*3 9.6 C 0 km/h
5 02-05-2020 00:20:00 9.6 C 8.15 g/m*3 9.6 C 1.6 km/h
6 02-05-2020 00:25:00 9.4 C 8.05 g/m*3 9.4 C 1.6 km/h
7 02-05-2020 00:30:00 9.4 C 8.05 g/m*3 9.4 C 1.6 km/h
8 02-05-2020 00:35:00 9.2 C 7.95 g/m*3 9.2 C 3.2 km/h
9 02-05-2020 00:40:00 9.2 C 7.95 g/m*3 8.05 C 8.1 km/h
10 02-05-2020 00:45:00 9.2 C 7.95 g/m*3 9.2 C 4.8 km/h
11 02-05-2020 00:50:00 9.2 C 7.95 g/m*3 9.2 C 4.8 km/h
12 02-05-2020 00:55:00 9.2 C 8.04 g/m*3 7.73 C 9.7 km/h
13 02-05-2020 01:00:00 9.2 C 8.04 g/m*3 8.05 C 8.1 km/h
14 02-05-2020 01:05:00 9.2 C 8.04 g/m*3 8.05 C 8.1 km/h
15 02-05-2020 01:10:00 9.3 C 8.09 g/m*3 8.16 C 8.1 km/h
16 02-05-2020 01:15:00 9.3 C 8.09 g/m*3 7.58 C 11.3 km/h
17 02-05-2020 01:20:00 9.4 C 8.05 g/m*3 7.7 C 11.3 km/h
18 02-05-2020 01:25:00 9.4 C 8.05 g/m*3 8.28 C 8.1 km/h
19 02-05-2020 01:30:00 9.5 C 8.01 g/m*3 8.4 C 8.1 km/h
20 02-05-2020 01:35:00 9.4 C 8.05 g/m*3 7.97 C 9.7 km/h
21 02-05-2020 01:40:00 9.3 C 8 g/m*3 8.16 C 8.1 km/h
22 02-05-2020 01:45:00 9.3 C 8 g/m*3 7.85 C 9.7 km/h
23 02-05-2020 01:50:00 9.2 C 7.95 g/m*3 7.73 C 9.7 km/h
24 02-05-2020 01:55:00 9.1 C 7.9 g/m*3 9.1 C 4.8 km/h
25 02-05-2020 02:00:00 9 C 7.93 g/m*3 9 C 4.8 km/h
Sensor: Nr:Datum:Temp:Abs-Feuchte:Windchill:Wind:
Aussen-T/F 26 02-05-2020 02:05:00 8.9 C 7.88 g/m*3 8.9 C 4.8 km/h
27 02-05-2020 02:10:00 8.8 C 7.83 g/m*3 8.8 C 3.2 km/h
28 02-05-2020 02:15:00 8.8 C 7.83 g/m*3 8.8 C 3.2 km/h
29 02-05-2020 02:20:00 8.8 C 7.92 g/m*3 7.25 C 9.7 km/h
30 02-05-2020 02:25:00 8.8 C 7.92 g/m*3 8.8 C 4.8 km/h
31 02-05-2020 02:30:00 8.7 C 7.87 g/m*3 8.7 C 4.8 km/h
32 02-05-2020 02:35:00 8.8 C 7.92 g/m*3 8.8 C 4.8 km/h
33 02-05-2020 02:40:00 8.8 C 7.92 g/m*3 7.58 C 8.1 km/h
34 02-05-2020 02:45:00 8.9 C 7.97 g/m*3 7.37 C 9.7 km/h
35 02-05-2020 02:50:00 8.9 C 7.88 g/m*3 7.69 C 8.1 km/h
36 02-05-2020 02:55:00 9.1 C 7.99 g/m*3 7.61 C 9.7 km/h
37 02-05-2020 03:00:00 9.2 C 7.95 g/m*3 8.05 C 8.1 km/h
38 02-05-2020 03:05:00 9.2 C 7.95 g/m*3 9.2 C 4.8 km/h
39 02-05-2020 03:10:00 9.3 C 7.91 g/m*3 7.58 C 11.3 km/h
40 02-05-2020 03:15:00 9.3 C 7.91 g/m*3 9.3 C 4.8 km/h
41 02-05-2020 03:20:00 9.3 C 7.91 g/m*3 8.16 C 8.1 km/h
42 02-05-2020 03:25:00 9.4 C 7.96 g/m*3 9.4 C 4.8 km/h
43 02-05-2020 03:30:00 9.4 C 7.96 g/m*3 7.97 C 9.7 km/h
44 02-05-2020 03:35:00 9.4 C 7.96 g/m*3 9.4 C 3.2 km/h
45 02-05-2020 03:40:00 9.4 C 7.96 g/m*3 8.68 C 6.4 km/h
46 02-05-2020 03:45:00 9.4 C 7.96 g/m*3 9.4 C 3.2 km/h
47 02-05-2020 03:50:00 9.4 C 7.96 g/m*3 9.4 C 1.6 km/h
48 02-05-2020 03:55:00 9.3 C 7.91 g/m*3 9.3 C 1.6 km/h
49 02-05-2020 04:00:00 9.3 C 7.91 g/m*3 9.3 C 0 km/h
50 02-05-2020 04:05:00 9.2 C 7.86 g/m*3 9.2 C 1.6 km/h
Sensor: Nr:Datum:Temp:Abs-Feuchte:Windchill:Wind:
Aussen-T/F 51 02-05-2020 04:10:00 9.2 C 7.95 g/m*3 9.2 C 0 km/h
52 02-05-2020 04:15:00 9.1 C 7.9 g/m*3 9.1 C 0 km/h
53 02-05-2020 04:20:00 9 C 7.85 g/m*3 9 C 1.6 km/h
54 02-05-2020 04:25:00 8.9 C 7.8 g/m*3 8.1 C 6.4 km/h
55 02-05-2020 04:30:00 8.9 C 7.8 g/m*3 8.9 C 3.2 km/h
56 02-05-2020 04:35:00 8.9 C 7.88 g/m*3 8.9 C 4.8 km/h
57 02-05-2020 04:40:00 8.9 C 7.8 g/m*3 7.69 C 8.1 km/h
58 02-05-2020 04:45:00 9.1 C 7.9 g/m*3 7.33 C 11.3 km/h
59 02-05-2020 04:50:00 9.1 C 7.9 g/m*3 9.1 C 4.8 km/h
60 02-05-2020 04:55:00 9.1 C 7.81 g/m*3 9.1 C 4.8 km/h
61 02-05-2020 05:00:00 9.1 C 7.81 g/m*3 9.1 C 4.8 km/h
62 02-05-2020 05:05:00 9.1 C 7.81 g/m*3 7.61 C 9.7 km/h
63 02-05-2020 05:10:00 9 C 7.76 g/m*3 7.49 C 9.7 km/h
64 02-05-2020 05:15:00 9 C 7.76 g/m*3 7.49 C 9.7 km/h
65 02-05-2020 05:20:00 9 C 7.76 g/m*3 9 C 3.2 km/h
66 02-05-2020 05:25:00 9 C 7.76 g/m*3 7.81 C 8.1 km/h
67 02-05-2020 05:30:00 9 C 7.67 g/m*3 7.21 C 11.3 km/h
68 02-05-2020 05:35:00 9.1 C 7.72 g/m*3 8.33 C 6.4 km/h
69 02-05-2020 05:40:00 9 C 7.67 g/m*3 7.81 C 8.1 km/h
70 02-05-2020 05:45:00 8.9 C 7.62 g/m*3 7.69 C 8.1 km/h
71 02-05-2020 05:50:00 8.8 C 7.57 g/m*3 7.25 C 9.7 km/h
72 02-05-2020 05:55:00 8.6 C 7.48 g/m*3 7.01 C 9.7 km/h
73 02-05-2020 06:00:00 8.5 C 7.43 g/m*3 6.9 C 9.7 km/h
74 02-05-2020 06:05:00 8.4 C 7.38 g/m*3 7.52 C 6.4 km/h
75 02-05-2020 06:10:00 8.3 C 7.33 g/m*3 6.66 C 9.7 km/h
Sensor: Nr:Datum:Temp:Abs-Feuchte:Windchill:Wind:
Aussen-T/F 76 02-05-2020 06:15:00 8.3 C 7.42 g/m*3 6.99 C 8.1 km/h
77 02-05-2020 06:20:00 8.2 C 7.37 g/m*3 6.25 C 11.3 km/h
78 02-05-2020 06:25:00 8.2 C 7.37 g/m*3 7.29 C 6.4 km/h
79 02-05-2020 06:30:00 8.2 C 7.37 g/m*3 6.25 C 11.3 km/h
80 02-05-2020 06:35:00 8.2 C 7.37 g/m*3 6.25 C 11.3 km/h
81 02-05-2020 06:40:00 8.2 C 7.37 g/m*3 6.54 C 9.7 km/h
82 02-05-2020 06:45:00 8.2 C 7.37 g/m*3 6.87 C 8.1 km/h
83 02-05-2020 06:50:00 8.2 C 7.37 g/m*3 6.25 C 11.3 km/h
84 02-05-2020 06:55:00 8.2 C 7.37 g/m*3 6.54 C 9.7 km/h
85 02-05-2020 07:00:00 8.2 C 7.37 g/m*3 6.25 C 11.3 km/h
86 02-05-2020 07:05:00 8.2 C 7.37 g/m*3 6.87 C 8.1 km/h
87 02-05-2020 07:10:00 8.3 C 7.42 g/m*3 5.48 C 17.7 km/h
88 02-05-2020 07:15:00 8.4 C 7.38 g/m*3 6.49 C 11.3 km/h
89 02-05-2020 07:20:00 8.5 C 7.43 g/m*3 7.64 C 6.4 km/h
90 02-05-2020 07:25:00 8.6 C 7.48 g/m*3 6.48 C 12.9 km/h
91 02-05-2020 07:30:00 8.6 C 7.48 g/m*3 5.68 C 19.3 km/h
92 02-05-2020 07:35:00 8.6 C 7.39 g/m*3 6.73 C 11.3 km/h
93 02-05-2020 07:40:00 8.6 C 7.39 g/m*3 7.34 C 8.1 km/h
94 02-05-2020 07:45:00 8.6 C 7.39 g/m*3 8.6 C 4.8 km/h
95 02-05-2020 07:50:00 8.6 C 7.39 g/m*3 6.05 C 16.1 km/h
96 02-05-2020 07:55:00 8.7 C 7.52 g/m*3 6.17 C 16.1 km/h
97 02-05-2020 08:00:00 8.7 C 7.44 g/m*3 7.13 C 9.7 km/h
98 02-05-2020 08:05:00 8.8 C 7.57 g/m*3 7.58 C 8.1 km/h
99 02-05-2020 08:10:00 8.8 C 7.49 g/m*3 7.25 C 9.7 km/h
100 02-05-2020 08:15:00 8.9 C 7.53 g/m*3 6.85 C 12.9 km/h
Sensor: Nr:Datum:Temp:Abs-Feuchte:Windchill:Wind:
Aussen-T/F 101 02-05-2020 08:20:00 9.1 C 7.72 g/m*3 7.93 C 8.1 km/h
102 02-05-2020 08:25:00 9.2 C 7.59 g/m*3 7.73 C 9.7 km/h
103 02-05-2020 08:30:00 9.3 C 7.64 g/m*3 6.92 C 16.1 km/h
104 02-05-2020 08:35:00 9.5 C 7.74 g/m*3 7.58 C 12.9 km/h
105 02-05-2020 08:40:00 9.7 C 7.74 g/m*3 7.82 C 12.9 km/h
106 02-05-2020 08:45:00 9.8 C 7.79 g/m*3 7.94 C 12.9 km/h
107 02-05-2020 08:50:00 9.8 C 7.7 g/m*3 8.18 C 11.3 km/h
108 02-05-2020 08:55:00 9.8 C 7.61 g/m*3 7.54 C 16.1 km/h
109 02-05-2020 09:00:00 9.8 C 7.52 g/m*3 7.54 C 16.1 km/h
110 02-05-2020 09:05:00 9.8 C 7.52 g/m*3 7.36 C 17.7 km/h
111 02-05-2020 09:10:00 9.8 C 7.52 g/m*3 7.94 C 12.9 km/h
112 02-05-2020 09:15:00 9.8 C 7.52 g/m*3 6.63 C 25.7 km/h
113 02-05-2020 09:20:00 9.9 C 7.56 g/m*3 7.32 C 19.3 km/h
114 02-05-2020 09:25:00 9.9 C 7.56 g/m*3 7.32 C 19.3 km/h
115 02-05-2020 09:30:00 10.1 C 7.66 g/m*3 7.42 C 20.9 km/h
116 02-05-2020 09:35:00 10.3 C 7.76 g/m*3 8.16 C 16.1 km/h
117 02-05-2020 09:40:00 10.6 C 7.81 g/m*3 8.36 C 17.7 km/h
118 02-05-2020 09:45:00 10.8 C 7.81 g/m*3 8.61 C 17.7 km/h
119 02-05-2020 09:50:00 10.8 C 7.71 g/m*3 8.45 C 19.3 km/h
120 02-05-2020 09:55:00 10.7 C 7.76 g/m*3 9.04 C 12.9 km/h
121 02-05-2020 10:00:00 10.6 C 7.71 g/m*3 8.92 C 12.9 km/h
122 02-05-2020 10:05:00 10.4 C 7.81 g/m*3 8.28 C 16.1 km/h
123 02-05-2020 10:10:00 10.1 C 7.94 g/m*3 7.42 C 20.9 km/h
124 02-05-2020 10:15:00 9.6 C 7.51 g/m*3 7.29 C 16.1 km/h
125 02-05-2020 10:20:00 8.8 C 7.31 g/m*3 5.93 C 19.3 km/h
Sensor: Nr:Datum:Temp:Abs-Feuchte:Windchill:Wind:
Aussen-T/F 126 02-05-2020 10:25:00 8.3 C 7.25 g/m*3 8.3 C 3.2 km/h
127 02-05-2020 10:30:00 8 C 7.28 g/m*3 6.64 C 8.1 km/h
128 02-05-2020 10:35:00 7.8 C 7.35 g/m*3 6.06 C 9.7 km/h
129 02-05-2020 10:40:00 7.7 C 7.3 g/m*3 5.94 C 9.7 km/h
130 02-05-2020 10:45:00 7.6 C 7.33 g/m*3 5.82 C 9.7 km/h
131 02-05-2020 10:50:00 7.6 C 7.33 g/m*3 6.6 C 6.4 km/h
132 02-05-2020 10:55:00 7.6 C 7.41 g/m*3 6.16 C 8.1 km/h
133 02-05-2020 11:00:00 7.7 C 7.46 g/m*3 6.28 C 8.1 km/h
134 02-05-2020 11:05:00 7.8 C 7.59 g/m*3 6.83 C 6.4 km/h
135 02-05-2020 11:10:00 8.1 C 7.82 g/m*3 8.1 C 3.2 km/h
136 02-05-2020 11:15:00 8.3 C 7.92 g/m*3 8.3 C 4.8 km/h
137 02-05-2020 11:20:00 8.4 C 7.89 g/m*3 7.11 C 8.1 km/h
138 02-05-2020 11:25:00 8.5 C 7.94 g/m*3 7.22 C 8.1 km/h
139 02-05-2020 11:30:00 8.7 C 8.13 g/m*3 8.7 C 4.8 km/h
140 02-05-2020 11:35:00 8.9 C 8.23 g/m*3 8.9 C 4.8 km/h
141 02-05-2020 11:40:00 9 C 8.2 g/m*3 7.21 C 11.3 km/h
142 02-05-2020 11:45:00 9.2 C 8.3 g/m*3 8.05 C 8.1 km/h
143 02-05-2020 11:50:00 9.3 C 8.36 g/m*3 9.3 C 4.8 km/h
144 02-05-2020 11:55:00 9.3 C 8.27 g/m*3 6.92 C 16.1 km/h
145 02-05-2020 12:00:00 9.3 C 8.18 g/m*3 8.56 C 6.4 km/h
146 02-05-2020 12:05:00 9.3 C 8.18 g/m*3 7.33 C 12.9 km/h
147 02-05-2020 12:10:00 9.4 C 8.05 g/m*3 7.24 C 14.5 km/h
148 02-05-2020 12:15:00 9.7 C 8.02 g/m*3 7.82 C 12.9 km/h
149 02-05-2020 12:20:00 9.8 C 7.98 g/m*3 7.54 C 16.1 km/h
150 02-05-2020 12:25:00 10 C 8.08 g/m*3 8.19 C 12.9 km/h
Sensor: Nr:Datum:Temp:Abs-Feuchte:Windchill:Wind:
Aussen-T/F 151 02-05-2020 12:30:00 10.1 C 8.04 g/m*3 8.31 C 12.9 km/h
152 02-05-2020 12:35:00 10.3 C 8.14 g/m*3 9.34 C 8.1 km/h
153 02-05-2020 12:40:00 10.5 C 8.15 g/m*3 8.59 C 14.5 km/h
154 02-05-2020 12:45:00 10.8 C 8.3 g/m*3 9.16 C 12.9 km/h
155 02-05-2020 12:50:00 10.9 C 8.26 g/m*3 10.04 C 8.1 km/h
156 02-05-2020 12:55:00 11 C 8.51 g/m*3 10.52 C 6.4 km/h
157 02-05-2020 13:00:00 11.1 C 8.16 g/m*3 11.1 C 20.9 km/h
158 02-05-2020 13:05:00 11.4 C 7.8 g/m*3 11.4 C 22.5 km/h
159 02-05-2020 13:10:00 11.6 C 8 g/m*3 11.6 C 14.5 km/h
160 02-05-2020 13:15:00 11.8 C 8 g/m*3 11.8 C 19.3 km/h
161 02-05-2020 13:20:00 11.8 C 8.1 g/m*3 11.8 C 14.5 km/h
162 02-05-2020 13:25:00 11.6 C 8 g/m*3 11.6 C 12.9 km/h
163 02-05-2020 13:30:00 11.4 C 7.9 g/m*3 11.4 C 14.5 km/h
164 02-05-2020 13:35:00 11.3 C 7.96 g/m*3 11.3 C 11.3 km/h
165 02-05-2020 13:40:00 11.3 C 8.06 g/m*3 11.3 C 11.3 km/h
166 02-05-2020 13:45:00 11.3 C 7.85 g/m*3 11.3 C 16.1 km/h
167 02-05-2020 13:50:00 11.6 C 8.11 g/m*3 11.6 C 16.1 km/h
168 02-05-2020 13:55:00 11.7 C 7.95 g/m*3 11.7 C 20.9 km/h
169 02-05-2020 14:00:00 11.9 C 8.05 g/m*3 11.9 C 17.7 km/h
170 02-05-2020 14:05:00 12.1 C 7.94 g/m*3 12.1 C 17.7 km/h
171 02-05-2020 14:10:00 12.3 C 8.04 g/m*3 12.3 C 19.3 km/h
172 02-05-2020 14:15:00 12.7 C 8.24 g/m*3 12.7 C 17.7 km/h
173 02-05-2020 14:20:00 12.9 C 8.23 g/m*3 12.9 C 16.1 km/h
174 02-05-2020 14:25:00 13.2 C 7.92 g/m*3 13.2 C 22.5 km/h
175 02-05-2020 14:30:00 13.2 C 7.92 g/m*3 13.2 C 11.3 km/h
Sensor: Nr:Datum:Temp:Abs-Feuchte:Windchill:Wind:
Aussen-T/F 176 02-05-2020 14:35:00 12.9 C 7.55 g/m*3 12.9 C 20.9 km/h
177 02-05-2020 14:40:00 11.6 C 7.48 g/m*3 11.6 C 32.2 km/h
178 02-05-2020 14:45:00 10.2 C 7.33 g/m*3 8.43 C 12.9 km/h
179 02-05-2020 14:50:00 9.6 C 7.42 g/m*3 7.11 C 17.7 km/h
180 02-05-2020 14:55:00 9.3 C 7.55 g/m*3 6.41 C 20.9 km/h
181 02-05-2020 15:00:00 8.9 C 7.45 g/m*3 6.06 C 19.3 km/h
182 02-05-2020 15:05:00 8.7 C 7.61 g/m*3 8.7 C 3.2 km/h
183 02-05-2020 15:10:00 8.7 C 7.7 g/m*3 8.7 C 1.6 km/h
184 02-05-2020 15:15:00 8.7 C 7.78 g/m*3 6.38 C 14.5 km/h
185 02-05-2020 15:20:00 8.8 C 7.92 g/m*3 7.58 C 8.1 km/h
186 02-05-2020 15:25:00 8.8 C 7.92 g/m*3 8.8 C 3.2 km/h
187 02-05-2020 15:30:00 9.1 C 8.16 g/m*3 7.93 C 8.1 km/h
188 02-05-2020 15:35:00 9.4 C 8.23 g/m*3 8.68 C 6.4 km/h
189 02-05-2020 15:40:00 10.2 C 8.85 g/m*3 9.6 C 6.4 km/h
190 02-05-2020 15:45:00 10.8 C 9.19 g/m*3 9.64 C 9.7 km/h
191 02-05-2020 15:50:00 11.3 C 9.28 g/m*3 11.3 C 9.7 km/h
192 02-05-2020 15:55:00 11.5 C 8.99 g/m*3 11.5 C 9.7 km/h
193 02-05-2020 16:00:00 12.1 C 9.33 g/m*3 12.1 C 6.4 km/h
194 02-05-2020 16:05:00 12.6 C 9.18 g/m*3 12.6 C 3.2 km/h
195 02-05-2020 16:10:00 13.1 C 9.47 g/m*3 13.1 C 16.1 km/h
196 02-05-2020 16:15:00 13.4 C 8.95 g/m*3 13.4 C 9.7 km/h
197 02-05-2020 16:20:00 13.7 C 9.47 g/m*3 13.7 C 6.4 km/h
198 02-05-2020 16:25:00 13.9 C 8.39 g/m*3 13.9 C 12.9 km/h
199 02-05-2020 16:30:00 14.2 C 8.79 g/m*3 14.2 C 11.3 km/h
200 02-05-2020 16:35:00 14.2 C 8.67 g/m*3 14.2 C 6.4 km/h
Sensor: Nr:Datum:Temp:Abs-Feuchte:Windchill:Wind:
Aussen-T/F 201 02-05-2020 16:40:00 13.9 C 8.99 g/m*3 13.9 C 4.8 km/h
202 02-05-2020 16:45:00 13.6 C 8.94 g/m*3 13.6 C 3.2 km/h
203 02-05-2020 16:50:00 13.4 C 9.07 g/m*3 13.4 C 8.1 km/h
204 02-05-2020 16:55:00 13.3 C 9.36 g/m*3 13.3 C 6.4 km/h
205 02-05-2020 17:00:00 13.7 C 9.59 g/m*3 13.7 C 8.1 km/h
206 02-05-2020 17:05:00 14.4 C 9.27 g/m*3 14.4 C 9.7 km/h
207 02-05-2020 17:10:00 14.7 C 8.69 g/m*3 14.7 C 11.3 km/h
208 02-05-2020 17:15:00 14.5 C 8.95 g/m*3 14.5 C 11.3 km/h
209 02-05-2020 17:20:00 14.1 C 8.37 g/m*3 14.1 C 8.1 km/h
210 02-05-2020 17:25:00 13.9 C 8.87 g/m*3 13.9 C 1.6 km/h
211 02-05-2020 17:30:00 13.8 C 9.06 g/m*3 13.8 C 3.2 km/h
212 02-05-2020 17:35:00 13.8 C 9.29 g/m*3 13.8 C 3.2 km/h
213 02-05-2020 17:40:00 13.8 C 8.94 g/m*3 13.8 C 4.8 km/h
214 02-05-2020 17:45:00 13.8 C 8.94 g/m*3 13.8 C 11.3 km/h
215 02-05-2020 17:50:00 13.8 C 7.74 g/m*3 13.8 C 9.7 km/h
216 02-05-2020 17:55:00 14.2 C 7.69 g/m*3 14.2 C 12.9 km/h
217 02-05-2020 18:00:00 14.7 C 7.55 g/m*3 14.7 C 12.9 km/h
218 02-05-2020 18:05:00 14.7 C 7.68 g/m*3 14.7 C 11.3 km/h
219 02-05-2020 18:10:00 14.3 C 7.37 g/m*3 14.3 C 9.7 km/h
220 02-05-2020 18:15:00 13.9 C 7.31 g/m*3 13.9 C 9.7 km/h
221 02-05-2020 18:20:00 13.7 C 7.58 g/m*3 13.7 C 11.3 km/h
222 02-05-2020 18:25:00 13.3 C 7.74 g/m*3 13.3 C 9.7 km/h
223 02-05-2020 18:30:00 13.1 C 7.87 g/m*3 13.1 C 12.9 km/h
224 02-05-2020 18:35:00 12.9 C 7.89 g/m*3 12.9 C 14.5 km/h
225 02-05-2020 18:40:00 12.7 C 7.79 g/m*3 12.7 C 14.5 km/h
Sensor: Nr:Datum:Temp:Abs-Feuchte:Windchill:Wind:
Aussen-T/F 226 02-05-2020 18:45:00 12.6 C 7.85 g/m*3 12.6 C 14.5 km/h
227 02-05-2020 18:50:00 12.4 C 7.87 g/m*3 12.4 C 14.5 km/h
228 02-05-2020 18:55:00 12.3 C 7.82 g/m*3 12.3 C 20.9 km/h
229 02-05-2020 19:00:00 12.1 C 7.72 g/m*3 12.1 C 16.1 km/h
230 02-05-2020 19:05:00 12 C 7.89 g/m*3 12 C 11.3 km/h
231 02-05-2020 19:10:00 11.8 C 7.68 g/m*3 11.8 C 20.9 km/h
232 02-05-2020 19:15:00 11.7 C 7.53 g/m*3 11.7 C 11.3 km/h
233 02-05-2020 19:20:00 11.5 C 7.02 g/m*3 11.5 C 12.9 km/h
234 02-05-2020 19:25:00 11.5 C 7.23 g/m*3 11.5 C 11.3 km/h
235 02-05-2020 19:30:00 11.5 C 7.33 g/m*3 11.5 C 8.1 km/h
236 02-05-2020 19:35:00 11.6 C 7.59 g/m*3 11.6 C 4.8 km/h
237 02-05-2020 19:40:00 11.6 C 7.8 g/m*3 11.6 C 4.8 km/h
238 02-05-2020 19:45:00 11.6 C 7.59 g/m*3 11.6 C 6.4 km/h
239 02-05-2020 19:50:00 11.7 C 7.74 g/m*3 11.7 C 8.1 km/h
240 02-05-2020 19:55:00 11.8 C 7.68 g/m*3 11.8 C 8.1 km/h
241 02-05-2020 20:00:00 12 C 7.67 g/m*3 12 C 11.3 km/h
242 02-05-2020 20:05:00 12.1 C 7.61 g/m*3 12.1 C 12.9 km/h
243 02-05-2020 20:10:00 12.1 C 7.61 g/m*3 12.1 C 9.7 km/h
244 02-05-2020 20:15:00 11.9 C 7.52 g/m*3 11.9 C 9.7 km/h
245 02-05-2020 20:20:00 11.9 C 7.63 g/m*3 11.9 C 4.8 km/h
246 02-05-2020 20:25:00 11.7 C 7.53 g/m*3 11.7 C 6.4 km/h
247 02-05-2020 20:30:00 11.6 C 7.69 g/m*3 11.6 C 3.2 km/h
248 02-05-2020 20:35:00 11.5 C 7.85 g/m*3 11.5 C 1.6 km/h
249 02-05-2020 20:40:00 11.2 C 7.8 g/m*3 11.2 C 0 km/h
250 02-05-2020 20:45:00 10.8 C 7.81 g/m*3 10.8 C 3.2 km/h
Sensor: Nr:Datum:Temp:Abs-Feuchte:Windchill:Wind:
Aussen-T/F 251 02-05-2020 20:50:00 10.4 C 7.71 g/m*3 10.4 C 4.8 km/h
252 02-05-2020 20:55:00 10 C 7.71 g/m*3 10 C 4.8 km/h
253 02-05-2020 21:00:00 9.7 C 7.65 g/m*3 9.7 C 4.8 km/h
254 02-05-2020 21:05:00 9.4 C 7.6 g/m*3 8.68 C 6.4 km/h
255 02-05-2020 21:10:00 9.2 C 7.5 g/m*3 8.05 C 8.1 km/h
256 02-05-2020 21:15:00 8.9 C 7.45 g/m*3 8.1 C 6.4 km/h
257 02-05-2020 21:20:00 8.8 C 7.4 g/m*3 7.58 C 8.1 km/h
258 02-05-2020 21:25:00 8.7 C 7.35 g/m*3 7.46 C 8.1 km/h
259 02-05-2020 21:30:00 8.6 C 7.39 g/m*3 7.34 C 8.1 km/h
260 02-05-2020 21:35:00 8.4 C 7.3 g/m*3 7.52 C 6.4 km/h
261 02-05-2020 21:40:00 8.3 C 7.33 g/m*3 7.41 C 6.4 km/h
262 02-05-2020 21:45:00 8.3 C 7.33 g/m*3 7.41 C 6.4 km/h
263 02-05-2020 21:50:00 8.2 C 7.37 g/m*3 8.2 C 4.8 km/h
264 02-05-2020 21:55:00 8.1 C 7.32 g/m*3 8.1 C 3.2 km/h
265 02-05-2020 22:00:00 8 C 7.28 g/m*3 8 C 1.6 km/h
266 02-05-2020 22:05:00 7.9 C 7.31 g/m*3 7.9 C 0 km/h
267 02-05-2020 22:10:00 7.8 C 7.26 g/m*3 7.8 C 3.2 km/h
268 02-05-2020 22:15:00 7.7 C 7.22 g/m*3 7.7 C 3.2 km/h
269 02-05-2020 22:20:00 7.6 C 7.17 g/m*3 7.6 C 1.6 km/h
270 02-05-2020 22:25:00 7.4 C 7.16 g/m*3 7.4 C 0 km/h
271 02-05-2020 22:30:00 7.3 C 7.11 g/m*3 7.3 C 0 km/h
272 02-05-2020 22:35:00 7.2 C 7.06 g/m*3 7.2 C 1.6 km/h
273 02-05-2020 22:40:00 7.2 C 7.06 g/m*3 7.2 C 3.2 km/h
274 02-05-2020 22:45:00 7.1 C 7.1 g/m*3 7.1 C 3.2 km/h
275 02-05-2020 22:50:00 7 C 7.05 g/m*3 7 C 1.6 km/h
Sensor: Nr:Datum:Temp:Abs-Feuchte:Windchill:Wind:
Aussen-T/F 276 02-05-2020 22:55:00 7 C 7.05 g/m*3 7 C 3.2 km/h
277 02-05-2020 23:00:00 7 C 7.05 g/m*3 7 C 3.2 km/h
278 02-05-2020 23:05:00 6.9 C 7.08 g/m*3 6.9 C 3.2 km/h
279 02-05-2020 23:10:00 6.9 C 7.08 g/m*3 6.9 C 1.6 km/h
280 02-05-2020 23:15:00 6.9 C 7.08 g/m*3 6.9 C 3.2 km/h
281 02-05-2020 23:20:00 6.9 C 7.08 g/m*3 5.79 C 6.4 km/h
282 02-05-2020 23:25:00 6.9 C 7.08 g/m*3 6.9 C 4.8 km/h
283 02-05-2020 23:30:00 6.9 C 7.08 g/m*3 6.9 C 4.8 km/h
284 02-05-2020 23:35:00 6.9 C 7.08 g/m*3 6.9 C 4.8 km/h
285 02-05-2020 23:40:00 6.9 C 7.08 g/m*3 6.9 C 3.2 km/h
286 02-05-2020 23:45:00 6.8 C 7.04 g/m*3 6.8 C 1.6 km/h
287 02-05-2020 23:50:00 6.8 C 7.04 g/m*3 6.8 C 3.2 km/h
288 02-05-2020 23:55:00 6.7 C 6.99 g/m*3 6.7 C 0 km/h
289 03-05-2020 00:00:00 6.7 C 6.99 g/m*3 5.56 C 6.4 km/h
290 03-05-2020 00:05:00 6.6 C 6.95 g/m*3 6.6 C 3.2 km/h
291 03-05-2020 00:10:00 6.6 C 6.95 g/m*3 6.6 C 3.2 km/h
292 03-05-2020 00:15:00 6.5 C 6.9 g/m*3 6.5 C 3.2 km/h
293 03-05-2020 00:20:00 6.4 C 6.93 g/m*3 6.4 C 1.6 km/h
294 03-05-2020 00:25:00 6.4 C 6.93 g/m*3 6.4 C 1.6 km/h
295 03-05-2020 00:30:00 6.4 C 6.93 g/m*3 6.4 C 4.8 km/h
296 03-05-2020 00:35:00 6.3 C 6.88 g/m*3 6.3 C 1.6 km/h
297 03-05-2020 00:40:00 6.2 C 6.84 g/m*3 6.2 C 3.2 km/h
298 03-05-2020 00:45:00 6.2 C 6.84 g/m*3 6.2 C 0 km/h
299 03-05-2020 00:50:00 6.1 C 6.79 g/m*3 6.1 C 0 km/h
300 03-05-2020 00:55:00 6.1 C 6.79 g/m*3 6.1 C 3.2 km/h
Sensor: Nr:Datum:Temp:Abs-Feuchte:Windchill:Wind:
Aussen-T/F 301 03-05-2020 01:00:00 6 C 6.75 g/m*3 6 C 0 km/h
302 03-05-2020 01:05:00 5.9 C 6.71 g/m*3 5.9 C 0 km/h
303 03-05-2020 01:10:00 5.8 C 6.66 g/m*3 5.8 C 1.6 km/h
304 03-05-2020 01:15:00 5.8 C 6.66 g/m*3 5.8 C 1.6 km/h
305 03-05-2020 01:20:00 5.7 C 6.62 g/m*3 5.7 C 1.6 km/h
306 03-05-2020 01:25:00 5.7 C 6.62 g/m*3 5.7 C 1.6 km/h
307 03-05-2020 01:30:00 5.6 C 6.57 g/m*3 5.6 C 0 km/h
308 03-05-2020 01:35:00 5.5 C 6.53 g/m*3 5.5 C 0 km/h
309 03-05-2020 01:40:00 5.4 C 6.49 g/m*3 5.4 C 0 km/h
310 03-05-2020 01:45:00 5.3 C 6.52 g/m*3 5.3 C 1.6 km/h
311 03-05-2020 01:50:00 5.3 C 6.52 g/m*3 5.3 C 1.6 km/h
312 03-05-2020 01:55:00 5.3 C 6.52 g/m*3 5.3 C 0 km/h
313 03-05-2020 02:00:00 5.3 C 6.52 g/m*3 5.3 C 1.6 km/h
314 03-05-2020 02:05:00 5.3 C 6.52 g/m*3 5.3 C 0 km/h
315 03-05-2020 02:10:00 5.3 C 6.52 g/m*3 5.3 C 4.8 km/h
316 03-05-2020 02:15:00 5.4 C 6.56 g/m*3 5.4 C 3.2 km/h
317 03-05-2020 02:20:00 5.4 C 6.56 g/m*3 5.4 C 3.2 km/h
318 03-05-2020 02:25:00 5.4 C 6.56 g/m*3 5.4 C 0 km/h
319 03-05-2020 02:30:00 5.3 C 6.52 g/m*3 5.3 C 0 km/h
320 03-05-2020 02:35:00 5.3 C 6.52 g/m*3 5.3 C 1.6 km/h
321 03-05-2020 02:40:00 5.2 C 6.47 g/m*3 5.2 C 0 km/h
322 03-05-2020 02:45:00 5.2 C 6.47 g/m*3 5.2 C 1.6 km/h
323 03-05-2020 02:50:00 5.1 C 6.43 g/m*3 5.1 C 1.6 km/h
324 03-05-2020 02:55:00 5 C 6.39 g/m*3 5 C 0 km/h
325 03-05-2020 03:00:00 4.9 C 6.35 g/m*3 4.9 C 1.6 km/h
Sensor: Nr:Datum:Temp:Abs-Feuchte:Windchill:Wind:
Aussen-T/F 326 03-05-2020 03:05:00 4.9 C 6.35 g/m*3 4.9 C 1.6 km/h
327 03-05-2020 03:10:00 4.8 C 6.3 g/m*3 4.8 C 0 km/h
328 03-05-2020 03:15:00 4.8 C 6.3 g/m*3 4.8 C 1.6 km/h
329 03-05-2020 03:20:00 4.8 C 6.37 g/m*3 4.8 C 3.2 km/h
330 03-05-2020 03:25:00 4.8 C 6.37 g/m*3 4.8 C 3.2 km/h
331 03-05-2020 03:30:00 4.8 C 6.37 g/m*3 4.8 C 0 km/h
332 03-05-2020 03:35:00 4.8 C 6.37 g/m*3 3.36 C 6.4 km/h
333 03-05-2020 03:40:00 4.8 C 6.37 g/m*3 4.8 C 1.6 km/h
334 03-05-2020 03:45:00 4.8 C 6.37 g/m*3 4.8 C 3.2 km/h
335 03-05-2020 03:50:00 4.8 C 6.37 g/m*3 4.8 C 3.2 km/h
336 03-05-2020 03:55:00 4.8 C 6.37 g/m*3 4.8 C 0 km/h
337 03-05-2020 04:00:00 4.8 C 6.37 g/m*3 4.8 C 3.2 km/h
338 03-05-2020 04:05:00 4.8 C 6.37 g/m*3 4.8 C 0 km/h
339 03-05-2020 04:10:00 4.7 C 6.33 g/m*3 4.7 C 0 km/h
340 03-05-2020 04:15:00 4.6 C 6.29 g/m*3 4.6 C 0 km/h
341 03-05-2020 04:20:00 4.4 C 6.2 g/m*3 4.4 C 0 km/h
342 03-05-2020 04:25:00 4.3 C 6.16 g/m*3 4.3 C 0 km/h
343 03-05-2020 04:30:00 4.1 C 6.08 g/m*3 4.1 C 0 km/h
344 03-05-2020 04:35:00 4 C 5.98 g/m*3 4 C 0 km/h
345 03-05-2020 04:40:00 3.9 C 6 g/m*3 3.9 C 0 km/h
346 03-05-2020 04:45:00 3.8 C 5.9 g/m*3 3.8 C 0 km/h
347 03-05-2020 04:50:00 3.7 C 5.92 g/m*3 3.7 C 0 km/h
348 03-05-2020 04:55:00 3.7 C 5.92 g/m*3 3.7 C 0 km/h
349 03-05-2020 05:00:00 3.7 C 5.92 g/m*3 3.7 C 0 km/h
350 03-05-2020 05:05:00 3.6 C 5.88 g/m*3 3.6 C 1.6 km/h
Sensor: Nr:Datum:Temp:Abs-Feuchte:Windchill:Wind:
Aussen-T/F 351 03-05-2020 05:10:00 3.6 C 5.88 g/m*3 3.6 C 0 km/h
352 03-05-2020 05:15:00 3.6 C 5.88 g/m*3 3.6 C 0 km/h
353 03-05-2020 05:20:00 3.5 C 5.84 g/m*3 3.5 C 0 km/h
354 03-05-2020 05:25:00 3.4 C 5.8 g/m*3 3.4 C 0 km/h
355 03-05-2020 05:30:00 3.4 C 5.8 g/m*3 3.4 C 0 km/h
356 03-05-2020 05:35:00 3.4 C 5.8 g/m*3 3.4 C 0 km/h
357 03-05-2020 05:40:00 3.4 C 5.8 g/m*3 3.4 C 0 km/h
358 03-05-2020 05:45:00 3.5 C 5.84 g/m*3 3.5 C 3.2 km/h
359 03-05-2020 05:50:00 3.6 C 5.94 g/m*3 3.6 C 0 km/h
360 03-05-2020 05:55:00 3.7 C 5.98 g/m*3 3.7 C 0 km/h
361 03-05-2020 06:00:00 3.8 C 6.02 g/m*3 3.8 C 0 km/h
362 03-05-2020 06:05:00 3.9 C 6.06 g/m*3 3.9 C 0 km/h
363 03-05-2020 06:10:00 3.9 C 6.06 g/m*3 3.9 C 0 km/h
364 03-05-2020 06:15:00 4.1 C 6.14 g/m*3 4.1 C 3.2 km/h
365 03-05-2020 06:20:00 4.2 C 6.19 g/m*3 4.2 C 1.6 km/h
366 03-05-2020 06:25:00 4.2 C 6.19 g/m*3 4.2 C 0 km/h
367 03-05-2020 06:30:00 4.3 C 6.23 g/m*3 4.3 C 3.2 km/h
368 03-05-2020 06:35:00 4.4 C 6.27 g/m*3 4.4 C 0 km/h
369 03-05-2020 06:40:00 4.4 C 6.27 g/m*3 4.4 C 0 km/h
370 03-05-2020 06:45:00 4.4 C 6.27 g/m*3 4.4 C 0 km/h
371 03-05-2020 06:50:00 4.5 C 6.31 g/m*3 4.5 C 3.2 km/h
372 03-05-2020 06:55:00 4.5 C 6.31 g/m*3 4.5 C 0 km/h
373 03-05-2020 07:00:00 4.5 C 6.31 g/m*3 4.5 C 0 km/h
374 03-05-2020 07:05:00 4.5 C 6.31 g/m*3 4.5 C 1.6 km/h
375 03-05-2020 07:10:00 4.4 C 6.27 g/m*3 4.4 C 4.8 km/h
Sensor: Nr:Datum:Temp:Abs-Feuchte:Windchill:Wind:
Aussen-T/F 376 03-05-2020 07:15:00 4.5 C 6.31 g/m*3 2.52 C 8.1 km/h
377 03-05-2020 07:20:00 4.4 C 6.27 g/m*3 4.4 C 4.8 km/h
378 03-05-2020 07:25:00 4.4 C 6.27 g/m*3 4.4 C 3.2 km/h
379 03-05-2020 07:30:00 4.4 C 6.27 g/m*3 4.4 C 3.2 km/h
380 03-05-2020 07:35:00 4.5 C 6.31 g/m*3 4.5 C 4.8 km/h
381 03-05-2020 07:40:00 4.6 C 6.35 g/m*3 3.13 C 6.4 km/h
382 03-05-2020 07:45:00 4.6 C 6.35 g/m*3 3.13 C 6.4 km/h
383 03-05-2020 07:50:00 4.6 C 6.35 g/m*3 3.13 C 6.4 km/h
384 03-05-2020 07:55:00 4.6 C 6.35 g/m*3 4.6 C 3.2 km/h
385 03-05-2020 08:00:00 4.7 C 6.39 g/m*3 4.7 C 3.2 km/h
386 03-05-2020 08:05:00 4.7 C 6.39 g/m*3 4.7 C 3.2 km/h
387 03-05-2020 08:10:00 4.7 C 6.39 g/m*3 4.7 C 1.6 km/h
388 03-05-2020 08:15:00 4.7 C 6.39 g/m*3 4.7 C 0 km/h
389 03-05-2020 08:20:00 4.8 C 6.44 g/m*3 4.8 C 0 km/h
390 03-05-2020 08:25:00 4.8 C 6.44 g/m*3 4.8 C 0 km/h
391 03-05-2020 08:30:00 4.9 C 6.48 g/m*3 4.9 C 1.6 km/h
392 03-05-2020 08:35:00 5 C 6.52 g/m*3 5 C 0 km/h
393 03-05-2020 08:40:00 5.1 C 6.63 g/m*3 5.1 C 1.6 km/h
394 03-05-2020 08:45:00 5.2 C 6.68 g/m*3 5.2 C 4.8 km/h
395 03-05-2020 08:50:00 5.3 C 6.72 g/m*3 5.3 C 4.8 km/h
396 03-05-2020 08:55:00 5.4 C 6.77 g/m*3 5.4 C 4.8 km/h
397 03-05-2020 09:00:00 5.6 C 6.86 g/m*3 5.6 C 4.8 km/h
398 03-05-2020 09:05:00 5.7 C 6.9 g/m*3 5.7 C 4.8 km/h
399 03-05-2020 09:10:00 5.7 C 6.9 g/m*3 5.7 C 4.8 km/h
400 03-05-2020 09:15:00 5.8 C 6.95 g/m*3 5.8 C 3.2 km/h
Sensor: Nr:Datum:Temp:Abs-Feuchte:Windchill:Wind:
Aussen-T/F 401 03-05-2020 09:20:00 6 C 7.04 g/m*3 6 C 4.8 km/h
402 03-05-2020 09:25:00 6.1 C 7.09 g/m*3 6.1 C 1.6 km/h
403 03-05-2020 09:30:00 6.3 C 7.18 g/m*3 6.3 C 0 km/h
404 03-05-2020 09:35:00 6.3 C 7.18 g/m*3 6.3 C 1.6 km/h
405 03-05-2020 09:40:00 6.4 C 7.23 g/m*3 6.4 C 1.6 km/h
406 03-05-2020 09:45:00 6.7 C 7.37 g/m*3 6.7 C 1.6 km/h
407 03-05-2020 09:50:00 6.9 C 7.47 g/m*3 6.9 C 1.6 km/h
408 03-05-2020 09:55:00 7.1 C 7.57 g/m*3 7.1 C 0 km/h
409 03-05-2020 10:00:00 7.3 C 7.66 g/m*3 7.3 C 0 km/h
410 03-05-2020 10:05:00 7.5 C 7.76 g/m*3 7.5 C 0 km/h
411 03-05-2020 10:10:00 7.6 C 7.81 g/m*3 7.6 C 0 km/h
412 03-05-2020 10:15:00 7.8 C 7.92 g/m*3 7.8 C 0 km/h
413 03-05-2020 10:20:00 8.1 C 8.07 g/m*3 8.1 C 0 km/h
414 03-05-2020 10:25:00 8.3 C 8.09 g/m*3 8.3 C 0 km/h
415 03-05-2020 10:30:00 8.6 C 8.25 g/m*3 8.6 C 0 km/h
416 03-05-2020 10:35:00 8.8 C 8.27 g/m*3 8.8 C 0 km/h
417 03-05-2020 10:40:00 9.1 C 8.34 g/m*3 9.1 C 0 km/h
418 03-05-2020 10:45:00 9.6 C 8.52 g/m*3 9.6 C 3.2 km/h
419 03-05-2020 10:50:00 9.9 C 8.68 g/m*3 9.9 C 1.6 km/h
420 03-05-2020 10:55:00 10.2 C 8.66 g/m*3 10.2 C 4.8 km/h
421 03-05-2020 11:00:00 10.6 C 8.78 g/m*3 10.6 C 4.8 km/h
422 03-05-2020 11:05:00 10.9 C 8.65 g/m*3 10.04 C 8.1 km/h
423 03-05-2020 11:10:00 11.2 C 8.62 g/m*3 11.2 C 3.2 km/h
424 03-05-2020 11:15:00 11.5 C 8.57 g/m*3 11.5 C 3.2 km/h
425 03-05-2020 11:20:00 11.7 C 8.58 g/m*3 11.7 C 1.6 km/h
Sensor: Nr:Datum:Temp:Abs-Feuchte:Windchill:Wind:
Aussen-T/F 426 03-05-2020 11:25:00 12.1 C 8.9 g/m*3 12.1 C 4.8 km/h
427 03-05-2020 11:30:00 12.5 C 8.8 g/m*3 12.5 C 4.8 km/h
428 03-05-2020 11:35:00 12.8 C 8.51 g/m*3 12.8 C 6.4 km/h
429 03-05-2020 11:40:00 13.1 C 8.44 g/m*3 13.1 C 6.4 km/h
430 03-05-2020 11:45:00 13.2 C 7.92 g/m*3 13.2 C 9.7 km/h
431 03-05-2020 11:50:00 13.4 C 8.02 g/m*3 13.4 C 9.7 km/h
432 03-05-2020 11:55:00 13.6 C 7.65 g/m*3 13.6 C 11.3 km/h
433 03-05-2020 12:00:00 13.7 C 7.7 g/m*3 13.7 C 8.1 km/h
434 03-05-2020 12:05:00 13.8 C 7.51 g/m*3 13.8 C 8.1 km/h
435 03-05-2020 12:10:00 13.9 C 7.55 g/m*3 13.9 C 6.4 km/h
436 03-05-2020 12:15:00 14.1 C 7.52 g/m*3 14.1 C 8.1 km/h
437 03-05-2020 12:20:00 14.2 C 7.45 g/m*3 14.2 C 11.3 km/h
438 03-05-2020 12:25:00 14.3 C 7.13 g/m*3 14.3 C 9.7 km/h
439 03-05-2020 12:30:00 14.3 C 7.25 g/m*3 14.3 C 11.3 km/h
440 03-05-2020 12:35:00 14.3 C 7.13 g/m*3 14.3 C 4.8 km/h
441 03-05-2020 12:40:00 14.4 C 7.42 g/m*3 14.4 C 8.1 km/h
442 03-05-2020 12:45:00 14.5 C 6.72 g/m*3 14.5 C 9.7 km/h
443 03-05-2020 12:50:00 14.6 C 6.76 g/m*3 14.6 C 9.7 km/h
444 03-05-2020 12:55:00 14.7 C 6.42 g/m*3 14.7 C 11.3 km/h
445 03-05-2020 13:00:00 14.8 C 6.71 g/m*3 14.8 C 11.3 km/h
446 03-05-2020 13:05:00 15 C 6.8 g/m*3 15 C 9.7 km/h
447 03-05-2020 13:10:00 15.2 C 7.01 g/m*3 15.2 C 9.7 km/h
448 03-05-2020 13:15:00 15.2 C 7.01 g/m*3 15.2 C 6.4 km/h
449 03-05-2020 13:20:00 15.3 C 6.79 g/m*3 15.3 C 14.5 km/h
450 03-05-2020 13:25:00 15.4 C 6.18 g/m*3 15.4 C 14.5 km/h
Sensor: Nr:Datum:Temp:Abs-Feuchte:Windchill:Wind:
Aussen-T/F 451 03-05-2020 13:30:00 15.4 C 6.31 g/m*3 15.4 C 9.7 km/h
452 03-05-2020 13:35:00 15.5 C 6.61 g/m*3 15.5 C 9.7 km/h
453 03-05-2020 13:40:00 15.7 C 6.29 g/m*3 15.7 C 11.3 km/h
454 03-05-2020 13:45:00 15.8 C 6.6 g/m*3 15.8 C 11.3 km/h
455 03-05-2020 13:50:00 15.8 C 6.73 g/m*3 15.8 C 9.7 km/h
456 03-05-2020 13:55:00 15.8 C 6.6 g/m*3 15.8 C 11.3 km/h
457 03-05-2020 14:00:00 15.8 C 6.6 g/m*3 15.8 C 11.3 km/h
458 03-05-2020 14:05:00 15.9 C 6.91 g/m*3 15.9 C 6.4 km/h
459 03-05-2020 14:10:00 16 C 6.4 g/m*3 16 C 9.7 km/h
460 03-05-2020 14:15:00 16.1 C 6.72 g/m*3 16.1 C 9.7 km/h
461 03-05-2020 14:20:00 16.2 C 6.21 g/m*3 16.2 C 12.9 km/h
462 03-05-2020 14:25:00 16.2 C 6.48 g/m*3 16.2 C 12.9 km/h
463 03-05-2020 14:30:00 16.2 C 6.48 g/m*3 16.2 C 9.7 km/h
464 03-05-2020 14:35:00 16.2 C 6.34 g/m*3 16.2 C 4.8 km/h
465 03-05-2020 14:40:00 16.3 C 6.66 g/m*3 16.3 C 9.7 km/h
466 03-05-2020 14:45:00 16.4 C 6.7 g/m*3 16.4 C 8.1 km/h
467 03-05-2020 14:50:00 16.7 C 6.54 g/m*3 16.7 C 8.1 km/h
468 03-05-2020 14:55:00 16.8 C 7.15 g/m*3 16.8 C 9.7 km/h
469 03-05-2020 15:00:00 17.1 C 6.99 g/m*3 17.1 C 11.3 km/h
470 03-05-2020 15:05:00 17.2 C 6.74 g/m*3 17.2 C 12.9 km/h
471 03-05-2020 15:10:00 17.3 C 6.78 g/m*3 17.3 C 9.7 km/h
472 03-05-2020 15:15:00 17.4 C 6.97 g/m*3 17.4 C 9.7 km/h
473 03-05-2020 15:20:00 17.3 C 6.78 g/m*3 17.3 C 8.1 km/h
474 03-05-2020 15:25:00 17.3 C 7.07 g/m*3 17.3 C 8.1 km/h
475 03-05-2020 15:30:00 17.3 C 7.37 g/m*3 17.3 C 6.4 km/h
Sensor: Nr:Datum:Temp:Abs-Feuchte:Windchill:Wind:
Aussen-T/F 476 03-05-2020 15:35:00 17.3 C 6.78 g/m*3 17.3 C 9.7 km/h
477 03-05-2020 15:40:00 17.4 C 6.52 g/m*3 17.4 C 8.1 km/h
478 03-05-2020 15:45:00 17.6 C 6.6 g/m*3 17.6 C 9.7 km/h
479 03-05-2020 15:50:00 17.8 C 6.68 g/m*3 17.8 C 11.3 km/h
480 03-05-2020 15:55:00 17.7 C 6.64 g/m*3 17.7 C 12.9 km/h
481 03-05-2020 16:00:00 17.7 C 7.24 g/m*3 17.7 C 11.3 km/h
482 03-05-2020 16:05:00 17.6 C 6.9 g/m*3 17.6 C 11.3 km/h
483 03-05-2020 16:10:00 17.4 C 6.97 g/m*3 17.4 C 9.7 km/h
484 03-05-2020 16:15:00 17.3 C 6.63 g/m*3 17.3 C 6.4 km/h
485 03-05-2020 16:20:00 17.3 C 6.78 g/m*3 17.3 C 6.4 km/h
486 03-05-2020 16:25:00 17.3 C 7.22 g/m*3 17.3 C 4.8 km/h
487 03-05-2020 16:30:00 17.3 C 7.22 g/m*3 17.3 C 11.3 km/h
488 03-05-2020 16:35:00 17.3 C 7.22 g/m*3 17.3 C 9.7 km/h
489 03-05-2020 16:40:00 17.3 C 7.07 g/m*3 17.3 C 9.7 km/h
490 03-05-2020 16:45:00 17.3 C 7.07 g/m*3 17.3 C 9.7 km/h
491 03-05-2020 16:50:00 17.4 C 7.26 g/m*3 17.4 C 8.1 km/h
492 03-05-2020 16:55:00 17.4 C 7.26 g/m*3 17.4 C 8.1 km/h
493 03-05-2020 17:00:00 17.3 C 7.37 g/m*3 17.3 C 8.1 km/h
494 03-05-2020 17:05:00 17.3 C 7.07 g/m*3 17.3 C 6.4 km/h
495 03-05-2020 17:10:00 17.2 C 7.18 g/m*3 17.2 C 6.4 km/h
496 03-05-2020 17:15:00 17.2 C 6.88 g/m*3 17.2 C 11.3 km/h
497 03-05-2020 17:20:00 17 C 7.09 g/m*3 17 C 11.3 km/h
498 03-05-2020 17:25:00 16.8 C 6.86 g/m*3 16.8 C 9.7 km/h
499 03-05-2020 17:30:00 16.7 C 7.39 g/m*3 16.7 C 4.8 km/h
500 03-05-2020 17:35:00 16.8 C 7.72 g/m*3 16.8 C 4.8 km/h
Sensor: Nr:Datum:Temp:Abs-Feuchte:Windchill:Wind:
Aussen-T/F 501 03-05-2020 17:40:00 16.9 C 7.19 g/m*3 16.9 C 9.7 km/h
502 03-05-2020 17:45:00 16.9 C 6.9 g/m*3 16.9 C 8.1 km/h
503 03-05-2020 17:50:00 16.8 C 6.86 g/m*3 16.8 C 8.1 km/h
504 03-05-2020 17:55:00 16.8 C 7.01 g/m*3 16.8 C 9.7 km/h
505 03-05-2020 18:00:00 16.7 C 7.11 g/m*3 16.7 C 6.4 km/h
506 03-05-2020 18:05:00 16.6 C 6.92 g/m*3 16.6 C 6.4 km/h
507 03-05-2020 18:10:00 16.6 C 7.49 g/m*3 16.6 C 8.1 km/h
508 03-05-2020 18:15:00 16.6 C 7.2 g/m*3 16.6 C 6.4 km/h
509 03-05-2020 18:20:00 16.6 C 7.77 g/m*3 16.6 C 4.8 km/h
510 03-05-2020 18:25:00 16.6 C 7.91 g/m*3 16.6 C 1.6 km/h
511 03-05-2020 18:30:00 16.6 C 7.49 g/m*3 16.6 C 3.2 km/h
512 03-05-2020 18:35:00 16.5 C 7.02 g/m*3 16.5 C 6.4 km/h
513 03-05-2020 18:40:00 16.6 C 8.19 g/m*3 16.6 C 3.2 km/h
514 03-05-2020 18:45:00 16.7 C 7.96 g/m*3 16.7 C 3.2 km/h
515 03-05-2020 18:50:00 16.7 C 7.82 g/m*3 16.7 C 3.2 km/h
516 03-05-2020 18:55:00 16.7 C 7.96 g/m*3 16.7 C 6.4 km/h
517 03-05-2020 19:00:00 16.6 C 7.35 g/m*3 16.6 C 6.4 km/h
518 03-05-2020 19:05:00 16.5 C 8.57 g/m*3 16.5 C 1.6 km/h
519 03-05-2020 19:10:00 16.4 C 8.93 g/m*3 16.4 C 3.2 km/h
520 03-05-2020 19:15:00 16.1 C 8.22 g/m*3 16.1 C 3.2 km/h
521 03-05-2020 19:20:00 16 C 8.45 g/m*3 16 C 3.2 km/h
522 03-05-2020 19:25:00 15.8 C 8.21 g/m*3 15.8 C 4.8 km/h
523 03-05-2020 19:30:00 15.8 C 9.02 g/m*3 15.8 C 0 km/h
524 03-05-2020 19:35:00 15.7 C 8.83 g/m*3 15.7 C 3.2 km/h
525 03-05-2020 19:40:00 15.6 C 9.18 g/m*3 15.6 C 4.8 km/h
Sensor: Nr:Datum:Temp:Abs-Feuchte:Windchill:Wind:
Aussen-T/F 526 03-05-2020 19:45:00 15.4 C 9.2 g/m*3 15.4 C 4.8 km/h
527 03-05-2020 19:50:00 15.2 C 9.22 g/m*3 15.2 C 4.8 km/h
528 03-05-2020 19:55:00 15 C 9.1 g/m*3 15 C 6.4 km/h
529 03-05-2020 20:00:00 14.8 C 9.25 g/m*3 14.8 C 4.8 km/h
530 03-05-2020 20:05:00 14.6 C 9.01 g/m*3 14.6 C 4.8 km/h
531 03-05-2020 20:10:00 14.3 C 8.85 g/m*3 14.3 C 6.4 km/h
532 03-05-2020 20:15:00 14 C 8.68 g/m*3 14 C 6.4 km/h
533 03-05-2020 20:20:00 13.7 C 8.64 g/m*3 13.7 C 6.4 km/h
534 03-05-2020 20:25:00 13.4 C 8.6 g/m*3 13.4 C 4.8 km/h
535 03-05-2020 20:30:00 13.2 C 8.38 g/m*3 13.2 C 6.4 km/h
536 03-05-2020 20:35:00 13.1 C 8.56 g/m*3 13.1 C 4.8 km/h
537 03-05-2020 20:40:00 12.9 C 8.45 g/m*3 12.9 C 4.8 km/h
538 03-05-2020 20:45:00 12.7 C 8.35 g/m*3 12.7 C 6.4 km/h
539 03-05-2020 20:50:00 12.6 C 8.3 g/m*3 12.6 C 6.4 km/h
540 03-05-2020 20:55:00 12.5 C 8.36 g/m*3 12.5 C 4.8 km/h
541 03-05-2020 21:00:00 12.3 C 8.25 g/m*3 12.3 C 4.8 km/h
542 03-05-2020 21:05:00 12.3 C 8.36 g/m*3 12.3 C 3.2 km/h
543 03-05-2020 21:10:00 12.2 C 8.2 g/m*3 12.2 C 6.4 km/h
544 03-05-2020 21:15:00 12.2 C 8.31 g/m*3 12.2 C 4.8 km/h
545 03-05-2020 21:20:00 12.1 C 8.26 g/m*3 12.1 C 4.8 km/h
546 03-05-2020 21:25:00 12.1 C 8.26 g/m*3 12.1 C 3.2 km/h
547 03-05-2020 21:30:00 12.1 C 8.47 g/m*3 12.1 C 4.8 km/h
548 03-05-2020 21:35:00 12 C 8.42 g/m*3 12 C 4.8 km/h
549 03-05-2020 21:40:00 11.9 C 8.26 g/m*3 11.9 C 3.2 km/h
550 03-05-2020 21:45:00 11.9 C 8.37 g/m*3 11.9 C 0 km/h
Sensor: Nr:Datum:Temp:Abs-Feuchte:Windchill:Wind:
Aussen-T/F 551 03-05-2020 21:50:00 12 C 8.63 g/m*3 12 C 0 km/h
552 03-05-2020 21:55:00 11.9 C 8.47 g/m*3 11.9 C 0 km/h
553 03-05-2020 22:00:00 11.9 C 8.47 g/m*3 11.9 C 1.6 km/h
554 03-05-2020 22:05:00 11.9 C 8.47 g/m*3 11.9 C 0 km/h
555 03-05-2020 22:10:00 11.8 C 8.42 g/m*3 11.8 C 0 km/h
556 03-05-2020 22:15:00 11.8 C 8.31 g/m*3 11.8 C 3.2 km/h
557 03-05-2020 22:20:00 11.8 C 8.42 g/m*3 11.8 C 0 km/h
558 03-05-2020 22:25:00 11.8 C 8.42 g/m*3 11.8 C 0 km/h
559 03-05-2020 22:30:00 11.8 C 8.53 g/m*3 11.8 C 0 km/h
560 03-05-2020 22:35:00 11.7 C 8.37 g/m*3 11.7 C 0 km/h
561 03-05-2020 22:40:00 11.7 C 8.37 g/m*3 11.7 C 0 km/h
562 03-05-2020 22:45:00 11.6 C 8.21 g/m*3 11.6 C 0 km/h
563 03-05-2020 22:50:00 11.6 C 8.21 g/m*3 11.6 C 0 km/h
564 03-05-2020 22:55:00 11.6 C 8.21 g/m*3 11.6 C 0 km/h
565 03-05-2020 23:00:00 11.6 C 8.32 g/m*3 11.6 C 0 km/h
566 03-05-2020 23:05:00 11.6 C 8.42 g/m*3 11.6 C 0 km/h
567 03-05-2020 23:10:00 11.6 C 8.52 g/m*3 11.6 C 0 km/h
568 03-05-2020 23:15:00 11.5 C 8.37 g/m*3 11.5 C 0 km/h
569 03-05-2020 23:20:00 11.5 C 8.37 g/m*3 11.5 C 0 km/h
570 03-05-2020 23:25:00 11.4 C 8.21 g/m*3 11.4 C 0 km/h
571 03-05-2020 23:30:00 11.4 C 8.21 g/m*3 11.4 C 0 km/h
572 03-05-2020 23:35:00 11.4 C 8.21 g/m*3 11.4 C 4.8 km/h
573 03-05-2020 23:40:00 11.4 C 8.21 g/m*3 11.4 C 3.2 km/h
574 03-05-2020 23:45:00 11.4 C 8.11 g/m*3 11.4 C 3.2 km/h
575 03-05-2020 23:50:00 11.4 C 8.21 g/m*3 11.4 C 3.2 km/h
Sensor: Nr:Datum:Temp:Abs-Feuchte:Windchill:Wind:
Aussen-T/F 576 03-05-2020 23:55:00 11.4 C 8.21 g/m*3 11.4 C 0 km/h
577 04-05-2020 00:00:00 11.4 C 8.01 g/m*3 11.4 C 0 km/h
578 04-05-2020 00:05:00 11.4 C 8.21 g/m*3 11.4 C 0 km/h
579 04-05-2020 00:10:00 11.4 C 8.21 g/m*3 11.4 C 0 km/h
580 04-05-2020 00:15:00 11.4 C 8.31 g/m*3 11.4 C 0 km/h
581 04-05-2020 00:20:00 11.4 C 8.31 g/m*3 11.4 C 0 km/h
582 04-05-2020 00:25:00 11.3 C 8.36 g/m*3 11.3 C 0 km/h
583 04-05-2020 00:30:00 11.3 C 8.36 g/m*3 11.3 C 0 km/h
584 04-05-2020 00:35:00 11.3 C 8.36 g/m*3 11.3 C 0 km/h
585 04-05-2020 00:40:00 11.3 C 8.36 g/m*3 11.3 C 0 km/h
586 04-05-2020 00:45:00 11.2 C 8.41 g/m*3 11.2 C 0 km/h
587 04-05-2020 00:50:00 11.2 C 8.41 g/m*3 11.2 C 0 km/h
588 04-05-2020 00:55:00 11.2 C 8.31 g/m*3 11.2 C 0 km/h
589 04-05-2020 01:00:00 11.2 C 8.41 g/m*3 11.2 C 0 km/h
590 04-05-2020 01:05:00 11.2 C 8.31 g/m*3 11.2 C 0 km/h
591 04-05-2020 01:10:00 11.1 C 8.26 g/m*3 11.1 C 0 km/h
592 04-05-2020 01:15:00 11.1 C 8.26 g/m*3 11.1 C 0 km/h
593 04-05-2020 01:20:00 11 C 8.21 g/m*3 11 C 0 km/h
594 04-05-2020 01:25:00 11 C 8.21 g/m*3 11 C 4.8 km/h
595 04-05-2020 01:30:00 10.9 C 8.16 g/m*3 10.9 C 1.6 km/h
596 04-05-2020 01:35:00 11 C 8.11 g/m*3 11 C 0 km/h
597 04-05-2020 01:40:00 11 C 8.11 g/m*3 11 C 0 km/h
598 04-05-2020 01:45:00 11.1 C 8.06 g/m*3 11.1 C 0 km/h
599 04-05-2020 01:50:00 11.1 C 8.06 g/m*3 11.1 C 0 km/h
600 04-05-2020 01:55:00 11.2 C 8.21 g/m*3 11.2 C 0 km/h
Sensor: Nr:Datum:Temp:Abs-Feuchte:Windchill:Wind:
Aussen-T/F 601 04-05-2020 02:00:00 11.2 C 8.31 g/m*3 11.2 C 0 km/h
602 04-05-2020 02:05:00 11.2 C 8.41 g/m*3 11.2 C 0 km/h
603 04-05-2020 02:10:00 11.2 C 8.41 g/m*3 11.2 C 0 km/h
604 04-05-2020 02:15:00 11.1 C 8.36 g/m*3 11.1 C 0 km/h
605 04-05-2020 02:20:00 11.1 C 8.36 g/m*3 11.1 C 0 km/h
606 04-05-2020 02:25:00 11 C 8.21 g/m*3 11 C 0 km/h
607 04-05-2020 02:30:00 11 C 8.31 g/m*3 11 C 0 km/h
608 04-05-2020 02:35:00 11 C 8.41 g/m*3 11 C 0 km/h
609 04-05-2020 02:40:00 10.9 C 8.26 g/m*3 10.9 C 0 km/h
610 04-05-2020 02:45:00 10.9 C 8.36 g/m*3 10.9 C 0 km/h
611 04-05-2020 02:50:00 10.9 C 8.36 g/m*3 10.9 C 0 km/h
612 04-05-2020 02:55:00 10.8 C 8.2 g/m*3 10.8 C 0 km/h
613 04-05-2020 03:00:00 10.7 C 8.05 g/m*3 10.7 C 4.8 km/h
614 04-05-2020 03:05:00 10.5 C 8.05 g/m*3 10.5 C 0 km/h
615 04-05-2020 03:10:00 10.4 C 8.1 g/m*3 10.4 C 0 km/h
616 04-05-2020 03:15:00 10.3 C 8.04 g/m*3 10.3 C 1.6 km/h
617 04-05-2020 03:20:00 10.2 C 7.99 g/m*3 10.2 C 1.6 km/h
618 04-05-2020 03:25:00 10 C 7.89 g/m*3 10 C 0 km/h
619 04-05-2020 03:30:00 9.9 C 7.84 g/m*3 9.9 C 0 km/h
620 04-05-2020 03:35:00 9.8 C 7.89 g/m*3 9.8 C 0 km/h
621 04-05-2020 03:40:00 9.7 C 7.74 g/m*3 9.7 C 0 km/h
622 04-05-2020 03:45:00 9.6 C 7.69 g/m*3 9.6 C 0 km/h
623 04-05-2020 03:50:00 9.5 C 7.74 g/m*3 9.5 C 0 km/h
624 04-05-2020 03:55:00 9.4 C 7.6 g/m*3 9.4 C 0 km/h
625 04-05-2020 04:00:00 9.3 C 7.64 g/m*3 9.3 C 0 km/h
Sensor: Nr:Datum:Temp:Abs-Feuchte:Windchill:Wind:
Aussen-T/F 626 04-05-2020 04:05:00 9.3 C 7.73 g/m*3 9.3 C 0 km/h
627 04-05-2020 04:10:00 9.3 C 7.73 g/m*3 9.3 C 0 km/h
628 04-05-2020 04:15:00 9.2 C 7.68 g/m*3 9.2 C 0 km/h
629 04-05-2020 04:20:00 9.2 C 7.77 g/m*3 9.2 C 0 km/h
630 04-05-2020 04:25:00 9.2 C 7.77 g/m*3 9.2 C 0 km/h
631 04-05-2020 04:30:00 9.2 C 7.77 g/m*3 9.2 C 0 km/h
632 04-05-2020 04:35:00 9.2 C 7.86 g/m*3 9.2 C 0 km/h
633 04-05-2020 04:40:00 9.3 C 7.91 g/m*3 9.3 C 0 km/h
634 04-05-2020 04:45:00 9.3 C 7.91 g/m*3 9.3 C 0 km/h
635 04-05-2020 04:50:00 9.4 C 7.96 g/m*3 9.4 C 0 km/h
636 04-05-2020 04:55:00 9.5 C 8.1 g/m*3 9.5 C 0 km/h
637 04-05-2020 05:00:00 9.5 C 8.01 g/m*3 9.5 C 0 km/h
638 04-05-2020 05:05:00 9.6 C 8.06 g/m*3 9.6 C 0 km/h
639 04-05-2020 05:10:00 9.6 C 8.15 g/m*3 9.6 C 0 km/h
640 04-05-2020 05:15:00 9.7 C 8.11 g/m*3 9.7 C 0 km/h
641 04-05-2020 05:20:00 9.7 C 8.11 g/m*3 9.7 C 0 km/h
642 04-05-2020 05:25:00 9.7 C 8.11 g/m*3 9.7 C 0 km/h
643 04-05-2020 05:30:00 9.8 C 8.16 g/m*3 9.8 C 0 km/h
644 04-05-2020 05:35:00 9.8 C 8.16 g/m*3 9.8 C 0 km/h
645 04-05-2020 05:40:00 9.8 C 8.16 g/m*3 9.8 C 0 km/h
646 04-05-2020 05:45:00 9.8 C 8.16 g/m*3 9.8 C 0 km/h
647 04-05-2020 05:50:00 9.8 C 8.16 g/m*3 9.8 C 0 km/h
648 04-05-2020 05:55:00 9.8 C 8.16 g/m*3 9.8 C 0 km/h
649 04-05-2020 06:00:00 9.8 C 8.26 g/m*3 9.8 C 0 km/h
650 04-05-2020 06:05:00 9.8 C 8.16 g/m*3 9.8 C 0 km/h
Sensor: Nr:Datum:Temp:Abs-Feuchte:Windchill:Wind:
Aussen-T/F 651 04-05-2020 06:10:00 9.8 C 8.26 g/m*3 9.8 C 0 km/h
652 04-05-2020 06:15:00 9.9 C 8.31 g/m*3 9.9 C 0 km/h
653 04-05-2020 06:20:00 9.9 C 8.31 g/m*3 9.9 C 0 km/h
654 04-05-2020 06:25:00 9.9 C 8.31 g/m*3 9.9 C 0 km/h
655 04-05-2020 06:30:00 9.9 C 8.31 g/m*3 9.9 C 0 km/h
656 04-05-2020 06:35:00 9.9 C 8.31 g/m*3 9.9 C 0 km/h
657 04-05-2020 06:40:00 9.9 C 8.31 g/m*3 9.9 C 0 km/h
658 04-05-2020 06:45:00 9.9 C 8.31 g/m*3 9.9 C 0 km/h
659 04-05-2020 06:50:00 9.9 C 8.31 g/m*3 9.9 C 0 km/h
660 04-05-2020 06:55:00 9.9 C 8.4 g/m*3 9.9 C 0 km/h
661 04-05-2020 07:00:00 9.9 C 8.4 g/m*3 9.9 C 0 km/h
662 04-05-2020 07:05:00 9.9 C 8.4 g/m*3 9.9 C 0 km/h
663 04-05-2020 07:10:00 10 C 8.46 g/m*3 10 C 0 km/h
664 04-05-2020 07:15:00 10.1 C 8.51 g/m*3 10.1 C 0 km/h
665 04-05-2020 07:20:00 10.1 C 8.51 g/m*3 10.1 C 0 km/h
666 04-05-2020 07:25:00 10.2 C 8.66 g/m*3 10.2 C 0 km/h
667 04-05-2020 07:30:00 10.3 C 8.71 g/m*3 10.3 C 1.6 km/h
668 04-05-2020 07:35:00 10.7 C 8.74 g/m*3 9.81 C 8.1 km/h
669 04-05-2020 07:40:00 10.9 C 8.75 g/m*3 10.9 C 4.8 km/h
670 04-05-2020 07:45:00 11.1 C 8.76 g/m*3 11.1 C 3.2 km/h
671 04-05-2020 07:50:00 11.3 C 8.77 g/m*3 11.3 C 4.8 km/h
672 04-05-2020 07:55:00 11.4 C 8.93 g/m*3 11.4 C 0 km/h
673 04-05-2020 08:00:00 11.5 C 8.99 g/m*3 11.5 C 0 km/h
674 04-05-2020 08:05:00 11.6 C 9.15 g/m*3 11.6 C 6.4 km/h
675 04-05-2020 08:10:00 11.6 C 9.15 g/m*3 11.6 C 8.1 km/h
Sensor: Nr:Datum:Temp:Abs-Feuchte:Windchill:Wind:
Aussen-T/F 676 04-05-2020 08:15:00 11.6 C 9.25 g/m*3 11.6 C 0 km/h
677 04-05-2020 08:20:00 11.5 C 9.3 g/m*3 11.5 C 1.6 km/h
678 04-05-2020 08:25:00 11.5 C 9.3 g/m*3 11.5 C 1.6 km/h
679 04-05-2020 08:30:00 11.5 C 9.4 g/m*3 11.5 C 3.2 km/h
680 04-05-2020 08:35:00 11.6 C 9.56 g/m*3 11.6 C 1.6 km/h
681 04-05-2020 08:40:00 11.6 C 9.56 g/m*3 11.6 C 3.2 km/h
682 04-05-2020 08:45:00 11.7 C 9.62 g/m*3 11.7 C 3.2 km/h
683 04-05-2020 08:50:00 11.7 C 9.62 g/m*3 11.7 C 6.4 km/h
684 04-05-2020 08:55:00 11.7 C 9.62 g/m*3 11.7 C 3.2 km/h
685 04-05-2020 09:00:00 11.7 C 9.62 g/m*3 11.7 C 0 km/h
686 04-05-2020 09:05:00 11.6 C 9.56 g/m*3 11.6 C 0 km/h
687 04-05-2020 09:10:00 11.7 C 9.62 g/m*3 11.7 C 0 km/h
688 04-05-2020 09:15:00 11.7 C 9.73 g/m*3 11.7 C 0 km/h
689 04-05-2020 09:20:00 11.8 C 9.79 g/m*3 11.8 C 0 km/h
690 04-05-2020 09:25:00 11.8 C 9.79 g/m*3 11.8 C 0 km/h
691 04-05-2020 09:30:00 11.9 C 9.85 g/m*3 11.9 C 1.6 km/h
692 04-05-2020 09:35:00 11.9 C 9.85 g/m*3 11.9 C 1.6 km/h
693 04-05-2020 09:40:00 12 C 9.91 g/m*3 12 C 1.6 km/h
694 04-05-2020 09:45:00 12 C 9.91 g/m*3 12 C 3.2 km/h
695 04-05-2020 09:50:00 12.1 C 9.97 g/m*3 12.1 C 4.8 km/h
696 04-05-2020 09:55:00 12.2 C 10.04 g/m*3 12.2 C 4.8 km/h
697 04-05-2020 10:00:00 12.4 C 10.05 g/m*3 12.4 C 4.8 km/h
698 04-05-2020 10:05:00 12.6 C 10.18 g/m*3 12.6 C 6.4 km/h
699 04-05-2020 10:10:00 12.7 C 10.24 g/m*3 12.7 C 3.2 km/h
700 04-05-2020 10:15:00 12.9 C 10.26 g/m*3 12.9 C 4.8 km/h
Sensor: Nr:Datum:Temp:Abs-Feuchte:Windchill:Wind:
Aussen-T/F 701 04-05-2020 10:20:00 12.9 C 10.14 g/m*3 12.9 C 8.1 km/h
702 04-05-2020 10:25:00 13.1 C 10.27 g/m*3 13.1 C 6.4 km/h
703 04-05-2020 10:30:00 13.3 C 10.51 g/m*3 13.3 C 8.1 km/h
704 04-05-2020 10:35:00 13.5 C 10.41 g/m*3 13.5 C 8.1 km/h
705 04-05-2020 10:40:00 13.7 C 10.54 g/m*3 13.7 C 8.1 km/h
706 04-05-2020 10:45:00 13.7 C 10.54 g/m*3 13.7 C 8.1 km/h
707 04-05-2020 10:50:00 13.8 C 10.48 g/m*3 13.8 C 4.8 km/h
708 04-05-2020 10:55:00 13.9 C 10.67 g/m*3 13.9 C 6.4 km/h
709 04-05-2020 11:00:00 13.9 C 10.55 g/m*3 13.9 C 3.2 km/h
710 04-05-2020 11:05:00 13.8 C 10.48 g/m*3 13.8 C 6.4 km/h
711 04-05-2020 11:10:00 13.8 C 10.6 g/m*3 13.8 C 1.6 km/h
712 04-05-2020 11:15:00 13.7 C 10.54 g/m*3 13.7 C 3.2 km/h
713 04-05-2020 11:20:00 13.6 C 10.47 g/m*3 13.6 C 6.4 km/h
714 04-05-2020 11:25:00 13.4 C 10.46 g/m*3 13.4 C 9.7 km/h
715 04-05-2020 11:30:00 13.2 C 10.22 g/m*3 13.2 C 9.7 km/h
716 04-05-2020 11:35:00 12.9 C 10.14 g/m*3 12.9 C 4.8 km/h
717 04-05-2020 11:40:00 12.8 C 10.08 g/m*3 12.8 C 8.1 km/h
718 04-05-2020 11:45:00 12.7 C 10.13 g/m*3 12.7 C 6.4 km/h
719 04-05-2020 11:50:00 12.6 C 10.07 g/m*3 12.6 C 8.1 km/h
720 04-05-2020 11:55:00 12.4 C 9.94 g/m*3 12.4 C 9.7 km/h
721 04-05-2020 12:00:00 12.3 C 9.99 g/m*3 12.3 C 3.2 km/h
722 04-05-2020 12:05:00 12.3 C 9.99 g/m*3 12.3 C 4.8 km/h
723 04-05-2020 12:10:00 12.3 C 9.99 g/m*3 12.3 C 4.8 km/h
724 04-05-2020 12:15:00 12.3 C 9.99 g/m*3 12.3 C 11.3 km/h
725 04-05-2020 12:20:00 12.4 C 10.05 g/m*3 12.4 C 11.3 km/h
Sensor: Nr:Datum:Temp:Abs-Feuchte:Windchill:Wind:
Aussen-T/F 726 04-05-2020 12:25:00 12.6 C 10.29 g/m*3 12.6 C 11.3 km/h
727 04-05-2020 12:30:00 12.8 C 10.42 g/m*3 12.8 C 9.7 km/h
728 04-05-2020 12:35:00 12.9 C 10.37 g/m*3 12.9 C 12.9 km/h
729 04-05-2020 12:40:00 12.9 C 10.26 g/m*3 12.9 C 8.1 km/h
730 04-05-2020 12:45:00 13 C 10.32 g/m*3 13 C 12.9 km/h
731 04-05-2020 12:50:00 12.9 C 10.26 g/m*3 12.9 C 11.3 km/h
732 04-05-2020 12:55:00 13.1 C 10.38 g/m*3 13.1 C 6.4 km/h
733 04-05-2020 13:00:00 13.3 C 10.63 g/m*3 13.3 C 9.7 km/h
734 04-05-2020 13:05:00 13.4 C 10.58 g/m*3 13.4 C 8.1 km/h
735 04-05-2020 13:10:00 13.4 C 10.35 g/m*3 13.4 C 6.4 km/h
736 04-05-2020 13:15:00 13.4 C 10.23 g/m*3 13.4 C 1.6 km/h
737 04-05-2020 13:20:00 13.7 C 10.42 g/m*3 13.7 C 12.9 km/h
738 04-05-2020 13:25:00 13.9 C 10.19 g/m*3 13.9 C 8.1 km/h
739 04-05-2020 13:30:00 14.1 C 10.19 g/m*3 14.1 C 8.1 km/h
740 04-05-2020 13:35:00 14.3 C 10.32 g/m*3 14.3 C 8.1 km/h
741 04-05-2020 13:40:00 14.6 C 10.51 g/m*3 14.6 C 6.4 km/h
742 04-05-2020 13:45:00 14.7 C 10.32 g/m*3 14.7 C 11.3 km/h
743 04-05-2020 13:50:00 14.7 C 10.2 g/m*3 14.7 C 6.4 km/h
744 04-05-2020 13:55:00 14.6 C 10.26 g/m*3 14.6 C 6.4 km/h
745 04-05-2020 14:00:00 14.6 C 10.39 g/m*3 14.6 C 8.1 km/h
746 04-05-2020 14:05:00 14.5 C 10.07 g/m*3 14.5 C 11.3 km/h
747 04-05-2020 14:10:00 14.5 C 10.07 g/m*3 14.5 C 9.7 km/h
748 04-05-2020 14:15:00 14.6 C 10.26 g/m*3 14.6 C 12.9 km/h
749 04-05-2020 14:20:00 14.8 C 10.39 g/m*3 14.8 C 16.1 km/h
750 04-05-2020 14:25:00 14.9 C 10.32 g/m*3 14.9 C 16.1 km/h
Sensor: Nr:Datum:Temp:Abs-Feuchte:Windchill:Wind:
Aussen-T/F 751 04-05-2020 14:30:00 15 C 10.39 g/m*3 15 C 9.7 km/h
752 04-05-2020 14:35:00 15.1 C 10.45 g/m*3 15.1 C 11.3 km/h
753 04-05-2020 14:40:00 14.9 C 10.2 g/m*3 14.9 C 14.5 km/h
754 04-05-2020 14:45:00 14.7 C 9.95 g/m*3 14.7 C 14.5 km/h
755 04-05-2020 14:50:00 14.6 C 10.01 g/m*3 14.6 C 11.3 km/h
756 04-05-2020 14:55:00 14.5 C 10.07 g/m*3 14.5 C 9.7 km/h
757 04-05-2020 15:00:00 14.4 C 10.01 g/m*3 14.4 C 9.7 km/h
758 04-05-2020 15:05:00 14.3 C 10.07 g/m*3 14.3 C 9.7 km/h
759 04-05-2020 15:10:00 14.3 C 10.07 g/m*3 14.3 C 11.3 km/h
760 04-05-2020 15:15:00 14.3 C 10.07 g/m*3 14.3 C 6.4 km/h
761 04-05-2020 15:20:00 14.3 C 10.07 g/m*3 14.3 C 8.1 km/h
762 04-05-2020 15:25:00 14.4 C 9.89 g/m*3 14.4 C 8.1 km/h
763 04-05-2020 15:30:00 14.3 C 9.71 g/m*3 14.3 C 8.1 km/h
764 04-05-2020 15:35:00 14.2 C 9.65 g/m*3 14.2 C 8.1 km/h
765 04-05-2020 15:40:00 14.2 C 9.65 g/m*3 14.2 C 9.7 km/h
766 04-05-2020 15:45:00 14.3 C 9.58 g/m*3 14.3 C 6.4 km/h
767 04-05-2020 15:50:00 14.4 C 9.64 g/m*3 14.4 C 9.7 km/h
768 04-05-2020 15:55:00 14.6 C 9.76 g/m*3 14.6 C 11.3 km/h
769 04-05-2020 16:00:00 14.7 C 9.82 g/m*3 14.7 C 9.7 km/h
770 04-05-2020 16:05:00 14.7 C 9.44 g/m*3 14.7 C 11.3 km/h
771 04-05-2020 16:10:00 14.7 C 9.32 g/m*3 14.7 C 12.9 km/h
772 04-05-2020 16:15:00 14.8 C 9.5 g/m*3 14.8 C 11.3 km/h
773 04-05-2020 16:20:00 14.8 C 9.37 g/m*3 14.8 C 9.7 km/h
774 04-05-2020 16:25:00 14.7 C 9.32 g/m*3 14.7 C 11.3 km/h
775 04-05-2020 16:30:00 14.4 C 8.9 g/m*3 14.4 C 12.9 km/h
Sensor: Nr:Datum:Temp:Abs-Feuchte:Windchill:Wind:
Aussen-T/F 776 04-05-2020 16:35:00 14.3 C 8.97 g/m*3 14.3 C 12.9 km/h
777 04-05-2020 16:40:00 14.4 C 9.27 g/m*3 14.4 C 9.7 km/h
778 04-05-2020 16:45:00 14.4 C 9.15 g/m*3 14.4 C 9.7 km/h
779 04-05-2020 16:50:00 14.6 C 9.13 g/m*3 14.6 C 14.5 km/h
780 04-05-2020 16:55:00 14.6 C 9.13 g/m*3 14.6 C 11.3 km/h
781 04-05-2020 17:00:00 14.5 C 8.95 g/m*3 14.5 C 12.9 km/h
782 04-05-2020 17:05:00 14.4 C 9.02 g/m*3 14.4 C 16.1 km/h
783 04-05-2020 17:10:00 14.4 C 8.9 g/m*3 14.4 C 12.9 km/h
784 04-05-2020 17:15:00 14.3 C 8.97 g/m*3 14.3 C 12.9 km/h
785 04-05-2020 17:20:00 14.3 C 9.09 g/m*3 14.3 C 11.3 km/h
786 04-05-2020 17:25:00 14.3 C 8.97 g/m*3 14.3 C 6.4 km/h
787 04-05-2020 17:30:00 14.3 C 8.85 g/m*3 14.3 C 6.4 km/h
788 04-05-2020 17:35:00 14.3 C 8.97 g/m*3 14.3 C 11.3 km/h
789 04-05-2020 17:40:00 14.2 C 8.55 g/m*3 14.2 C 12.9 km/h
790 04-05-2020 17:45:00 14.2 C 8.67 g/m*3 14.2 C 11.3 km/h
791 04-05-2020 17:50:00 14.2 C 8.79 g/m*3 14.2 C 9.7 km/h
792 04-05-2020 17:55:00 14.2 C 8.67 g/m*3 14.2 C 11.3 km/h
793 04-05-2020 18:00:00 14.2 C 8.55 g/m*3 14.2 C 6.4 km/h
794 04-05-2020 18:05:00 14.3 C 8.6 g/m*3 14.3 C 9.7 km/h
795 04-05-2020 18:10:00 14.3 C 8.6 g/m*3 14.3 C 6.4 km/h
796 04-05-2020 18:15:00 14.3 C 8.6 g/m*3 14.3 C 4.8 km/h
797 04-05-2020 18:20:00 14.2 C 8.43 g/m*3 14.2 C 3.2 km/h
798 04-05-2020 18:25:00 14.1 C 8.62 g/m*3 14.1 C 4.8 km/h
799 04-05-2020 18:30:00 14 C 8.44 g/m*3 14 C 6.4 km/h
800 04-05-2020 18:35:00 14 C 8.93 g/m*3 14 C 1.6 km/h
Sensor: Nr:Datum:Temp:Abs-Feuchte:Windchill:Wind:
Aussen-T/F 801 04-05-2020 18:40:00 13.9 C 8.51 g/m*3 13.9 C 6.4 km/h
802 04-05-2020 18:45:00 13.8 C 8.34 g/m*3 13.8 C 4.8 km/h
803 04-05-2020 18:50:00 13.8 C 8.34 g/m*3 13.8 C 6.4 km/h
804 04-05-2020 18:55:00 13.8 C 8.34 g/m*3 13.8 C 4.8 km/h
805 04-05-2020 19:00:00 13.8 C 8.34 g/m*3 13.8 C 3.2 km/h
806 04-05-2020 19:05:00 13.8 C 9.06 g/m*3 13.8 C 0 km/h
807 04-05-2020 19:10:00 13.8 C 8.94 g/m*3 13.8 C 0 km/h
808 04-05-2020 19:15:00 13.7 C 9 g/m*3 13.7 C 0 km/h
809 04-05-2020 19:20:00 13.6 C 8.94 g/m*3 13.6 C 0 km/h
810 04-05-2020 19:25:00 13.4 C 8.6 g/m*3 13.4 C 3.2 km/h
811 04-05-2020 19:30:00 13.3 C 8.78 g/m*3 13.3 C 1.6 km/h
812 04-05-2020 19:35:00 13.3 C 9.24 g/m*3 13.3 C 0 km/h
813 04-05-2020 19:40:00 13.3 C 9.36 g/m*3 13.3 C 0 km/h
814 04-05-2020 19:45:00 13.2 C 9.19 g/m*3 13.2 C 0 km/h
815 04-05-2020 19:50:00 13.1 C 9.36 g/m*3 13.1 C 0 km/h
816 04-05-2020 19:55:00 13.1 C 9.47 g/m*3 13.1 C 0 km/h
817 04-05-2020 20:00:00 13.1 C 9.36 g/m*3 13.1 C 0 km/h
818 04-05-2020 20:05:00 13 C 9.3 g/m*3 13 C 0 km/h
819 04-05-2020 20:10:00 13 C 9.3 g/m*3 13 C 0 km/h
820 04-05-2020 20:15:00 12.9 C 9.35 g/m*3 12.9 C 0 km/h
821 04-05-2020 20:20:00 12.9 C 9.47 g/m*3 12.9 C 0 km/h
822 04-05-2020 20:25:00 12.8 C 9.41 g/m*3 12.8 C 0 km/h
823 04-05-2020 20:30:00 12.6 C 9.18 g/m*3 12.6 C 0 km/h
824 04-05-2020 20:35:00 12.4 C 9.07 g/m*3 12.4 C 0 km/h
825 04-05-2020 20:40:00 12.2 C 8.52 g/m*3 12.2 C 6.4 km/h
Sensor: Nr:Datum:Temp:Abs-Feuchte:Windchill:Wind:
Aussen-T/F 826 04-05-2020 20:45:00 12.2 C 8.52 g/m*3 12.2 C 4.8 km/h
827 04-05-2020 20:50:00 12.2 C 8.74 g/m*3 12.2 C 4.8 km/h
828 04-05-2020 20:55:00 12.1 C 8.69 g/m*3 12.1 C 4.8 km/h
829 04-05-2020 21:00:00 11.9 C 8.47 g/m*3 11.9 C 1.6 km/h
830 04-05-2020 21:05:00 11.7 C 8.37 g/m*3 11.7 C 0 km/h
831 04-05-2020 21:10:00 11.4 C 8.21 g/m*3 11.4 C 1.6 km/h
832 04-05-2020 21:15:00 11.1 C 7.96 g/m*3 11.1 C 1.6 km/h
833 04-05-2020 21:20:00 10.8 C 7.81 g/m*3 10.8 C 0 km/h
834 04-05-2020 21:25:00 10.6 C 7.71 g/m*3 10.6 C 0 km/h
835 04-05-2020 21:30:00 10.3 C 7.57 g/m*3 10.3 C 1.6 km/h
836 04-05-2020 21:35:00 10.1 C 7.56 g/m*3 10.1 C 0 km/h
837 04-05-2020 21:40:00 9.9 C 7.38 g/m*3 9.9 C 1.6 km/h
838 04-05-2020 21:45:00 9.7 C 7.47 g/m*3 9.7 C 1.6 km/h
839 04-05-2020 21:50:00 9.6 C 7.42 g/m*3 9.6 C 0 km/h
840 04-05-2020 21:55:00 9.4 C 7.33 g/m*3 9.4 C 3.2 km/h
841 04-05-2020 22:00:00 9.2 C 7.23 g/m*3 9.2 C 4.8 km/h
842 04-05-2020 22:05:00 9.1 C 7.19 g/m*3 9.1 C 3.2 km/h
843 04-05-2020 22:10:00 9 C 7.14 g/m*3 9 C 3.2 km/h
844 04-05-2020 22:15:00 8.9 C 7.18 g/m*3 8.9 C 0 km/h
845 04-05-2020 22:20:00 8.8 C 7.14 g/m*3 8.8 C 0 km/h
846 04-05-2020 22:25:00 8.6 C 7.13 g/m*3 8.6 C 0 km/h
847 04-05-2020 22:30:00 8.5 C 7.17 g/m*3 8.5 C 0 km/h
848 04-05-2020 22:35:00 8.3 C 7.16 g/m*3 8.3 C 0 km/h
849 04-05-2020 22:40:00 8.2 C 7.12 g/m*3 8.2 C 0 km/h
850 04-05-2020 22:45:00 8.1 C 7.16 g/m*3 8.1 C 0 km/h
Sensor: Nr:Datum:Temp:Abs-Feuchte:Windchill:Wind:
Aussen-T/F 851 04-05-2020 22:50:00 8 C 7.11 g/m*3 8 C 0 km/h
852 04-05-2020 22:55:00 7.9 C 7.15 g/m*3 7.9 C 0 km/h
853 04-05-2020 23:00:00 7.8 C 7.1 g/m*3 7.8 C 1.6 km/h
854 04-05-2020 23:05:00 7.6 C 7.01 g/m*3 7.6 C 0 km/h
855 04-05-2020 23:10:00 7.6 C 7.01 g/m*3 7.6 C 1.6 km/h
856 04-05-2020 23:15:00 7.4 C 6.92 g/m*3 7.4 C 3.2 km/h
857 04-05-2020 23:20:00 7.3 C 6.87 g/m*3 7.3 C 3.2 km/h
858 04-05-2020 23:25:00 7.2 C 6.83 g/m*3 7.2 C 3.2 km/h
859 04-05-2020 23:30:00 7.2 C 6.83 g/m*3 7.2 C 3.2 km/h
860 04-05-2020 23:35:00 7.1 C 6.79 g/m*3 7.1 C 3.2 km/h
861 04-05-2020 23:40:00 7.1 C 6.79 g/m*3 7.1 C 3.2 km/h
862 04-05-2020 23:45:00 7 C 6.74 g/m*3 7 C 1.6 km/h
863 04-05-2020 23:50:00 6.9 C 6.77 g/m*3 6.9 C 1.6 km/h
864 04-05-2020 23:55:00 6.9 C 6.77 g/m*3 6.9 C 3.2 km/h
865 05-05-2020 00:00:00 6.8 C 6.73 g/m*3 6.8 C 3.2 km/h
866 05-05-2020 00:05:00 6.7 C 6.69 g/m*3 6.7 C 3.2 km/h
867 05-05-2020 00:10:00 6.7 C 6.69 g/m*3 6.7 C 1.6 km/h
868 05-05-2020 00:15:00 6.6 C 6.64 g/m*3 6.6 C 3.2 km/h
869 05-05-2020 00:20:00 6.5 C 6.67 g/m*3 6.5 C 1.6 km/h
870 05-05-2020 00:25:00 6.4 C 6.63 g/m*3 6.4 C 0 km/h
871 05-05-2020 00:30:00 6.4 C 6.63 g/m*3 6.4 C 0 km/h
872 05-05-2020 00:35:00 6.3 C 6.66 g/m*3 6.3 C 0 km/h
873 05-05-2020 00:40:00 6.2 C 6.62 g/m*3 6.2 C 0 km/h
874 05-05-2020 00:45:00 6.2 C 6.62 g/m*3 6.2 C 1.6 km/h
875 05-05-2020 00:50:00 6.1 C 6.58 g/m*3 6.1 C 1.6 km/h
Sensor: Nr:Datum:Temp:Abs-Feuchte:Windchill:Wind:
Aussen-T/F 876 05-05-2020 00:55:00 6 C 6.6 g/m*3 6 C 0 km/h
877 05-05-2020 01:00:00 6 C 6.6 g/m*3 6 C 0 km/h
878 05-05-2020 01:05:00 5.9 C 6.56 g/m*3 5.9 C 0 km/h
879 05-05-2020 01:10:00 5.8 C 6.52 g/m*3 5.8 C 0 km/h
880 05-05-2020 01:15:00 5.8 C 6.52 g/m*3 5.8 C 0 km/h
881 05-05-2020 01:20:00 5.7 C 6.48 g/m*3 5.7 C 0 km/h
882 05-05-2020 01:25:00 5.7 C 6.48 g/m*3 5.7 C 0 km/h
883 05-05-2020 01:30:00 5.7 C 6.48 g/m*3 5.7 C 0 km/h
884 05-05-2020 01:35:00 5.6 C 6.43 g/m*3 5.6 C 0 km/h
885 05-05-2020 01:40:00 5.5 C 6.39 g/m*3 5.5 C 0 km/h
886 05-05-2020 01:45:00 5.3 C 6.38 g/m*3 5.3 C 0 km/h
887 05-05-2020 01:50:00 5.3 C 6.31 g/m*3 5.3 C 0 km/h
888 05-05-2020 01:55:00 5.2 C 6.33 g/m*3 5.2 C 0 km/h
889 05-05-2020 02:00:00 5.1 C 6.29 g/m*3 5.1 C 0 km/h
890 05-05-2020 02:05:00 5.1 C 6.29 g/m*3 5.1 C 0 km/h
891 05-05-2020 02:10:00 5 C 6.25 g/m*3 5 C 0 km/h
892 05-05-2020 02:15:00 4.9 C 6.28 g/m*3 4.9 C 0 km/h
893 05-05-2020 02:20:00 4.9 C 6.28 g/m*3 4.9 C 0 km/h
894 05-05-2020 02:25:00 4.9 C 6.28 g/m*3 4.9 C 0 km/h
895 05-05-2020 02:30:00 4.9 C 6.28 g/m*3 4.9 C 0 km/h
896 05-05-2020 02:35:00 4.9 C 6.28 g/m*3 4.9 C 0 km/h
897 05-05-2020 02:40:00 4.8 C 6.24 g/m*3 4.8 C 0 km/h
898 05-05-2020 02:45:00 4.8 C 6.24 g/m*3 4.8 C 0 km/h
899 05-05-2020 02:50:00 4.8 C 6.24 g/m*3 4.8 C 0 km/h
900 05-05-2020 02:55:00 4.7 C 6.19 g/m*3 4.7 C 0 km/h
Sensor: Nr:Datum:Temp:Abs-Feuchte:Windchill:Wind:
Aussen-T/F 901 05-05-2020 03:00:00 4.7 C 6.19 g/m*3 4.7 C 0 km/h
902 05-05-2020 03:05:00 4.7 C 6.26 g/m*3 4.7 C 3.2 km/h
903 05-05-2020 03:10:00 4.8 C 6.3 g/m*3 4.8 C 1.6 km/h
904 05-05-2020 03:15:00 4.8 C 6.3 g/m*3 4.8 C 0 km/h
905 05-05-2020 03:20:00 4.8 C 6.3 g/m*3 4.8 C 1.6 km/h
906 05-05-2020 03:25:00 4.8 C 6.3 g/m*3 4.8 C 0 km/h
907 05-05-2020 03:30:00 4.9 C 6.35 g/m*3 4.9 C 0 km/h
908 05-05-2020 03:35:00 4.9 C 6.35 g/m*3 4.9 C 0 km/h
909 05-05-2020 03:40:00 4.9 C 6.35 g/m*3 4.9 C 0 km/h
910 05-05-2020 03:45:00 4.9 C 6.35 g/m*3 4.9 C 0 km/h
911 05-05-2020 03:50:00 4.8 C 6.3 g/m*3 4.8 C 0 km/h
912 05-05-2020 03:55:00 4.8 C 6.3 g/m*3 4.8 C 0 km/h
913 05-05-2020 04:00:00 4.8 C 6.3 g/m*3 4.8 C 0 km/h
914 05-05-2020 04:05:00 4.8 C 6.3 g/m*3 4.8 C 0 km/h
915 05-05-2020 04:10:00 4.7 C 6.26 g/m*3 4.7 C 0 km/h
916 05-05-2020 04:15:00 4.7 C 6.26 g/m*3 4.7 C 0 km/h
917 05-05-2020 04:20:00 4.6 C 6.22 g/m*3 4.6 C 0 km/h
918 05-05-2020 04:25:00 4.6 C 6.22 g/m*3 4.6 C 0 km/h
919 05-05-2020 04:30:00 4.4 C 6.14 g/m*3 4.4 C 0 km/h
920 05-05-2020 04:35:00 4.4 C 6.14 g/m*3 4.4 C 0 km/h
921 05-05-2020 04:40:00 4.3 C 6.1 g/m*3 4.3 C 0 km/h
922 05-05-2020 04:45:00 4.3 C 6.1 g/m*3 4.3 C 0 km/h
923 05-05-2020 04:50:00 4.3 C 6.16 g/m*3 4.3 C 0 km/h
924 05-05-2020 04:55:00 4.3 C 6.16 g/m*3 4.3 C 0 km/h
925 05-05-2020 05:00:00 4.3 C 6.16 g/m*3 4.3 C 0 km/h
Sensor: Nr:Datum:Temp:Abs-Feuchte:Windchill:Wind:
Aussen-T/F 926 05-05-2020 05:05:00 4.2 C 6.12 g/m*3 4.2 C 0 km/h
927 05-05-2020 05:10:00 4.2 C 6.12 g/m*3 4.2 C 0 km/h
928 05-05-2020 05:15:00 4.3 C 6.16 g/m*3 4.3 C 0 km/h
929 05-05-2020 05:20:00 4.3 C 6.16 g/m*3 4.3 C 0 km/h
930 05-05-2020 05:25:00 4.3 C 6.16 g/m*3 4.3 C 0 km/h
931 05-05-2020 05:30:00 4.3 C 6.16 g/m*3 4.3 C 0 km/h
932 05-05-2020 05:35:00 4.2 C 6.12 g/m*3 4.2 C 0 km/h
933 05-05-2020 05:40:00 4.2 C 6.12 g/m*3 4.2 C 0 km/h
934 05-05-2020 05:45:00 4.2 C 6.12 g/m*3 4.2 C 0 km/h
935 05-05-2020 05:50:00 4.1 C 6.08 g/m*3 4.1 C 0 km/h
936 05-05-2020 05:55:00 4.2 C 6.12 g/m*3 4.2 C 0 km/h
937 05-05-2020 06:00:00 4.2 C 6.12 g/m*3 4.2 C 0 km/h
938 05-05-2020 06:05:00 4.2 C 6.12 g/m*3 4.2 C 0 km/h
939 05-05-2020 06:10:00 4.2 C 6.12 g/m*3 4.2 C 0 km/h
940 05-05-2020 06:15:00 4.2 C 6.12 g/m*3 4.2 C 0 km/h
941 05-05-2020 06:20:00 4.2 C 6.12 g/m*3 4.2 C 0 km/h
942 05-05-2020 06:25:00 4.3 C 6.16 g/m*3 4.3 C 0 km/h
943 05-05-2020 06:30:00 4.4 C 6.2 g/m*3 4.4 C 0 km/h
944 05-05-2020 06:35:00 4.4 C 6.2 g/m*3 4.4 C 0 km/h
945 05-05-2020 06:40:00 4.5 C 6.31 g/m*3 4.5 C 0 km/h
946 05-05-2020 06:45:00 4.6 C 6.35 g/m*3 4.6 C 0 km/h
947 05-05-2020 06:50:00 4.7 C 6.39 g/m*3 4.7 C 0 km/h
948 05-05-2020 06:55:00 4.8 C 6.44 g/m*3 4.8 C 0 km/h
949 05-05-2020 07:00:00 4.8 C 6.44 g/m*3 4.8 C 0 km/h
950 05-05-2020 07:05:00 4.9 C 6.48 g/m*3 4.9 C 0 km/h
Sensor: Nr:Datum:Temp:Abs-Feuchte:Windchill:Wind:
Aussen-T/F 951 05-05-2020 07:10:00 5 C 6.52 g/m*3 5 C 0 km/h
952 05-05-2020 07:15:00 5.2 C 6.61 g/m*3 5.2 C 0 km/h
953 05-05-2020 07:20:00 5.2 C 6.61 g/m*3 5.2 C 0 km/h
954 05-05-2020 07:25:00 5.3 C 6.65 g/m*3 5.3 C 0 km/h
955 05-05-2020 07:30:00 5.4 C 6.7 g/m*3 5.4 C 0 km/h
956 05-05-2020 07:35:00 5.5 C 6.74 g/m*3 5.5 C 0 km/h
957 05-05-2020 07:40:00 5.7 C 6.83 g/m*3 5.7 C 0 km/h
958 05-05-2020 07:45:00 5.7 C 6.83 g/m*3 5.7 C 0 km/h
959 05-05-2020 07:50:00 5.9 C 6.92 g/m*3 5.9 C 0 km/h
960 05-05-2020 07:55:00 6 C 6.97 g/m*3 6 C 0 km/h
961 05-05-2020 08:00:00 6.1 C 7.01 g/m*3 6.1 C 0 km/h
962 05-05-2020 08:05:00 6.2 C 7.06 g/m*3 6.2 C 0 km/h
963 05-05-2020 08:10:00 6.2 C 7.06 g/m*3 6.2 C 0 km/h
964 05-05-2020 08:15:00 6.3 C 7.11 g/m*3 6.3 C 0 km/h
965 05-05-2020 08:20:00 6.5 C 7.2 g/m*3 6.5 C 0 km/h
966 05-05-2020 08:25:00 6.6 C 7.25 g/m*3 6.6 C 0 km/h
967 05-05-2020 08:30:00 6.7 C 7.29 g/m*3 6.7 C 0 km/h
968 05-05-2020 08:35:00 6.7 C 7.29 g/m*3 6.7 C 0 km/h
969 05-05-2020 08:40:00 6.7 C 7.22 g/m*3 6.7 C 0 km/h
970 05-05-2020 08:45:00 6.7 C 7.22 g/m*3 6.7 C 4.8 km/h
971 05-05-2020 08:50:00 6.8 C 7.27 g/m*3 6.8 C 1.6 km/h
972 05-05-2020 08:55:00 7 C 7.36 g/m*3 7 C 3.2 km/h
973 05-05-2020 09:00:00 7.1 C 7.33 g/m*3 7.1 C 3.2 km/h
974 05-05-2020 09:05:00 7.2 C 7.3 g/m*3 7.2 C 3.2 km/h
975 05-05-2020 09:10:00 7.4 C 7.32 g/m*3 5.93 C 8.1 km/h
Sensor: Nr:Datum:Temp:Abs-Feuchte:Windchill:Wind:
Aussen-T/F 976 05-05-2020 09:15:00 7.6 C 7.25 g/m*3 5.82 C 9.7 km/h
977 05-05-2020 09:20:00 7.7 C 7.22 g/m*3 6.71 C 6.4 km/h
978 05-05-2020 09:25:00 7.9 C 7.23 g/m*3 7.9 C 4.8 km/h
979 05-05-2020 09:30:00 8 C 7.28 g/m*3 8 C 3.2 km/h
980 05-05-2020 09:35:00 8.2 C 7.29 g/m*3 7.29 C 6.4 km/h
981 05-05-2020 09:40:00 8.2 C 7.2 g/m*3 8.2 C 4.8 km/h
982 05-05-2020 09:45:00 8.3 C 7.25 g/m*3 7.41 C 6.4 km/h
983 05-05-2020 09:50:00 8.6 C 7.3 g/m*3 8.6 C 4.8 km/h
984 05-05-2020 09:55:00 8.7 C 7.26 g/m*3 7.87 C 6.4 km/h
985 05-05-2020 10:00:00 8.9 C 7.27 g/m*3 7.69 C 8.1 km/h
986 05-05-2020 10:05:00 8.9 C 7.1 g/m*3 7.69 C 8.1 km/h
987 05-05-2020 10:10:00 9.1 C 7.1 g/m*3 9.1 C 1.6 km/h
988 05-05-2020 10:15:00 9.2 C 7.14 g/m*3 9.2 C 3.2 km/h
989 05-05-2020 10:20:00 9.4 C 7.05 g/m*3 8.28 C 8.1 km/h
990 05-05-2020 10:25:00 9.6 C 7.05 g/m*3 8.52 C 8.1 km/h
991 05-05-2020 10:30:00 9.8 C 6.96 g/m*3 9.14 C 6.4 km/h
992 05-05-2020 10:35:00 10 C 7.14 g/m*3 8.99 C 8.1 km/h
993 05-05-2020 10:40:00 10.1 C 6.9 g/m*3 10.1 C 4.8 km/h
994 05-05-2020 10:45:00 10.2 C 6.95 g/m*3 10.2 C 4.8 km/h
995 05-05-2020 10:50:00 10.3 C 7.09 g/m*3 10.3 C 3.2 km/h
996 05-05-2020 10:55:00 10.6 C 7.03 g/m*3 10.06 C 6.4 km/h
997 05-05-2020 11:00:00 10.9 C 6.96 g/m*3 9.76 C 9.7 km/h
998 05-05-2020 11:05:00 11.2 C 6.89 g/m*3 11.2 C 11.3 km/h
999 05-05-2020 11:10:00 11.4 C 6.88 g/m*3 11.4 C 9.7 km/h
1000 05-05-2020 11:15:00 11.6 C 6.86 g/m*3 11.6 C 8.1 km/h
Sensor: Nr:Datum:Temp:Abs-Feuchte:Windchill:Wind:
Aussen-T/F 1001 05-05-2020 11:20:00 11.7 C 7.11 g/m*3 11.7 C 6.4 km/h
1002 05-05-2020 11:25:00 11.9 C 6.99 g/m*3 11.9 C 6.4 km/h
1003 05-05-2020 11:30:00 12.1 C 6.97 g/m*3 12.1 C 4.8 km/h
1004 05-05-2020 11:35:00 12.1 C 7.08 g/m*3 12.1 C 6.4 km/h
1005 05-05-2020 11:40:00 12.2 C 7.23 g/m*3 12.2 C 8.1 km/h
1006 05-05-2020 11:45:00 12.3 C 7.17 g/m*3 12.3 C 11.3 km/h
1007 05-05-2020 11:50:00 12.4 C 7.1 g/m*3 12.4 C 8.1 km/h
1008 05-05-2020 11:55:00 12.5 C 7.15 g/m*3 12.5 C 9.7 km/h
1009 05-05-2020 12:00:00 12.6 C 6.97 g/m*3 12.6 C 8.1 km/h
1010 05-05-2020 12:05:00 12.7 C 7.24 g/m*3 12.7 C 6.4 km/h
1011 05-05-2020 12:10:00 12.7 C 7.12 g/m*3 12.7 C 4.8 km/h
1012 05-05-2020 12:15:00 12.8 C 7.06 g/m*3 12.8 C 9.7 km/h
1013 05-05-2020 12:20:00 13 C 7.14 g/m*3 13 C 11.3 km/h
1014 05-05-2020 12:25:00 13.1 C 7.07 g/m*3 13.1 C 6.4 km/h
1015 05-05-2020 12:30:00 13 C 7.03 g/m*3 13 C 6.4 km/h
1016 05-05-2020 12:35:00 12.8 C 7.06 g/m*3 12.8 C 9.7 km/h
1017 05-05-2020 12:40:00 12.8 C 7.17 g/m*3 12.8 C 6.4 km/h
1018 05-05-2020 12:45:00 12.8 C 7.06 g/m*3 12.8 C 6.4 km/h
1019 05-05-2020 12:50:00 12.8 C 7.17 g/m*3 12.8 C 6.4 km/h
1020 05-05-2020 12:55:00 12.8 C 7.17 g/m*3 12.8 C 8.1 km/h
1021 05-05-2020 13:00:00 12.9 C 6.88 g/m*3 12.9 C 6.4 km/h
1022 05-05-2020 13:05:00 12.9 C 6.76 g/m*3 12.9 C 9.7 km/h
1023 05-05-2020 13:10:00 12.9 C 6.99 g/m*3 12.9 C 6.4 km/h
1024 05-05-2020 13:15:00 13.1 C 7.07 g/m*3 13.1 C 8.1 km/h
1025 05-05-2020 13:20:00 13.1 C 6.85 g/m*3 13.1 C 6.4 km/h
Sensor: Nr:Datum:Temp:Abs-Feuchte:Windchill:Wind:
Aussen-T/F 1026 05-05-2020 13:25:00 13.2 C 6.89 g/m*3 13.2 C 8.1 km/h
1027 05-05-2020 13:30:00 13.3 C 7.05 g/m*3 13.3 C 6.4 km/h
1028 05-05-2020 13:35:00 13.5 C 6.9 g/m*3 13.5 C 6.4 km/h
1029 05-05-2020 13:40:00 13.6 C 7.18 g/m*3 13.6 C 3.2 km/h
1030 05-05-2020 13:45:00 13.8 C 6.91 g/m*3 13.8 C 6.4 km/h
1031 05-05-2020 13:50:00 13.9 C 6.95 g/m*3 13.9 C 9.7 km/h
1032 05-05-2020 13:55:00 14.1 C 7.16 g/m*3 14.1 C 8.1 km/h
1033 05-05-2020 14:00:00 14.1 C 6.92 g/m*3 14.1 C 11.3 km/h
1034 05-05-2020 14:05:00 14 C 7.12 g/m*3 14 C 8.1 km/h
1035 05-05-2020 14:10:00 13.8 C 6.67 g/m*3 13.8 C 3.2 km/h
1036 05-05-2020 14:15:00 13.7 C 6.51 g/m*3 13.7 C 6.4 km/h
1037 05-05-2020 14:20:00 13.7 C 6.39 g/m*3 13.7 C 9.7 km/h
1038 05-05-2020 14:25:00 13.8 C 6.43 g/m*3 13.8 C 4.8 km/h
1039 05-05-2020 14:30:00 14.1 C 6.67 g/m*3 14.1 C 6.4 km/h
1040 05-05-2020 14:35:00 14.1 C 6.31 g/m*3 14.1 C 4.8 km/h
1041 05-05-2020 14:40:00 14.2 C 6.47 g/m*3 14.2 C 4.8 km/h
1042 05-05-2020 14:45:00 14.2 C 6.47 g/m*3 14.2 C 11.3 km/h
1043 05-05-2020 14:50:00 14.6 C 6.26 g/m*3 14.6 C 6.4 km/h
1044 05-05-2020 14:55:00 14.8 C 5.7 g/m*3 14.8 C 9.7 km/h
1045 05-05-2020 15:00:00 15.2 C 5.97 g/m*3 15.2 C 11.3 km/h
1046 05-05-2020 15:05:00 15.5 C 6.21 g/m*3 15.5 C 11.3 km/h
1047 05-05-2020 15:10:00 15.8 C 6.19 g/m*3 15.8 C 12.9 km/h
1048 05-05-2020 15:15:00 15.9 C 5.69 g/m*3 15.9 C 12.9 km/h
1049 05-05-2020 15:20:00 15.8 C 5.92 g/m*3 15.8 C 6.4 km/h
1050 05-05-2020 15:25:00 16.1 C 6.03 g/m*3 16.1 C 8.1 km/h
Sensor: Nr:Datum:Temp:Abs-Feuchte:Windchill:Wind:
Aussen-T/F 1051 05-05-2020 15:30:00 16.3 C 5.69 g/m*3 16.3 C 11.3 km/h
1052 05-05-2020 15:35:00 16.6 C 5.65 g/m*3 16.6 C 12.9 km/h
1053 05-05-2020 15:40:00 16.7 C 5.54 g/m*3 16.7 C 16.1 km/h
1054 05-05-2020 15:45:00 16.5 C 5.34 g/m*3 16.5 C 11.3 km/h
1055 05-05-2020 15:50:00 16.6 C 5.51 g/m*3 16.6 C 9.7 km/h
1056 05-05-2020 15:55:00 16.8 C 5.86 g/m*3 16.8 C 12.9 km/h
1057 05-05-2020 16:00:00 17.1 C 5.68 g/m*3 17.1 C 8.1 km/h
1058 05-05-2020 16:05:00 17.4 C 6.52 g/m*3 17.4 C 6.4 km/h
1059 05-05-2020 16:10:00 17.8 C 5.46 g/m*3 17.8 C 11.3 km/h
1060 05-05-2020 16:15:00 17.5 C 5.37 g/m*3 17.5 C 16.1 km/h
1061 05-05-2020 16:20:00 17.4 C 5.34 g/m*3 17.4 C 14.5 km/h
1062 05-05-2020 16:25:00 17.7 C 5.58 g/m*3 17.7 C 6.4 km/h
1063 05-05-2020 16:30:00 17.6 C 4.8 g/m*3 17.6 C 11.3 km/h
1064 05-05-2020 16:35:00 17.6 C 5.7 g/m*3 17.6 C 6.4 km/h
1065 05-05-2020 16:40:00 18 C 5.22 g/m*3 18 C 6.4 km/h
1066 05-05-2020 16:45:00 18.1 C 4.94 g/m*3 18.1 C 8.1 km/h
1067 05-05-2020 16:50:00 18.2 C 5.13 g/m*3 18.2 C 9.7 km/h
1068 05-05-2020 16:55:00 18.2 C 5.13 g/m*3 18.2 C 12.9 km/h
1069 05-05-2020 17:00:00 17.8 C 5.01 g/m*3 17.8 C 14.5 km/h
1070 05-05-2020 17:05:00 17.7 C 5.13 g/m*3 17.7 C 6.4 km/h
1071 05-05-2020 17:10:00 17.9 C 5.04 g/m*3 17.9 C 8.1 km/h
1072 05-05-2020 17:15:00 18.1 C 4.79 g/m*3 18.1 C 4.8 km/h
1073 05-05-2020 17:20:00 18.3 C 5.16 g/m*3 18.3 C 8.1 km/h
1074 05-05-2020 17:25:00 18.3 C 5 g/m*3 18.3 C 9.7 km/h
1075 05-05-2020 17:30:00 18.4 C 4.88 g/m*3 18.4 C 11.3 km/h
Sensor: Nr:Datum:Temp:Abs-Feuchte:Windchill:Wind:
Aussen-T/F 1076 05-05-2020 17:35:00 18.6 C 5.41 g/m*3 18.6 C 11.3 km/h
1077 05-05-2020 17:40:00 18.7 C 4.8 g/m*3 18.7 C 12.9 km/h
1078 05-05-2020 17:45:00 18.4 C 4.72 g/m*3 18.4 C 11.3 km/h
1079 05-05-2020 17:50:00 18.2 C 5.13 g/m*3 18.2 C 11.3 km/h
1080 05-05-2020 17:55:00 18.1 C 4.79 g/m*3 18.1 C 12.9 km/h
1081 05-05-2020 18:00:00 18.1 C 4.79 g/m*3 18.1 C 12.9 km/h
1082 05-05-2020 18:05:00 17.9 C 4.58 g/m*3 17.9 C 14.5 km/h
1083 05-05-2020 18:10:00 17.9 C 4.73 g/m*3 17.9 C 6.4 km/h
1084 05-05-2020 18:15:00 18.2 C 4.66 g/m*3 18.2 C 12.9 km/h
1085 05-05-2020 18:20:00 18.3 C 4.53 g/m*3 18.3 C 8.1 km/h
1086 05-05-2020 18:25:00 18.3 C 4.69 g/m*3 18.3 C 6.4 km/h
1087 05-05-2020 18:30:00 18.3 C 4.53 g/m*3 18.3 C 8.1 km/h
1088 05-05-2020 18:35:00 18.2 C 4.82 g/m*3 18.2 C 16.1 km/h
1089 05-05-2020 18:40:00 18.3 C 4.69 g/m*3 18.3 C 9.7 km/h
1090 05-05-2020 18:45:00 18 C 4.61 g/m*3 18 C 9.7 km/h
1091 05-05-2020 18:50:00 17.9 C 4.73 g/m*3 17.9 C 8.1 km/h
1092 05-05-2020 18:55:00 18 C 4.61 g/m*3 18 C 9.7 km/h
1093 05-05-2020 19:00:00 18.1 C 4.79 g/m*3 18.1 C 11.3 km/h
1094 05-05-2020 19:05:00 18.2 C 4.66 g/m*3 18.2 C 11.3 km/h
1095 05-05-2020 19:10:00 17.8 C 4.4 g/m*3 17.8 C 12.9 km/h
1096 05-05-2020 19:15:00 17.4 C 4.45 g/m*3 17.4 C 12.9 km/h
1097 05-05-2020 19:20:00 17.2 C 4.39 g/m*3 17.2 C 9.7 km/h
1098 05-05-2020 19:25:00 17 C 4.49 g/m*3 17 C 9.7 km/h
1099 05-05-2020 19:30:00 16.9 C 4.46 g/m*3 16.9 C 6.4 km/h
1100 05-05-2020 19:35:00 16.8 C 4.58 g/m*3 16.8 C 8.1 km/h
Sensor: Nr:Datum:Temp:Abs-Feuchte:Windchill:Wind:
Aussen-T/F 1101 05-05-2020 19:40:00 16.6 C 4.66 g/m*3 16.6 C 8.1 km/h
1102 05-05-2020 19:45:00 16.4 C 4.33 g/m*3 16.4 C 9.7 km/h
1103 05-05-2020 19:50:00 16.3 C 4.44 g/m*3 16.3 C 11.3 km/h
1104 05-05-2020 19:55:00 16.2 C 4.41 g/m*3 16.2 C 9.7 km/h
1105 05-05-2020 20:00:00 16 C 4.5 g/m*3 16 C 9.7 km/h
1106 05-05-2020 20:05:00 15.8 C 4.44 g/m*3 15.8 C 9.7 km/h
1107 05-05-2020 20:10:00 15.7 C 4.68 g/m*3 15.7 C 9.7 km/h
1108 05-05-2020 20:15:00 15.6 C 4.52 g/m*3 15.6 C 6.4 km/h
1109 05-05-2020 20:20:00 15.5 C 4.63 g/m*3 15.5 C 8.1 km/h
1110 05-05-2020 20:25:00 15.3 C 4.7 g/m*3 15.3 C 6.4 km/h
1111 05-05-2020 20:30:00 15.1 C 4.64 g/m*3 15.1 C 8.1 km/h
1112 05-05-2020 20:35:00 14.8 C 4.69 g/m*3 14.8 C 6.4 km/h
1113 05-05-2020 20:40:00 14.6 C 5.01 g/m*3 14.6 C 6.4 km/h
1114 05-05-2020 20:45:00 14.4 C 5.07 g/m*3 14.4 C 8.1 km/h
1115 05-05-2020 20:50:00 14.2 C 5.37 g/m*3 14.2 C 4.8 km/h
1116 05-05-2020 20:55:00 13.9 C 5.87 g/m*3 13.9 C 0 km/h
1117 05-05-2020 21:00:00 13.4 C 6.04 g/m*3 13.4 C 0 km/h
1118 05-05-2020 21:05:00 12.9 C 6.09 g/m*3 12.9 C 1.6 km/h
1119 05-05-2020 21:10:00 12.3 C 6.19 g/m*3 12.3 C 3.2 km/h
1120 05-05-2020 21:15:00 11.9 C 6.14 g/m*3 11.9 C 3.2 km/h
1121 05-05-2020 21:20:00 11.6 C 6.03 g/m*3 11.6 C 4.8 km/h
1122 05-05-2020 21:25:00 11.2 C 5.88 g/m*3 11.2 C 0 km/h
1123 05-05-2020 21:30:00 10.9 C 5.87 g/m*3 10.41 C 6.4 km/h
1124 05-05-2020 21:35:00 10.6 C 5.95 g/m*3 10.6 C 3.2 km/h
1125 05-05-2020 21:40:00 10.3 C 5.65 g/m*3 10.3 C 3.2 km/h
Sensor: Nr:Datum:Temp:Abs-Feuchte:Windchill:Wind:
Aussen-T/F 1126 05-05-2020 21:45:00 10.1 C 5.67 g/m*3 10.1 C 4.8 km/h
1127 05-05-2020 21:50:00 9.9 C 5.51 g/m*3 9.25 C 6.4 km/h
1128 05-05-2020 21:55:00 9.8 C 5.57 g/m*3 9.14 C 6.4 km/h
1129 05-05-2020 22:00:00 9.7 C 5.72 g/m*3 9.7 C 4.8 km/h
1130 05-05-2020 22:05:00 9.6 C 5.68 g/m*3 9.6 C 3.2 km/h
1131 05-05-2020 22:10:00 9.4 C 5.97 g/m*3 9.4 C 4.8 km/h
1132 05-05-2020 22:15:00 9.3 C 5.84 g/m*3 9.3 C 4.8 km/h
1133 05-05-2020 22:20:00 9.2 C 5.71 g/m*3 9.2 C 3.2 km/h
1134 05-05-2020 22:25:00 9.2 C 5.8 g/m*3 9.2 C 0 km/h
1135 05-05-2020 22:30:00 9.1 C 5.77 g/m*3 9.1 C 4.8 km/h
1136 05-05-2020 22:35:00 9 C 5.91 g/m*3 9 C 0 km/h
1137 05-05-2020 22:40:00 8.9 C 5.87 g/m*3 8.1 C 6.4 km/h
1138 05-05-2020 22:45:00 8.8 C 5.83 g/m*3 8.8 C 1.6 km/h
1139 05-05-2020 22:50:00 8.7 C 5.88 g/m*3 8.7 C 4.8 km/h
1140 05-05-2020 22:55:00 8.7 C 5.62 g/m*3 8.7 C 4.8 km/h
1141 05-05-2020 23:00:00 8.7 C 5.79 g/m*3 8.7 C 0 km/h
1142 05-05-2020 23:05:00 8.6 C 5.76 g/m*3 8.6 C 1.6 km/h
1143 05-05-2020 23:10:00 8.5 C 5.72 g/m*3 8.5 C 1.6 km/h
1144 05-05-2020 23:15:00 8.4 C 5.68 g/m*3 8.4 C 0 km/h
1145 05-05-2020 23:20:00 8.3 C 5.65 g/m*3 8.3 C 1.6 km/h
1146 05-05-2020 23:25:00 8.2 C 5.61 g/m*3 8.2 C 1.6 km/h
1147 05-05-2020 23:30:00 8.1 C 5.57 g/m*3 8.1 C 3.2 km/h
1148 05-05-2020 23:35:00 8 C 5.62 g/m*3 8 C 1.6 km/h
1149 05-05-2020 23:40:00 7.9 C 5.67 g/m*3 7.9 C 4.8 km/h
1150 05-05-2020 23:45:00 7.8 C 5.63 g/m*3 6.83 C 6.4 km/h
Sensor: Nr:Datum:Temp:Abs-Feuchte:Windchill:Wind:
Aussen-T/F 1151 05-05-2020 23:50:00 7.7 C 5.51 g/m*3 7.7 C 4.8 km/h
1152 05-05-2020 23:55:00 7.6 C 5.56 g/m*3 7.6 C 3.2 km/h
1153 06-05-2020 00:00:00 7.6 C 5.64 g/m*3 7.6 C 3.2 km/h
1154 06-05-2020 00:05:00 7.5 C 5.6 g/m*3 7.5 C 3.2 km/h
1155 06-05-2020 00:10:00 7.4 C 5.57 g/m*3 7.4 C 4.8 km/h
1156 06-05-2020 00:15:00 7.4 C 5.57 g/m*3 7.4 C 1.6 km/h
1157 06-05-2020 00:20:00 7.3 C 5.61 g/m*3 7.3 C 1.6 km/h
1158 06-05-2020 00:25:00 7.3 C 5.53 g/m*3 7.3 C 0 km/h
1159 06-05-2020 00:30:00 7.2 C 5.65 g/m*3 7.2 C 0 km/h
1160 06-05-2020 00:35:00 7.2 C 5.65 g/m*3 7.2 C 0 km/h
1161 06-05-2020 00:40:00 7.1 C 5.69 g/m*3 7.1 C 3.2 km/h
1162 06-05-2020 00:45:00 7 C 5.66 g/m*3 7 C 4.8 km/h
1163 06-05-2020 00:50:00 6.9 C 5.7 g/m*3 6.9 C 3.2 km/h
1164 06-05-2020 00:55:00 6.8 C 5.66 g/m*3 6.8 C 0 km/h
1165 06-05-2020 01:00:00 6.7 C 5.62 g/m*3 6.7 C 3.2 km/h
1166 06-05-2020 01:05:00 6.5 C 5.55 g/m*3 6.5 C 4.8 km/h
1167 06-05-2020 01:10:00 6.4 C 5.59 g/m*3 6.4 C 4.8 km/h
1168 06-05-2020 01:15:00 6.3 C 5.63 g/m*3 6.3 C 0 km/h
1169 06-05-2020 01:20:00 6.1 C 5.55 g/m*3 6.1 C 0 km/h
1170 06-05-2020 01:25:00 5.9 C 5.48 g/m*3 5.9 C 3.2 km/h
1171 06-05-2020 01:30:00 5.8 C 5.52 g/m*3 5.8 C 0 km/h
1172 06-05-2020 01:35:00 5.7 C 5.55 g/m*3 5.7 C 0 km/h
1173 06-05-2020 01:40:00 5.6 C 5.51 g/m*3 5.6 C 0 km/h
1174 06-05-2020 01:45:00 5.4 C 5.51 g/m*3 5.4 C 0 km/h
1175 06-05-2020 01:50:00 5.3 C 5.54 g/m*3 5.3 C 0 km/h
Sensor: Nr:Datum:Temp:Abs-Feuchte:Windchill:Wind:
Aussen-T/F 1176 06-05-2020 01:55:00 5.2 C 5.51 g/m*3 5.2 C 0 km/h
1177 06-05-2020 02:00:00 5 C 5.44 g/m*3 5 C 0 km/h
1178 06-05-2020 02:05:00 4.9 C 5.47 g/m*3 4.9 C 0 km/h
1179 06-05-2020 02:10:00 4.8 C 5.43 g/m*3 4.8 C 0 km/h
1180 06-05-2020 02:15:00 4.7 C 5.46 g/m*3 4.7 C 0 km/h
1181 06-05-2020 02:20:00 4.6 C 5.49 g/m*3 4.6 C 0 km/h
1182 06-05-2020 02:25:00 4.5 C 5.46 g/m*3 4.5 C 0 km/h
1183 06-05-2020 02:30:00 4.4 C 5.42 g/m*3 4.4 C 0 km/h
1184 06-05-2020 02:35:00 4.4 C 5.42 g/m*3 4.4 C 0 km/h
1185 06-05-2020 02:40:00 4.3 C 5.38 g/m*3 4.3 C 0 km/h
1186 06-05-2020 02:45:00 4.3 C 5.45 g/m*3 4.3 C 0 km/h
1187 06-05-2020 02:50:00 4.2 C 5.41 g/m*3 4.2 C 0 km/h
1188 06-05-2020 02:55:00 4.1 C 5.38 g/m*3 4.1 C 0 km/h
1189 06-05-2020 03:00:00 4 C 5.4 g/m*3 4 C 0 km/h
1190 06-05-2020 03:05:00 3.9 C 5.37 g/m*3 3.9 C 0 km/h
1191 06-05-2020 03:10:00 3.8 C 5.33 g/m*3 3.8 C 0 km/h
1192 06-05-2020 03:15:00 3.7 C 5.3 g/m*3 3.7 C 0 km/h
1193 06-05-2020 03:20:00 3.6 C 5.26 g/m*3 3.6 C 0 km/h
1194 06-05-2020 03:25:00 3.6 C 5.32 g/m*3 3.6 C 0 km/h
1195 06-05-2020 03:30:00 3.5 C 5.29 g/m*3 3.5 C 0 km/h
1196 06-05-2020 03:35:00 3.4 C 5.25 g/m*3 3.4 C 0 km/h
1197 06-05-2020 03:40:00 3.3 C 5.22 g/m*3 3.3 C 0 km/h
1198 06-05-2020 03:45:00 3.3 C 5.28 g/m*3 3.3 C 0 km/h
1199 06-05-2020 03:50:00 3.3 C 5.28 g/m*3 3.3 C 0 km/h
1200 06-05-2020 03:55:00 3.2 C 5.3 g/m*3 3.2 C 0 km/h
Sensor: Nr:Datum:Temp:Abs-Feuchte:Windchill:Wind:
Aussen-T/F 1201 06-05-2020 04:00:00 3.2 C 5.24 g/m*3 3.2 C 0 km/h
1202 06-05-2020 04:05:00 3.2 C 5.24 g/m*3 3.2 C 0 km/h
1203 06-05-2020 04:10:00 3.1 C 5.27 g/m*3 3.1 C 0 km/h
1204 06-05-2020 04:15:00 3.1 C 5.27 g/m*3 3.1 C 0 km/h
1205 06-05-2020 04:20:00 3.1 C 5.27 g/m*3 3.1 C 0 km/h
1206 06-05-2020 04:25:00 3.1 C 5.27 g/m*3 3.1 C 0 km/h
1207 06-05-2020 04:30:00 3.1 C 5.33 g/m*3 3.1 C 0 km/h
1208 06-05-2020 04:35:00 2.9 C 5.2 g/m*3 2.9 C 0 km/h
1209 06-05-2020 04:40:00 2.9 C 5.26 g/m*3 2.9 C 0 km/h
1210 06-05-2020 04:45:00 2.9 C 5.26 g/m*3 2.9 C 0 km/h
1211 06-05-2020 04:50:00 2.8 C 5.22 g/m*3 2.8 C 0 km/h
1212 06-05-2020 04:55:00 2.8 C 5.22 g/m*3 2.8 C 0 km/h
1213 06-05-2020 05:00:00 2.8 C 5.28 g/m*3 2.8 C 1.6 km/h
1214 06-05-2020 05:05:00 2.8 C 5.28 g/m*3 2.8 C 0 km/h
1215 06-05-2020 05:10:00 2.7 C 5.24 g/m*3 2.7 C 0 km/h
1216 06-05-2020 05:15:00 2.7 C 5.24 g/m*3 2.7 C 0 km/h
1217 06-05-2020 05:20:00 2.6 C 5.21 g/m*3 2.6 C 0 km/h
1218 06-05-2020 05:25:00 2.6 C 5.21 g/m*3 2.6 C 0 km/h
1219 06-05-2020 05:30:00 2.6 C 5.21 g/m*3 2.6 C 0 km/h
1220 06-05-2020 05:35:00 2.5 C 5.17 g/m*3 2.5 C 0 km/h
1221 06-05-2020 05:40:00 2.5 C 5.17 g/m*3 2.5 C 0 km/h
1222 06-05-2020 05:45:00 2.4 C 5.14 g/m*3 2.4 C 0 km/h
1223 06-05-2020 05:50:00 2.3 C 5.1 g/m*3 2.3 C 0 km/h
1224 06-05-2020 05:55:00 2.2 C 5.07 g/m*3 2.2 C 0 km/h
1225 06-05-2020 06:00:00 2.2 C 5.13 g/m*3 2.2 C 0 km/h
Sensor: Nr:Datum:Temp:Abs-Feuchte:Windchill:Wind:
Aussen-T/F 1226 06-05-2020 06:05:00 2.1 C 5.09 g/m*3 2.1 C 0 km/h
1227 06-05-2020 06:10:00 2.2 C 5.13 g/m*3 2.2 C 0 km/h
1228 06-05-2020 06:15:00 2.1 C 5.09 g/m*3 2.1 C 0 km/h
1229 06-05-2020 06:20:00 2.1 C 5.09 g/m*3 2.1 C 0 km/h
1230 06-05-2020 06:25:00 2.1 C 5.15 g/m*3 2.1 C 0 km/h
1231 06-05-2020 06:30:00 2 C 5.11 g/m*3 2 C 0 km/h
1232 06-05-2020 06:35:00 2 C 5.11 g/m*3 2 C 0 km/h
1233 06-05-2020 06:40:00 2.1 C 5.15 g/m*3 2.1 C 0 km/h
1234 06-05-2020 06:45:00 2.1 C 5.15 g/m*3 2.1 C 0 km/h
1235 06-05-2020 06:50:00 2.1 C 5.15 g/m*3 2.1 C 0 km/h
1236 06-05-2020 06:55:00 2.1 C 5.15 g/m*3 2.1 C 0 km/h
1237 06-05-2020 07:00:00 2.2 C 5.18 g/m*3 2.2 C 0 km/h
1238 06-05-2020 07:05:00 2.2 C 5.24 g/m*3 2.2 C 0 km/h
1239 06-05-2020 07:10:00 2.2 C 5.24 g/m*3 2.2 C 0 km/h
1240 06-05-2020 07:15:00 2.3 C 5.27 g/m*3 2.3 C 0 km/h
1241 06-05-2020 07:20:00 2.3 C 5.27 g/m*3 2.3 C 0 km/h
1242 06-05-2020 07:25:00 2.4 C 5.31 g/m*3 2.4 C 0 km/h
1243 06-05-2020 07:30:00 2.4 C 5.31 g/m*3 2.4 C 1.6 km/h
1244 06-05-2020 07:35:00 2.5 C 5.35 g/m*3 2.5 C 0 km/h
1245 06-05-2020 07:40:00 2.6 C 5.38 g/m*3 2.6 C 0 km/h
1246 06-05-2020 07:45:00 2.6 C 5.38 g/m*3 2.6 C 0 km/h
1247 06-05-2020 07:50:00 2.7 C 5.42 g/m*3 2.7 C 0 km/h
1248 06-05-2020 07:55:00 2.8 C 5.46 g/m*3 2.8 C 1.6 km/h
1249 06-05-2020 08:00:00 2.9 C 5.55 g/m*3 2.9 C 0 km/h
1250 06-05-2020 08:05:00 2.9 C 5.55 g/m*3 2.9 C 0 km/h
Sensor: Nr:Datum:Temp:Abs-Feuchte:Windchill:Wind:
Aussen-T/F 1251 06-05-2020 08:10:00 3.1 C 5.63 g/m*3 3.1 C 0 km/h
1252 06-05-2020 08:15:00 3.2 C 5.66 g/m*3 3.2 C 1.6 km/h
1253 06-05-2020 08:20:00 3.2 C 5.66 g/m*3 3.2 C 0 km/h
1254 06-05-2020 08:25:00 3.3 C 5.7 g/m*3 3.3 C 0 km/h
1255 06-05-2020 08:30:00 3.4 C 5.74 g/m*3 3.4 C 0 km/h
1256 06-05-2020 08:35:00 3.7 C 5.86 g/m*3 3.7 C 0 km/h
1257 06-05-2020 08:40:00 3.8 C 5.9 g/m*3 3.8 C 0 km/h
1258 06-05-2020 08:45:00 4 C 5.98 g/m*3 4 C 0 km/h
1259 06-05-2020 08:50:00 4.2 C 6.06 g/m*3 4.2 C 0 km/h
1260 06-05-2020 08:55:00 4.4 C 6.14 g/m*3 4.4 C 0 km/h
1261 06-05-2020 09:00:00 4.6 C 6.22 g/m*3 4.6 C 1.6 km/h
1262 06-05-2020 09:05:00 4.8 C 6.3 g/m*3 4.8 C 1.6 km/h
1263 06-05-2020 09:10:00 5.1 C 6.43 g/m*3 5.1 C 0 km/h
1264 06-05-2020 09:15:00 5.3 C 6.52 g/m*3 5.3 C 0 km/h
1265 06-05-2020 09:20:00 5.4 C 6.49 g/m*3 5.4 C 1.6 km/h
1266 06-05-2020 09:25:00 5.7 C 6.62 g/m*3 5.7 C 0 km/h
1267 06-05-2020 09:30:00 5.9 C 6.63 g/m*3 5.9 C 0 km/h
1268 06-05-2020 09:35:00 6.1 C 6.72 g/m*3 6.1 C 1.6 km/h
1269 06-05-2020 09:40:00 6.3 C 6.74 g/m*3 6.3 C 0 km/h
1270 06-05-2020 09:45:00 6.4 C 6.78 g/m*3 6.4 C 0 km/h
1271 06-05-2020 09:50:00 6.6 C 6.87 g/m*3 6.6 C 0 km/h
1272 06-05-2020 09:55:00 6.8 C 6.88 g/m*3 6.8 C 0 km/h
1273 06-05-2020 10:00:00 7 C 6.97 g/m*3 7 C 0 km/h
1274 06-05-2020 10:05:00 7.2 C 6.99 g/m*3 7.2 C 0 km/h
1275 06-05-2020 10:10:00 7.4 C 7 g/m*3 7.4 C 1.6 km/h
Sensor: Nr:Datum:Temp:Abs-Feuchte:Windchill:Wind:
Aussen-T/F 1276 06-05-2020 10:15:00 7.7 C 6.81 g/m*3 7.7 C 3.2 km/h
1277 06-05-2020 10:20:00 8 C 6.61 g/m*3 8 C 1.6 km/h
1278 06-05-2020 10:25:00 8.6 C 6.27 g/m*3 7.34 C 8.1 km/h
1279 06-05-2020 10:30:00 9.7 C 5.99 g/m*3 8.33 C 9.7 km/h
1280 06-05-2020 10:35:00 10.6 C 6.54 g/m*3 8.92 C 12.9 km/h
1281 06-05-2020 10:40:00 11.2 C 5.37 g/m*3 11.2 C 12.9 km/h
1282 06-05-2020 10:45:00 11.7 C 5.54 g/m*3 11.7 C 14.5 km/h
1283 06-05-2020 10:50:00 11.9 C 5.4 g/m*3 11.9 C 11.3 km/h
1284 06-05-2020 10:55:00 12.2 C 5.83 g/m*3 12.2 C 17.7 km/h
1285 06-05-2020 11:00:00 12.2 C 5.07 g/m*3 12.2 C 8.1 km/h
1286 06-05-2020 11:05:00 12.3 C 5.21 g/m*3 12.3 C 4.8 km/h
1287 06-05-2020 11:10:00 12.5 C 4.84 g/m*3 12.5 C 16.1 km/h
1288 06-05-2020 11:15:00 12.7 C 4.79 g/m*3 12.7 C 9.7 km/h
1289 06-05-2020 11:20:00 12.8 C 4.93 g/m*3 12.8 C 4.8 km/h
1290 06-05-2020 11:25:00 12.9 C 4.96 g/m*3 12.9 C 8.1 km/h
1291 06-05-2020 11:30:00 13 C 5.1 g/m*3 13 C 6.4 km/h
1292 06-05-2020 11:35:00 13.2 C 4.71 g/m*3 13.2 C 8.1 km/h
1293 06-05-2020 11:40:00 13.2 C 4.71 g/m*3 13.2 C 8.1 km/h
1294 06-05-2020 11:45:00 13.2 C 4.82 g/m*3 13.2 C 14.5 km/h
1295 06-05-2020 11:50:00 13.3 C 4.74 g/m*3 13.3 C 16.1 km/h
1296 06-05-2020 11:55:00 13.4 C 4.42 g/m*3 13.4 C 12.9 km/h
1297 06-05-2020 12:00:00 13.5 C 4.44 g/m*3 13.5 C 6.4 km/h
1298 06-05-2020 12:05:00 13.6 C 4.71 g/m*3 13.6 C 4.8 km/h
1299 06-05-2020 12:10:00 13.4 C 4.65 g/m*3 13.4 C 9.7 km/h
1300 06-05-2020 12:15:00 13.5 C 4.56 g/m*3 13.5 C 6.4 km/h
Sensor: Nr:Datum:Temp:Abs-Feuchte:Windchill:Wind:
Aussen-T/F 1301 06-05-2020 12:20:00 13.6 C 4.59 g/m*3 13.6 C 6.4 km/h
1302 06-05-2020 12:25:00 13.7 C 4.62 g/m*3 13.7 C 6.4 km/h
1303 06-05-2020 12:30:00 13.8 C 4.77 g/m*3 13.8 C 11.3 km/h
1304 06-05-2020 12:35:00 13.9 C 4.56 g/m*3 13.9 C 14.5 km/h
1305 06-05-2020 12:40:00 14 C 4.7 g/m*3 14 C 16.1 km/h
1306 06-05-2020 12:45:00 13.9 C 4.8 g/m*3 13.9 C 8.1 km/h
1307 06-05-2020 12:50:00 14 C 4.82 g/m*3 14 C 9.7 km/h
1308 06-05-2020 12:55:00 14.1 C 4.73 g/m*3 14.1 C 9.7 km/h
1309 06-05-2020 13:00:00 14.1 C 4.73 g/m*3 14.1 C 11.3 km/h
1310 06-05-2020 13:05:00 14.2 C 4.76 g/m*3 14.2 C 12.9 km/h
1311 06-05-2020 13:10:00 14.2 C 4.76 g/m*3 14.2 C 6.4 km/h
1312 06-05-2020 13:15:00 14.3 C 4.91 g/m*3 14.3 C 12.9 km/h
1313 06-05-2020 13:20:00 14.5 C 4.85 g/m*3 14.5 C 9.7 km/h
1314 06-05-2020 13:25:00 14.7 C 5.16 g/m*3 14.7 C 9.7 km/h
1315 06-05-2020 13:30:00 14.7 C 4.91 g/m*3 14.7 C 12.9 km/h
1316 06-05-2020 13:35:00 14.7 C 5.04 g/m*3 14.7 C 8.1 km/h
1317 06-05-2020 13:40:00 14.8 C 5.07 g/m*3 14.8 C 6.4 km/h
1318 06-05-2020 13:45:00 14.8 C 5.19 g/m*3 14.8 C 8.1 km/h
1319 06-05-2020 13:50:00 15 C 5.13 g/m*3 15 C 9.7 km/h
1320 06-05-2020 13:55:00 15.2 C 5.19 g/m*3 15.2 C 16.1 km/h
1321 06-05-2020 14:00:00 15.2 C 5.32 g/m*3 15.2 C 8.1 km/h
1322 06-05-2020 14:05:00 15.4 C 5.26 g/m*3 15.4 C 11.3 km/h
1323 06-05-2020 14:10:00 15.5 C 5.16 g/m*3 15.5 C 8.1 km/h
1324 06-05-2020 14:15:00 15.6 C 4.65 g/m*3 15.6 C 14.5 km/h
1325 06-05-2020 14:20:00 15.6 C 4.65 g/m*3 15.6 C 12.9 km/h
Sensor: Nr:Datum:Temp:Abs-Feuchte:Windchill:Wind:
Aussen-T/F 1326 06-05-2020 14:25:00 15.7 C 4.82 g/m*3 15.7 C 9.7 km/h
1327 06-05-2020 14:30:00 15.7 C 4.42 g/m*3 15.7 C 12.9 km/h
1328 06-05-2020 14:35:00 15.8 C 4.31 g/m*3 15.8 C 6.4 km/h
1329 06-05-2020 14:40:00 15.9 C 4.74 g/m*3 15.9 C 12.9 km/h
1330 06-05-2020 14:45:00 16.2 C 4.83 g/m*3 16.2 C 14.5 km/h
1331 06-05-2020 14:50:00 16.4 C 4.89 g/m*3 16.4 C 12.9 km/h
1332 06-05-2020 14:55:00 16.7 C 4.69 g/m*3 16.7 C 9.7 km/h
1333 06-05-2020 15:00:00 16.7 C 4.97 g/m*3 16.7 C 14.5 km/h
1334 06-05-2020 15:05:00 16.9 C 4.75 g/m*3 16.9 C 12.9 km/h
1335 06-05-2020 15:10:00 16.9 C 4.6 g/m*3 16.9 C 9.7 km/h
1336 06-05-2020 15:15:00 17 C 5.21 g/m*3 17 C 8.1 km/h
1337 06-05-2020 15:20:00 17.1 C 4.8 g/m*3 17.1 C 11.3 km/h
1338 06-05-2020 15:25:00 17.1 C 4.66 g/m*3 17.1 C 11.3 km/h
1339 06-05-2020 15:30:00 17.1 C 4.8 g/m*3 17.1 C 4.8 km/h
1340 06-05-2020 15:35:00 17.5 C 4.47 g/m*3 17.5 C 16.1 km/h
1341 06-05-2020 15:40:00 17.6 C 4.95 g/m*3 17.6 C 8.1 km/h
1342 06-05-2020 15:45:00 17.8 C 4.71 g/m*3 17.8 C 12.9 km/h
1343 06-05-2020 15:50:00 17.9 C 4.89 g/m*3 17.9 C 14.5 km/h
1344 06-05-2020 15:55:00 18.2 C 4.97 g/m*3 18.2 C 9.7 km/h
1345 06-05-2020 16:00:00 18.4 C 4.88 g/m*3 18.4 C 17.7 km/h
1346 06-05-2020 16:05:00 18.3 C 5 g/m*3 18.3 C 14.5 km/h
1347 06-05-2020 16:10:00 18.4 C 5.19 g/m*3 18.4 C 12.9 km/h
1348 06-05-2020 16:15:00 18.8 C 4.99 g/m*3 18.8 C 3.2 km/h
1349 06-05-2020 16:20:00 19.3 C 5.14 g/m*3 19.3 C 3.2 km/h
1350 06-05-2020 16:25:00 19.3 C 4.98 g/m*3 19.3 C 14.5 km/h
Sensor: Nr:Datum:Temp:Abs-Feuchte:Windchill:Wind:
Aussen-T/F 1351 06-05-2020 16:30:00 19.1 C 5.08 g/m*3 19.1 C 9.7 km/h
1352 06-05-2020 16:35:00 19.2 C 4.95 g/m*3 19.2 C 11.3 km/h
1353 06-05-2020 16:40:00 19.1 C 4.75 g/m*3 19.1 C 9.7 km/h
1354 06-05-2020 16:45:00 19.1 C 4.92 g/m*3 19.1 C 9.7 km/h
1355 06-05-2020 16:50:00 19 C 4.89 g/m*3 19 C 11.3 km/h
1356 06-05-2020 16:55:00 18.9 C 4.86 g/m*3 18.9 C 6.4 km/h
1357 06-05-2020 17:00:00 19.2 C 5.11 g/m*3 19.2 C 9.7 km/h
1358 06-05-2020 17:05:00 19.4 C 5.01 g/m*3 19.4 C 11.3 km/h
1359 06-05-2020 17:10:00 19.6 C 5.23 g/m*3 19.6 C 6.4 km/h
1360 06-05-2020 17:15:00 19.8 C 5.47 g/m*3 19.8 C 6.4 km/h
1361 06-05-2020 17:20:00 19.8 C 5.12 g/m*3 19.8 C 6.4 km/h
1362 06-05-2020 17:25:00 19.8 C 5.12 g/m*3 19.8 C 4.8 km/h
1363 06-05-2020 17:30:00 19.9 C 4.98 g/m*3 19.9 C 8.1 km/h
1364 06-05-2020 17:35:00 19.7 C 5.43 g/m*3 19.7 C 8.1 km/h
1365 06-05-2020 17:40:00 19.7 C 4.92 g/m*3 19.7 C 9.7 km/h
1366 06-05-2020 17:45:00 19.7 C 5.26 g/m*3 19.7 C 3.2 km/h
1367 06-05-2020 17:50:00 19.9 C 5.15 g/m*3 19.9 C 4.8 km/h
1368 06-05-2020 17:55:00 19.9 C 5.15 g/m*3 19.9 C 6.4 km/h
1369 06-05-2020 18:00:00 20.1 C 5.21 g/m*3 20.1 C 6.4 km/h
1370 06-05-2020 18:05:00 20.2 C 5.77 g/m*3 20.2 C 4.8 km/h
1371 06-05-2020 18:10:00 20.3 C 5.28 g/m*3 20.3 C 8.1 km/h
1372 06-05-2020 18:15:00 20.1 C 5.39 g/m*3 20.1 C 6.4 km/h
1373 06-05-2020 18:20:00 20.2 C 5.42 g/m*3 20.2 C 6.4 km/h
1374 06-05-2020 18:25:00 20.3 C 5.1 g/m*3 20.3 C 6.4 km/h
1375 06-05-2020 18:30:00 20.2 C 5.07 g/m*3 20.2 C 6.4 km/h
Sensor: Nr:Datum:Temp:Abs-Feuchte:Windchill:Wind:
Aussen-T/F 1376 06-05-2020 18:35:00 20.2 C 5.25 g/m*3 20.2 C 6.4 km/h
1377 06-05-2020 18:40:00 20.3 C 5.28 g/m*3 20.3 C 4.8 km/h
1378 06-05-2020 18:45:00 20.4 C 5.13 g/m*3 20.4 C 4.8 km/h
1379 06-05-2020 18:50:00 20.3 C 5.1 g/m*3 20.3 C 6.4 km/h
1380 06-05-2020 18:55:00 20.2 C 5.25 g/m*3 20.2 C 8.1 km/h
1381 06-05-2020 19:00:00 19.9 C 5.15 g/m*3 19.9 C 6.4 km/h
1382 06-05-2020 19:05:00 19.8 C 5.12 g/m*3 19.8 C 6.4 km/h
1383 06-05-2020 19:10:00 19.8 C 5.12 g/m*3 19.8 C 8.1 km/h
1384 06-05-2020 19:15:00 19.6 C 5.4 g/m*3 19.6 C 6.4 km/h
1385 06-05-2020 19:20:00 19.4 C 5.51 g/m*3 19.4 C 8.1 km/h
1386 06-05-2020 19:25:00 19.1 C 5.08 g/m*3 19.1 C 4.8 km/h
1387 06-05-2020 19:30:00 18.9 C 5.35 g/m*3 18.9 C 3.2 km/h
1388 06-05-2020 19:35:00 18.8 C 5.48 g/m*3 18.8 C 3.2 km/h
1389 06-05-2020 19:40:00 18.7 C 5.12 g/m*3 18.7 C 3.2 km/h
1390 06-05-2020 19:45:00 18.6 C 5.25 g/m*3 18.6 C 4.8 km/h
1391 06-05-2020 19:50:00 18.5 C 5.38 g/m*3 18.5 C 3.2 km/h
1392 06-05-2020 19:55:00 18.4 C 6.92 g/m*3 18.4 C 1.6 km/h
1393 06-05-2020 20:00:00 18.3 C 6.1 g/m*3 18.3 C 1.6 km/h
1394 06-05-2020 20:05:00 18.2 C 6.06 g/m*3 18.2 C 1.6 km/h
1395 06-05-2020 20:10:00 18.1 C 7.26 g/m*3 18.1 C 3.2 km/h
1396 06-05-2020 20:15:00 17.8 C 7.29 g/m*3 17.8 C 4.8 km/h
1397 06-05-2020 20:20:00 17.2 C 7.18 g/m*3 17.2 C 4.8 km/h
1398 06-05-2020 20:25:00 16.7 C 7.25 g/m*3 16.7 C 4.8 km/h
1399 06-05-2020 20:30:00 16.1 C 7.13 g/m*3 16.1 C 4.8 km/h
1400 06-05-2020 20:35:00 15.4 C 6.83 g/m*3 15.4 C 6.4 km/h
Sensor: Nr:Datum:Temp:Abs-Feuchte:Windchill:Wind:
Aussen-T/F 1401 06-05-2020 20:40:00 14.8 C 6.84 g/m*3 14.8 C 6.4 km/h
1402 06-05-2020 20:45:00 14.3 C 6.76 g/m*3 14.3 C 8.1 km/h
1403 06-05-2020 20:50:00 13.9 C 6.83 g/m*3 13.9 C 8.1 km/h
1404 06-05-2020 20:55:00 13.6 C 6.59 g/m*3 13.6 C 8.1 km/h
1405 06-05-2020 21:00:00 13.3 C 6.47 g/m*3 13.3 C 8.1 km/h
1406 06-05-2020 21:05:00 13 C 6.24 g/m*3 13 C 8.1 km/h
1407 06-05-2020 21:10:00 12.8 C 6.27 g/m*3 12.8 C 8.1 km/h
1408 06-05-2020 21:15:00 12.6 C 6.53 g/m*3 12.6 C 8.1 km/h
1409 06-05-2020 21:20:00 12.4 C 6.56 g/m*3 12.4 C 8.1 km/h
1410 06-05-2020 21:25:00 12.2 C 6.58 g/m*3 12.2 C 8.1 km/h
1411 06-05-2020 21:30:00 12 C 6.61 g/m*3 12 C 6.4 km/h
1412 06-05-2020 21:35:00 11.8 C 6.84 g/m*3 11.8 C 3.2 km/h
1413 06-05-2020 21:40:00 11.6 C 6.86 g/m*3 11.6 C 0 km/h
1414 06-05-2020 21:45:00 11.3 C 6.83 g/m*3 11.3 C 3.2 km/h
1415 06-05-2020 21:50:00 10.9 C 6.66 g/m*3 10.9 C 1.6 km/h
1416 06-05-2020 21:55:00 10.7 C 6.48 g/m*3 10.7 C 3.2 km/h
1417 06-05-2020 22:00:00 10.6 C 6.73 g/m*3 10.6 C 3.2 km/h
1418 06-05-2020 22:05:00 10.3 C 6.61 g/m*3 10.3 C 3.2 km/h
1419 06-05-2020 22:10:00 10.1 C 6.62 g/m*3 10.1 C 4.8 km/h
1420 06-05-2020 22:15:00 9.9 C 6.54 g/m*3 9.9 C 3.2 km/h
1421 06-05-2020 22:20:00 9.8 C 6.59 g/m*3 9.8 C 0 km/h
1422 06-05-2020 22:25:00 9.7 C 6.45 g/m*3 9.02 C 6.4 km/h
1423 06-05-2020 22:30:00 9.7 C 6.55 g/m*3 9.7 C 1.6 km/h
1424 06-05-2020 22:35:00 9.6 C 6.6 g/m*3 9.6 C 0 km/h
1425 06-05-2020 22:40:00 9.4 C 6.51 g/m*3 9.4 C 0 km/h
Sensor: Nr:Datum:Temp:Abs-Feuchte:Windchill:Wind:
Aussen-T/F 1426 06-05-2020 22:45:00 9.2 C 6.43 g/m*3 9.2 C 0 km/h
1427 06-05-2020 22:50:00 9.1 C 6.48 g/m*3 9.1 C 0 km/h
1428 06-05-2020 22:55:00 9 C 6.44 g/m*3 9 C 0 km/h
1429 06-05-2020 23:00:00 8.8 C 6.35 g/m*3 8.8 C 0 km/h
1430 06-05-2020 23:05:00 8.7 C 6.4 g/m*3 8.7 C 0 km/h
1431 06-05-2020 23:10:00 8.6 C 6.44 g/m*3 8.6 C 0 km/h
1432 06-05-2020 23:15:00 8.4 C 6.36 g/m*3 8.4 C 0 km/h
1433 06-05-2020 23:20:00 8.2 C 6.36 g/m*3 8.2 C 0 km/h
1434 06-05-2020 23:25:00 8.1 C 6.41 g/m*3 8.1 C 0 km/h
1435 06-05-2020 23:30:00 7.9 C 6.32 g/m*3 7.9 C 0 km/h
1436 06-05-2020 23:35:00 7.8 C 6.37 g/m*3 7.8 C 0 km/h
1437 06-05-2020 23:40:00 7.7 C 6.32 g/m*3 7.7 C 0 km/h
1438 06-05-2020 23:45:00 7.6 C 6.28 g/m*3 7.6 C 0 km/h
1439 06-05-2020 23:50:00 7.4 C 6.2 g/m*3 7.4 C 0 km/h
1440 06-05-2020 23:55:00 7.3 C 6.16 g/m*3 7.3 C 0 km/h
1441 07-05-2020 00:00:00 7.2 C 6.2 g/m*3 7.2 C 0 km/h
1442 07-05-2020 00:05:00 7.2 C 6.2 g/m*3 7.2 C 0 km/h
1443 07-05-2020 00:10:00 7.1 C 6.16 g/m*3 7.1 C 0 km/h
1444 07-05-2020 00:15:00 7 C 6.2 g/m*3 7 C 0 km/h
1445 07-05-2020 00:20:00 6.9 C 6.16 g/m*3 6.9 C 0 km/h
1446 07-05-2020 00:25:00 6.8 C 6.12 g/m*3 6.8 C 0 km/h
1447 07-05-2020 00:30:00 6.8 C 6.19 g/m*3 6.8 C 0 km/h
1448 07-05-2020 00:35:00 6.7 C 6.15 g/m*3 6.7 C 0 km/h
1449 07-05-2020 00:40:00 6.7 C 6.15 g/m*3 6.7 C 0 km/h
1450 07-05-2020 00:45:00 6.6 C 6.11 g/m*3 6.6 C 3.2 km/h
Sensor: Nr:Datum:Temp:Abs-Feuchte:Windchill:Wind:
Aussen-T/F 1451 07-05-2020 00:50:00 6.6 C 6.11 g/m*3 6.6 C 3.2 km/h
1452 07-05-2020 00:55:00 6.7 C 6.15 g/m*3 6.7 C 0 km/h
1453 07-05-2020 01:00:00 6.7 C 6.23 g/m*3 6.7 C 1.6 km/h
1454 07-05-2020 01:05:00 6.7 C 6.23 g/m*3 6.7 C 0 km/h
1455 07-05-2020 01:10:00 6.6 C 6.19 g/m*3 6.6 C 0 km/h
1456 07-05-2020 01:15:00 6.6 C 6.19 g/m*3 6.6 C 3.2 km/h
1457 07-05-2020 01:20:00 6.6 C 6.19 g/m*3 6.6 C 0 km/h
1458 07-05-2020 01:25:00 6.5 C 6.15 g/m*3 6.5 C 0 km/h
1459 07-05-2020 01:30:00 6.4 C 6.11 g/m*3 6.4 C 0 km/h
1460 07-05-2020 01:35:00 6.3 C 6.07 g/m*3 6.3 C 0 km/h
1461 07-05-2020 01:40:00 6.3 C 6.14 g/m*3 6.3 C 3.2 km/h
1462 07-05-2020 01:45:00 6.2 C 6.1 g/m*3 6.2 C 0 km/h
1463 07-05-2020 01:50:00 6.1 C 6.06 g/m*3 6.1 C 0 km/h
1464 07-05-2020 01:55:00 6.1 C 6.06 g/m*3 6.1 C 0 km/h
1465 07-05-2020 02:00:00 5.9 C 5.98 g/m*3 5.9 C 0 km/h
1466 07-05-2020 02:05:00 5.8 C 6.02 g/m*3 5.8 C 0 km/h
1467 07-05-2020 02:10:00 5.8 C 6.02 g/m*3 5.8 C 0 km/h
1468 07-05-2020 02:15:00 5.8 C 6.09 g/m*3 5.8 C 0 km/h
1469 07-05-2020 02:20:00 5.7 C 6.05 g/m*3 5.7 C 0 km/h
1470 07-05-2020 02:25:00 5.6 C 6.01 g/m*3 5.6 C 0 km/h
1471 07-05-2020 02:30:00 5.6 C 6.01 g/m*3 5.6 C 0 km/h
1472 07-05-2020 02:35:00 5.4 C 5.93 g/m*3 5.4 C 0 km/h
1473 07-05-2020 02:40:00 5.3 C 5.96 g/m*3 5.3 C 0 km/h
1474 07-05-2020 02:45:00 5.3 C 5.96 g/m*3 5.3 C 0 km/h
1475 07-05-2020 02:50:00 5.2 C 5.92 g/m*3 5.2 C 0 km/h
Sensor: Nr:Datum:Temp:Abs-Feuchte:Windchill:Wind:
Aussen-T/F 1476 07-05-2020 02:55:00 5.1 C 5.88 g/m*3 5.1 C 0 km/h
1477 07-05-2020 03:00:00 5 C 5.84 g/m*3 5 C 0 km/h
1478 07-05-2020 03:05:00 5 C 5.91 g/m*3 5 C 0 km/h
1479 07-05-2020 03:10:00 4.9 C 5.87 g/m*3 4.9 C 0 km/h
1480 07-05-2020 03:15:00 4.9 C 5.87 g/m*3 4.9 C 0 km/h
1481 07-05-2020 03:20:00 4.8 C 5.83 g/m*3 4.8 C 0 km/h
1482 07-05-2020 03:25:00 4.8 C 5.9 g/m*3 4.8 C 0 km/h
1483 07-05-2020 03:30:00 4.8 C 5.9 g/m*3 4.8 C 0 km/h
1484 07-05-2020 03:35:00 4.8 C 5.9 g/m*3 4.8 C 0 km/h
1485 07-05-2020 03:40:00 4.8 C 5.9 g/m*3 4.8 C 0 km/h
1486 07-05-2020 03:45:00 4.7 C 5.86 g/m*3 4.7 C 0 km/h
1487 07-05-2020 03:50:00 4.7 C 5.93 g/m*3 4.7 C 0 km/h
1488 07-05-2020 03:55:00 4.7 C 5.93 g/m*3 4.7 C 0 km/h
1489 07-05-2020 04:00:00 4.7 C 5.93 g/m*3 4.7 C 0 km/h
1490 07-05-2020 04:05:00 4.6 C 5.89 g/m*3 4.6 C 0 km/h
1491 07-05-2020 04:10:00 4.5 C 5.85 g/m*3 4.5 C 0 km/h
1492 07-05-2020 04:15:00 4.4 C 5.81 g/m*3 4.4 C 0 km/h
1493 07-05-2020 04:20:00 4.4 C 5.81 g/m*3 4.4 C 0 km/h
1494 07-05-2020 04:25:00 4.3 C 5.77 g/m*3 4.3 C 0 km/h
1495 07-05-2020 04:30:00 4.2 C 5.73 g/m*3 4.2 C 0 km/h
1496 07-05-2020 04:35:00 4.2 C 5.73 g/m*3 4.2 C 0 km/h
1497 07-05-2020 04:40:00 4.1 C 5.7 g/m*3 4.1 C 0 km/h
1498 07-05-2020 04:45:00 4 C 5.72 g/m*3 4 C 0 km/h
1499 07-05-2020 04:50:00 3.9 C 5.68 g/m*3 3.9 C 0 km/h
1500 07-05-2020 04:55:00 3.9 C 5.68 g/m*3 3.9 C 0 km/h
Sensor: Nr:Datum:Temp:Abs-Feuchte:Windchill:Wind:
Aussen-T/F 1501 07-05-2020 05:00:00 3.8 C 5.65 g/m*3 3.8 C 0 km/h
1502 07-05-2020 05:05:00 3.8 C 5.65 g/m*3 3.8 C 0 km/h
1503 07-05-2020 05:10:00 3.7 C 5.61 g/m*3 3.7 C 0 km/h
1504 07-05-2020 05:15:00 3.7 C 5.61 g/m*3 3.7 C 0 km/h
1505 07-05-2020 05:20:00 3.7 C 5.67 g/m*3 3.7 C 0 km/h
1506 07-05-2020 05:25:00 3.7 C 5.67 g/m*3 3.7 C 0 km/h
1507 07-05-2020 05:30:00 3.6 C 5.63 g/m*3 3.6 C 3.2 km/h
1508 07-05-2020 05:35:00 3.6 C 5.63 g/m*3 3.6 C 0 km/h
1509 07-05-2020 05:40:00 3.6 C 5.63 g/m*3 3.6 C 0 km/h
1510 07-05-2020 05:45:00 3.6 C 5.63 g/m*3 3.6 C 1.6 km/h
1511 07-05-2020 05:50:00 3.6 C 5.69 g/m*3 3.6 C 0 km/h
1512 07-05-2020 05:55:00 3.7 C 5.73 g/m*3 3.7 C 0 km/h
1513 07-05-2020 06:00:00 3.6 C 5.69 g/m*3 3.6 C 0 km/h
1514 07-05-2020 06:05:00 3.6 C 5.63 g/m*3 3.6 C 0 km/h
1515 07-05-2020 06:10:00 3.5 C 5.66 g/m*3 3.5 C 0 km/h
1516 07-05-2020 06:15:00 3.4 C 5.62 g/m*3 3.4 C 0 km/h
1517 07-05-2020 06:20:00 3.4 C 5.62 g/m*3 3.4 C 0 km/h
1518 07-05-2020 06:25:00 3.4 C 5.62 g/m*3 3.4 C 0 km/h
1519 07-05-2020 06:30:00 3.3 C 5.58 g/m*3 3.3 C 0 km/h
1520 07-05-2020 06:35:00 3.3 C 5.58 g/m*3 3.3 C 0 km/h
1521 07-05-2020 06:40:00 3.3 C 5.58 g/m*3 3.3 C 0 km/h
1522 07-05-2020 06:45:00 3.3 C 5.58 g/m*3 3.3 C 0 km/h
1523 07-05-2020 06:50:00 3.3 C 5.58 g/m*3 3.3 C 1.6 km/h
1524 07-05-2020 06:55:00 3.4 C 5.68 g/m*3 3.4 C 0 km/h
1525 07-05-2020 07:00:00 3.4 C 5.68 g/m*3 3.4 C 0 km/h
Sensor: Nr:Datum:Temp:Abs-Feuchte:Windchill:Wind:
Aussen-T/F 1526 07-05-2020 07:05:00 3.4 C 5.68 g/m*3 3.4 C 0 km/h
1527 07-05-2020 07:10:00 3.4 C 5.68 g/m*3 3.4 C 0 km/h
1528 07-05-2020 07:15:00 3.4 C 5.68 g/m*3 3.4 C 0 km/h
1529 07-05-2020 07:20:00 3.5 C 5.72 g/m*3 3.5 C 0 km/h
1530 07-05-2020 07:25:00 3.6 C 5.76 g/m*3 3.6 C 0 km/h
1531 07-05-2020 07:30:00 3.6 C 5.76 g/m*3 3.6 C 0 km/h
1532 07-05-2020 07:35:00 3.6 C 5.76 g/m*3 3.6 C 0 km/h
1533 07-05-2020 07:40:00 3.7 C 5.8 g/m*3 3.7 C 0 km/h
1534 07-05-2020 07:45:00 3.7 C 5.8 g/m*3 3.7 C 1.6 km/h
1535 07-05-2020 07:50:00 3.8 C 5.83 g/m*3 3.8 C 0 km/h
1536 07-05-2020 07:55:00 3.8 C 5.83 g/m*3 3.8 C 0 km/h
1537 07-05-2020 08:00:00 3.9 C 5.87 g/m*3 3.9 C 0 km/h
1538 07-05-2020 08:05:00 3.9 C 5.94 g/m*3 3.9 C 0 km/h
1539 07-05-2020 08:10:00 4 C 5.91 g/m*3 4 C 0 km/h
1540 07-05-2020 08:15:00 4.1 C 5.95 g/m*3 4.1 C 0 km/h
1541 07-05-2020 08:20:00 4.2 C 6.06 g/m*3 4.2 C 0 km/h
1542 07-05-2020 08:25:00 4.3 C 6.1 g/m*3 4.3 C 0 km/h
1543 07-05-2020 08:30:00 4.4 C 6.14 g/m*3 4.4 C 0 km/h
1544 07-05-2020 08:35:00 4.6 C 6.22 g/m*3 4.6 C 0 km/h
1545 07-05-2020 08:40:00 4.7 C 6.26 g/m*3 4.7 C 1.6 km/h
1546 07-05-2020 08:45:00 4.8 C 6.3 g/m*3 4.8 C 0 km/h
1547 07-05-2020 08:50:00 4.9 C 6.28 g/m*3 4.9 C 0 km/h
1548 07-05-2020 08:55:00 5.1 C 6.43 g/m*3 5.1 C 0 km/h
1549 07-05-2020 09:00:00 5.2 C 6.47 g/m*3 5.2 C 0 km/h
1550 07-05-2020 09:05:00 5.4 C 6.56 g/m*3 5.4 C 0 km/h
Sensor: Nr:Datum:Temp:Abs-Feuchte:Windchill:Wind:
Aussen-T/F 1551 07-05-2020 09:10:00 5.6 C 6.65 g/m*3 5.6 C 0 km/h
1552 07-05-2020 09:15:00 5.8 C 6.73 g/m*3 5.8 C 0 km/h
1553 07-05-2020 09:20:00 5.9 C 6.78 g/m*3 5.9 C 0 km/h
1554 07-05-2020 09:25:00 6.2 C 6.91 g/m*3 6.2 C 0 km/h
1555 07-05-2020 09:30:00 6.3 C 6.96 g/m*3 6.3 C 0 km/h
1556 07-05-2020 09:35:00 6.5 C 7.05 g/m*3 6.5 C 0 km/h
1557 07-05-2020 09:40:00 6.7 C 7.14 g/m*3 6.7 C 0 km/h
1558 07-05-2020 09:45:00 6.9 C 7.16 g/m*3 6.9 C 0 km/h
1559 07-05-2020 09:50:00 7.1 C 7.25 g/m*3 7.1 C 0 km/h
1560 07-05-2020 09:55:00 7.3 C 7.35 g/m*3 7.3 C 0 km/h
1561 07-05-2020 10:00:00 7.6 C 7.49 g/m*3 7.6 C 0 km/h
1562 07-05-2020 10:05:00 7.8 C 7.51 g/m*3 7.8 C 0 km/h
1563 07-05-2020 10:10:00 8.1 C 7.57 g/m*3 8.1 C 0 km/h
1564 07-05-2020 10:15:00 8.3 C 7.67 g/m*3 8.3 C 0 km/h
1565 07-05-2020 10:20:00 8.6 C 7.73 g/m*3 8.6 C 1.6 km/h
1566 07-05-2020 10:25:00 8.9 C 7.8 g/m*3 8.9 C 0 km/h
1567 07-05-2020 10:30:00 9.2 C 7.95 g/m*3 9.2 C 0 km/h
1568 07-05-2020 10:35:00 9.4 C 7.96 g/m*3 9.4 C 0 km/h
1569 07-05-2020 10:40:00 9.8 C 8.07 g/m*3 9.8 C 1.6 km/h
1570 07-05-2020 10:45:00 10.2 C 7.99 g/m*3 10.2 C 3.2 km/h
1571 07-05-2020 10:50:00 10.6 C 8.1 g/m*3 10.6 C 1.6 km/h
1572 07-05-2020 10:55:00 11.2 C 7.8 g/m*3 11.2 C 1.6 km/h
1573 07-05-2020 11:00:00 11.7 C 7.74 g/m*3 11.7 C 3.2 km/h
1574 07-05-2020 11:05:00 12.2 C 7.55 g/m*3 12.2 C 3.2 km/h
1575 07-05-2020 11:10:00 12.7 C 7.79 g/m*3 12.7 C 1.6 km/h
Sensor: Nr:Datum:Temp:Abs-Feuchte:Windchill:Wind:
Aussen-T/F 1576 07-05-2020 11:15:00 13.2 C 7.92 g/m*3 13.2 C 3.2 km/h
1577 07-05-2020 11:20:00 13.5 C 8.19 g/m*3 13.5 C 1.6 km/h
1578 07-05-2020 11:25:00 13.8 C 7.86 g/m*3 13.8 C 0 km/h
1579 07-05-2020 11:30:00 14.1 C 7.65 g/m*3 14.1 C 1.6 km/h
1580 07-05-2020 11:35:00 14.4 C 8.28 g/m*3 14.4 C 0 km/h
1581 07-05-2020 11:40:00 14.7 C 8.56 g/m*3 14.7 C 0 km/h
1582 07-05-2020 11:45:00 14.8 C 7.98 g/m*3 14.8 C 0 km/h
1583 07-05-2020 11:50:00 15.1 C 7.35 g/m*3 15.1 C 3.2 km/h
1584 07-05-2020 11:55:00 15.4 C 7.36 g/m*3 15.4 C 6.4 km/h
1585 07-05-2020 12:00:00 15.7 C 7.49 g/m*3 15.7 C 4.8 km/h
1586 07-05-2020 12:05:00 15.9 C 7.31 g/m*3 15.9 C 4.8 km/h
1587 07-05-2020 12:10:00 16 C 6.54 g/m*3 16 C 6.4 km/h
1588 07-05-2020 12:15:00 16.1 C 6.17 g/m*3 16.1 C 4.8 km/h
1589 07-05-2020 12:20:00 16.2 C 6.48 g/m*3 16.2 C 4.8 km/h
1590 07-05-2020 12:25:00 16.4 C 6.28 g/m*3 16.4 C 8.1 km/h
1591 07-05-2020 12:30:00 16.7 C 6.25 g/m*3 16.7 C 3.2 km/h
1592 07-05-2020 12:35:00 16.7 C 6.25 g/m*3 16.7 C 9.7 km/h
1593 07-05-2020 12:40:00 16.8 C 6.29 g/m*3 16.8 C 9.7 km/h
1594 07-05-2020 12:45:00 16.9 C 6.04 g/m*3 16.9 C 9.7 km/h
1595 07-05-2020 12:50:00 16.9 C 6.18 g/m*3 16.9 C 3.2 km/h
1596 07-05-2020 12:55:00 17.1 C 6.55 g/m*3 17.1 C 3.2 km/h
1597 07-05-2020 13:00:00 17.2 C 6.74 g/m*3 17.2 C 8.1 km/h
1598 07-05-2020 13:05:00 17.3 C 7.07 g/m*3 17.3 C 8.1 km/h
1599 07-05-2020 13:10:00 17.4 C 7.11 g/m*3 17.4 C 4.8 km/h
1600 07-05-2020 13:15:00 17.6 C 7.05 g/m*3 17.6 C 6.4 km/h
Sensor: Nr:Datum:Temp:Abs-Feuchte:Windchill:Wind:
Aussen-T/F 1601 07-05-2020 13:20:00 17.7 C 6.94 g/m*3 17.7 C 9.7 km/h
1602 07-05-2020 13:25:00 17.8 C 6.98 g/m*3 17.8 C 11.3 km/h
1603 07-05-2020 13:30:00 17.8 C 6.83 g/m*3 17.8 C 6.4 km/h
1604 07-05-2020 13:35:00 17.9 C 6.87 g/m*3 17.9 C 8.1 km/h
1605 07-05-2020 13:40:00 17.9 C 6.87 g/m*3 17.9 C 8.1 km/h
1606 07-05-2020 13:45:00 18.1 C 6.8 g/m*3 18.1 C 12.9 km/h
1607 07-05-2020 13:50:00 18.4 C 7.08 g/m*3 18.4 C 6.4 km/h
1608 07-05-2020 13:55:00 18.6 C 6.84 g/m*3 18.6 C 11.3 km/h
1609 07-05-2020 14:00:00 18.6 C 6.84 g/m*3 18.6 C 8.1 km/h
1610 07-05-2020 14:05:00 18.6 C 6.68 g/m*3 18.6 C 8.1 km/h
1611 07-05-2020 14:10:00 18.6 C 6.68 g/m*3 18.6 C 4.8 km/h
1612 07-05-2020 14:15:00 18.6 C 6.68 g/m*3 18.6 C 9.7 km/h
1613 07-05-2020 14:20:00 18.8 C 6.6 g/m*3 18.8 C 9.7 km/h
1614 07-05-2020 14:25:00 18.9 C 6.8 g/m*3 18.9 C 8.1 km/h
1615 07-05-2020 14:30:00 19.1 C 6.88 g/m*3 19.1 C 4.8 km/h
1616 07-05-2020 14:35:00 19.2 C 6.6 g/m*3 19.2 C 6.4 km/h
1617 07-05-2020 14:40:00 19.3 C 6.63 g/m*3 19.3 C 4.8 km/h
1618 07-05-2020 14:45:00 19.4 C 6.84 g/m*3 19.4 C 6.4 km/h
1619 07-05-2020 14:50:00 19.8 C 6.49 g/m*3 19.8 C 11.3 km/h
1620 07-05-2020 14:55:00 19.9 C 6.53 g/m*3 19.9 C 6.4 km/h
1621 07-05-2020 15:00:00 20 C 6.39 g/m*3 20 C 11.3 km/h
1622 07-05-2020 15:05:00 20.1 C 6.61 g/m*3 20.1 C 8.1 km/h
1623 07-05-2020 15:10:00 20.2 C 6.82 g/m*3 20.2 C 6.4 km/h
1624 07-05-2020 15:15:00 20.2 C 6.82 g/m*3 20.2 C 8.1 km/h
1625 07-05-2020 15:20:00 20.5 C 6.76 g/m*3 20.5 C 6.4 km/h
Sensor: Nr:Datum:Temp:Abs-Feuchte:Windchill:Wind:
Aussen-T/F 1626 07-05-2020 15:25:00 20.7 C 6.66 g/m*3 20.7 C 6.4 km/h
1627 07-05-2020 15:30:00 20.8 C 6.34 g/m*3 20.8 C 9.7 km/h
1628 07-05-2020 15:35:00 20.9 C 7.1 g/m*3 20.9 C 4.8 km/h
1629 07-05-2020 15:40:00 21.3 C 6.71 g/m*3 21.3 C 6.4 km/h
1630 07-05-2020 15:45:00 21.4 C 6.56 g/m*3 21.4 C 8.1 km/h
1631 07-05-2020 15:50:00 21.6 C 6.64 g/m*3 21.6 C 8.1 km/h
1632 07-05-2020 15:55:00 21.8 C 6.91 g/m*3 21.8 C 4.8 km/h
1633 07-05-2020 16:00:00 22.2 C 7.07 g/m*3 22.2 C 8.1 km/h
1634 07-05-2020 16:05:00 22.6 C 6.83 g/m*3 22.6 C 8.1 km/h
1635 07-05-2020 16:10:00 22.8 C 7.11 g/m*3 22.8 C 6.4 km/h
1636 07-05-2020 16:15:00 22.9 C 6.74 g/m*3 22.9 C 4.8 km/h
1637 07-05-2020 16:20:00 22.9 C 6.74 g/m*3 22.9 C 6.4 km/h
1638 07-05-2020 16:25:00 22.7 C 6.67 g/m*3 22.7 C 6.4 km/h
1639 07-05-2020 16:30:00 22.7 C 7.07 g/m*3 22.7 C 8.1 km/h
1640 07-05-2020 16:35:00 22.8 C 6.91 g/m*3 22.8 C 6.4 km/h
1641 07-05-2020 16:40:00 22.8 C 6.91 g/m*3 22.8 C 6.4 km/h
1642 07-05-2020 16:45:00 23.1 C 7.23 g/m*3 23.1 C 3.2 km/h
1643 07-05-2020 16:50:00 23.4 C 7.15 g/m*3 23.4 C 6.4 km/h
1644 07-05-2020 16:55:00 23.4 C 6.94 g/m*3 23.4 C 6.4 km/h
1645 07-05-2020 17:00:00 23.3 C 6.69 g/m*3 23.3 C 6.4 km/h
1646 07-05-2020 17:05:00 23 C 6.58 g/m*3 23 C 9.7 km/h
1647 07-05-2020 17:10:00 22.7 C 6.87 g/m*3 22.7 C 11.3 km/h
1648 07-05-2020 17:15:00 22.8 C 6.91 g/m*3 22.8 C 9.7 km/h
1649 07-05-2020 17:20:00 22.9 C 6.74 g/m*3 22.9 C 4.8 km/h
1650 07-05-2020 17:25:00 23.1 C 6.82 g/m*3 23.1 C 4.8 km/h
Sensor: Nr:Datum:Temp:Abs-Feuchte:Windchill:Wind:
Aussen-T/F 1651 07-05-2020 17:30:00 23.4 C 7.15 g/m*3 23.4 C 3.2 km/h
1652 07-05-2020 17:35:00 23.8 C 7.1 g/m*3 23.8 C 1.6 km/h
1653 07-05-2020 17:40:00 23.8 C 6.88 g/m*3 23.8 C 6.4 km/h
1654 07-05-2020 17:45:00 23.5 C 6.77 g/m*3 23.5 C 8.1 km/h
1655 07-05-2020 17:50:00 23.1 C 6.82 g/m*3 23.1 C 8.1 km/h
1656 07-05-2020 17:55:00 23.3 C 6.69 g/m*3 23.3 C 6.4 km/h
1657 07-05-2020 18:00:00 23.4 C 6.73 g/m*3 23.4 C 6.4 km/h
1658 07-05-2020 18:05:00 23.4 C 6.73 g/m*3 23.4 C 8.1 km/h
1659 07-05-2020 18:10:00 23.3 C 6.69 g/m*3 23.3 C 8.1 km/h
1660 07-05-2020 18:15:00 23.3 C 6.9 g/m*3 23.3 C 6.4 km/h
1661 07-05-2020 18:20:00 23.2 C 6.86 g/m*3 23.2 C 6.4 km/h
1662 07-05-2020 18:25:00 23.2 C 6.86 g/m*3 23.2 C 6.4 km/h
1663 07-05-2020 18:30:00 23.3 C 7.11 g/m*3 23.3 C 3.2 km/h
1664 07-05-2020 18:35:00 23.6 C 6.81 g/m*3 23.6 C 6.4 km/h
1665 07-05-2020 18:40:00 23.8 C 6.88 g/m*3 23.8 C 8.1 km/h
1666 07-05-2020 18:45:00 23.6 C 7.23 g/m*3 23.6 C 8.1 km/h
1667 07-05-2020 18:50:00 23.6 C 6.81 g/m*3 23.6 C 6.4 km/h
1668 07-05-2020 18:55:00 23.4 C 6.73 g/m*3 23.4 C 6.4 km/h
1669 07-05-2020 19:00:00 23.3 C 7.53 g/m*3 23.3 C 3.2 km/h
1670 07-05-2020 19:05:00 23.4 C 6.94 g/m*3 23.4 C 4.8 km/h
1671 07-05-2020 19:10:00 23.4 C 6.94 g/m*3 23.4 C 6.4 km/h
1672 07-05-2020 19:15:00 23.2 C 7.07 g/m*3 23.2 C 8.1 km/h
1673 07-05-2020 19:20:00 22.9 C 6.74 g/m*3 22.9 C 6.4 km/h
1674 07-05-2020 19:25:00 22.8 C 6.91 g/m*3 22.8 C 4.8 km/h
1675 07-05-2020 19:30:00 22.7 C 7.07 g/m*3 22.7 C 4.8 km/h
Sensor: Nr:Datum:Temp:Abs-Feuchte:Windchill:Wind:
Aussen-T/F 1676 07-05-2020 19:35:00 22.7 C 8.89 g/m*3 22.7 C 3.2 km/h
1677 07-05-2020 19:40:00 22.4 C 9.14 g/m*3 22.4 C 3.2 km/h
1678 07-05-2020 19:45:00 22.1 C 8.98 g/m*3 22.1 C 3.2 km/h
1679 07-05-2020 19:50:00 21.8 C 9.21 g/m*3 21.8 C 3.2 km/h
1680 07-05-2020 19:55:00 21.3 C 8.95 g/m*3 21.3 C 3.2 km/h
1681 07-05-2020 20:00:00 20.8 C 8.87 g/m*3 20.8 C 4.8 km/h
1682 07-05-2020 20:05:00 20.3 C 8.62 g/m*3 20.3 C 6.4 km/h
1683 07-05-2020 20:10:00 19.8 C 8.54 g/m*3 19.8 C 6.4 km/h
1684 07-05-2020 20:15:00 19.2 C 8.57 g/m*3 19.2 C 4.8 km/h
1685 07-05-2020 20:20:00 18.7 C 8.49 g/m*3 18.7 C 6.4 km/h
1686 07-05-2020 20:25:00 18.2 C 8.08 g/m*3 18.2 C 6.4 km/h
1687 07-05-2020 20:30:00 17.8 C 8.2 g/m*3 17.8 C 4.8 km/h
1688 07-05-2020 20:35:00 17.4 C 8.15 g/m*3 17.4 C 6.4 km/h
1689 07-05-2020 20:40:00 17.2 C 7.91 g/m*3 17.2 C 8.1 km/h
1690 07-05-2020 20:45:00 16.9 C 7.77 g/m*3 16.9 C 8.1 km/h
1691 07-05-2020 20:50:00 16.7 C 7.67 g/m*3 16.7 C 8.1 km/h
1692 07-05-2020 20:55:00 16.6 C 7.77 g/m*3 16.6 C 4.8 km/h
1693 07-05-2020 21:00:00 16.3 C 7.91 g/m*3 16.3 C 6.4 km/h
1694 07-05-2020 21:05:00 16.2 C 8 g/m*3 16.2 C 6.4 km/h
1695 07-05-2020 21:10:00 16 C 7.9 g/m*3 16 C 4.8 km/h
1696 07-05-2020 21:15:00 15.8 C 7.81 g/m*3 15.8 C 6.4 km/h
1697 07-05-2020 21:20:00 15.6 C 7.98 g/m*3 15.6 C 4.8 km/h
1698 07-05-2020 21:25:00 15.4 C 8.01 g/m*3 15.4 C 4.8 km/h
1699 07-05-2020 21:30:00 15.2 C 8.05 g/m*3 15.2 C 3.2 km/h
1700 07-05-2020 21:35:00 15 C 8.21 g/m*3 15 C 1.6 km/h
Sensor: Nr:Datum:Temp:Abs-Feuchte:Windchill:Wind:
Aussen-T/F 1701 07-05-2020 21:40:00 14.8 C 8.11 g/m*3 14.8 C 1.6 km/h
1702 07-05-2020 21:45:00 14.5 C 8.08 g/m*3 14.5 C 1.6 km/h
1703 07-05-2020 21:50:00 14.3 C 8.11 g/m*3 14.3 C 3.2 km/h
1704 07-05-2020 21:55:00 14.1 C 8.13 g/m*3 14.1 C 1.6 km/h
1705 07-05-2020 22:00:00 13.9 C 8.03 g/m*3 13.9 C 0 km/h
1706 07-05-2020 22:05:00 13.7 C 8.05 g/m*3 13.7 C 0 km/h
1707 07-05-2020 22:10:00 13.4 C 8.02 g/m*3 13.4 C 0 km/h
1708 07-05-2020 22:15:00 13.3 C 8.09 g/m*3 13.3 C 0 km/h
1709 07-05-2020 22:20:00 13.2 C 8.04 g/m*3 13.2 C 0 km/h
1710 07-05-2020 22:25:00 13.1 C 8.1 g/m*3 13.1 C 1.6 km/h
1711 07-05-2020 22:30:00 12.9 C 8 g/m*3 12.9 C 0 km/h
1712 07-05-2020 22:35:00 12.8 C 8.06 g/m*3 12.8 C 0 km/h
1713 07-05-2020 22:40:00 12.7 C 8.01 g/m*3 12.7 C 0 km/h
1714 07-05-2020 22:45:00 12.6 C 7.97 g/m*3 12.6 C 0 km/h
1715 07-05-2020 22:50:00 12.5 C 7.92 g/m*3 12.5 C 0 km/h
1716 07-05-2020 22:55:00 12.4 C 7.87 g/m*3 12.4 C 0 km/h
1717 07-05-2020 23:00:00 12.3 C 7.82 g/m*3 12.3 C 0 km/h
1718 07-05-2020 23:05:00 12.1 C 7.72 g/m*3 12.1 C 0 km/h
1719 07-05-2020 23:10:00 12 C 7.67 g/m*3 12 C 0 km/h
1720 07-05-2020 23:15:00 11.8 C 7.58 g/m*3 11.8 C 1.6 km/h
1721 07-05-2020 23:20:00 11.7 C 7.53 g/m*3 11.7 C 0 km/h
1722 07-05-2020 23:25:00 11.7 C 7.64 g/m*3 11.7 C 0 km/h
1723 07-05-2020 23:30:00 11.6 C 7.59 g/m*3 11.6 C 0 km/h
1724 07-05-2020 23:35:00 11.7 C 7.84 g/m*3 11.7 C 0 km/h
1725 07-05-2020 23:40:00 11.7 C 7.95 g/m*3 11.7 C 0 km/h
Sensor: Nr:Datum:Temp:Abs-Feuchte:Windchill:Wind:
Aussen-T/F 1726 07-05-2020 23:45:00 11.7 C 7.95 g/m*3 11.7 C 0 km/h
1727 07-05-2020 23:50:00 11.5 C 7.75 g/m*3 11.5 C 0 km/h
1728 07-05-2020 23:55:00 11.4 C 7.7 g/m*3 11.4 C 0 km/h
1729 08-05-2020 00:00:00 11.3 C 7.75 g/m*3 11.3 C 0 km/h
1730 08-05-2020 00:05:00 11.2 C 7.6 g/m*3 11.2 C 0 km/h
1731 08-05-2020 00:10:00 11 C 7.51 g/m*3 11 C 0 km/h
1732 08-05-2020 00:15:00 10.9 C 7.56 g/m*3 10.9 C 0 km/h
1733 08-05-2020 00:20:00 10.8 C 7.51 g/m*3 10.8 C 0 km/h
1734 08-05-2020 00:25:00 10.7 C 7.46 g/m*3 10.7 C 0 km/h
1735 08-05-2020 00:30:00 10.6 C 7.42 g/m*3 10.6 C 0 km/h
1736 08-05-2020 00:35:00 10.5 C 7.37 g/m*3 10.5 C 0 km/h
1737 08-05-2020 00:40:00 10.4 C 7.32 g/m*3 10.4 C 0 km/h
1738 08-05-2020 00:45:00 10.3 C 7.37 g/m*3 10.3 C 0 km/h
1739 08-05-2020 00:50:00 10.2 C 7.42 g/m*3 10.2 C 0 km/h
1740 08-05-2020 00:55:00 10.1 C 7.38 g/m*3 10.1 C 0 km/h
1741 08-05-2020 01:00:00 10 C 7.33 g/m*3 10 C 0 km/h
1742 08-05-2020 01:05:00 9.9 C 7.38 g/m*3 9.9 C 3.2 km/h
1743 08-05-2020 01:10:00 9.8 C 7.33 g/m*3 9.8 C 4.8 km/h
1744 08-05-2020 01:15:00 9.8 C 7.33 g/m*3 9.8 C 0 km/h
1745 08-05-2020 01:20:00 9.8 C 7.42 g/m*3 9.8 C 0 km/h
1746 08-05-2020 01:25:00 9.8 C 7.52 g/m*3 9.8 C 0 km/h
1747 08-05-2020 01:30:00 9.8 C 7.52 g/m*3 9.8 C 0 km/h
1748 08-05-2020 01:35:00 9.8 C 7.52 g/m*3 9.8 C 0 km/h
1749 08-05-2020 01:40:00 9.8 C 7.52 g/m*3 9.8 C 0 km/h
1750 08-05-2020 01:45:00 9.8 C 7.52 g/m*3 9.8 C 0 km/h
Sensor: Nr:Datum:Temp:Abs-Feuchte:Windchill:Wind:
Aussen-T/F 1751 08-05-2020 01:50:00 9.8 C 7.52 g/m*3 9.8 C 0 km/h
1752 08-05-2020 01:55:00 9.8 C 7.52 g/m*3 9.8 C 0 km/h
1753 08-05-2020 02:00:00 9.8 C 7.52 g/m*3 9.8 C 0 km/h
1754 08-05-2020 02:05:00 9.8 C 7.52 g/m*3 9.8 C 0 km/h
1755 08-05-2020 02:10:00 9.7 C 7.56 g/m*3 9.7 C 0 km/h
1756 08-05-2020 02:15:00 9.6 C 7.51 g/m*3 9.6 C 0 km/h
1757 08-05-2020 02:20:00 9.4 C 7.42 g/m*3 9.4 C 0 km/h
1758 08-05-2020 02:25:00 9.3 C 7.37 g/m*3 9.3 C 0 km/h
1759 08-05-2020 02:30:00 9.2 C 7.41 g/m*3 9.2 C 0 km/h
1760 08-05-2020 02:35:00 9.1 C 7.36 g/m*3 9.1 C 0 km/h
1761 08-05-2020 02:40:00 9 C 7.32 g/m*3 9 C 0 km/h
1762 08-05-2020 02:45:00 8.9 C 7.27 g/m*3 8.9 C 0 km/h
1763 08-05-2020 02:50:00 8.8 C 7.31 g/m*3 8.8 C 0 km/h
1764 08-05-2020 02:55:00 8.7 C 7.26 g/m*3 8.7 C 0 km/h
1765 08-05-2020 03:00:00 8.6 C 7.22 g/m*3 8.6 C 0 km/h
1766 08-05-2020 03:05:00 8.6 C 7.22 g/m*3 8.6 C 0 km/h
1767 08-05-2020 03:10:00 8.4 C 7.21 g/m*3 8.4 C 0 km/h
1768 08-05-2020 03:15:00 8.4 C 7.21 g/m*3 8.4 C 0 km/h
1769 08-05-2020 03:20:00 8.3 C 7.25 g/m*3 8.3 C 0 km/h
1770 08-05-2020 03:25:00 8.3 C 7.25 g/m*3 8.3 C 0 km/h
1771 08-05-2020 03:30:00 8.3 C 7.25 g/m*3 8.3 C 0 km/h
1772 08-05-2020 03:35:00 8.2 C 7.2 g/m*3 8.2 C 0 km/h
1773 08-05-2020 03:40:00 8.2 C 7.2 g/m*3 8.2 C 0 km/h
1774 08-05-2020 03:45:00 8.1 C 7.16 g/m*3 8.1 C 0 km/h
1775 08-05-2020 03:50:00 8 C 7.19 g/m*3 8 C 0 km/h
Sensor: Nr:Datum:Temp:Abs-Feuchte:Windchill:Wind:
Aussen-T/F 1776 08-05-2020 03:55:00 7.9 C 7.15 g/m*3 7.9 C 0 km/h
1777 08-05-2020 04:00:00 8 C 7.19 g/m*3 8 C 0 km/h
1778 08-05-2020 04:05:00 7.9 C 7.15 g/m*3 7.9 C 0 km/h
1779 08-05-2020 04:10:00 7.8 C 7.1 g/m*3 7.8 C 0 km/h
1780 08-05-2020 04:15:00 7.7 C 7.05 g/m*3 7.7 C 0 km/h
1781 08-05-2020 04:20:00 7.7 C 7.14 g/m*3 7.7 C 0 km/h
1782 08-05-2020 04:25:00 7.6 C 7.01 g/m*3 7.6 C 0 km/h
1783 08-05-2020 04:30:00 7.5 C 7.04 g/m*3 7.5 C 0 km/h
1784 08-05-2020 04:35:00 7.5 C 7.04 g/m*3 7.5 C 0 km/h
1785 08-05-2020 04:40:00 7.4 C 7 g/m*3 7.4 C 0 km/h
1786 08-05-2020 04:45:00 7.4 C 7.08 g/m*3 7.4 C 0 km/h
1787 08-05-2020 04:50:00 7.5 C 7.12 g/m*3 7.5 C 0 km/h
1788 08-05-2020 04:55:00 7.4 C 7.08 g/m*3 7.4 C 0 km/h
1789 08-05-2020 05:00:00 7.5 C 7.12 g/m*3 7.5 C 1.6 km/h
1790 08-05-2020 05:05:00 7.6 C 7.17 g/m*3 7.6 C 0 km/h
1791 08-05-2020 05:10:00 7.6 C 7.25 g/m*3 7.6 C 0 km/h
1792 08-05-2020 05:15:00 7.7 C 7.3 g/m*3 7.7 C 0 km/h
1793 08-05-2020 05:20:00 7.8 C 7.35 g/m*3 7.8 C 3.2 km/h
1794 08-05-2020 05:25:00 7.8 C 7.26 g/m*3 7.8 C 0 km/h
1795 08-05-2020 05:30:00 7.7 C 7.22 g/m*3 7.7 C 0 km/h
1796 08-05-2020 05:35:00 7.7 C 7.22 g/m*3 7.7 C 0 km/h
1797 08-05-2020 05:40:00 7.6 C 7.17 g/m*3 7.6 C 0 km/h
1798 08-05-2020 05:45:00 7.6 C 7.17 g/m*3 7.6 C 0 km/h
1799 08-05-2020 05:50:00 7.6 C 7.17 g/m*3 7.6 C 0 km/h
1800 08-05-2020 05:55:00 7.6 C 7.25 g/m*3 7.6 C 0 km/h
Sensor: Nr:Datum:Temp:Abs-Feuchte:Windchill:Wind:
Aussen-T/F 1801 08-05-2020 06:00:00 7.5 C 7.2 g/m*3 7.5 C 0 km/h
1802 08-05-2020 06:05:00 7.4 C 7.16 g/m*3 7.4 C 0 km/h
1803 08-05-2020 06:10:00 7.4 C 7.16 g/m*3 7.4 C 0 km/h
1804 08-05-2020 06:15:00 7.4 C 7.16 g/m*3 7.4 C 0 km/h
1805 08-05-2020 06:20:00 7.3 C 7.11 g/m*3 7.3 C 0 km/h
1806 08-05-2020 06:25:00 7.3 C 7.11 g/m*3 7.3 C 1.6 km/h
1807 08-05-2020 06:30:00 7.2 C 7.06 g/m*3 7.2 C 0 km/h
1808 08-05-2020 06:35:00 7.1 C 7.02 g/m*3 7.1 C 0 km/h
1809 08-05-2020 06:40:00 7.1 C 7.02 g/m*3 7.1 C 0 km/h
1810 08-05-2020 06:45:00 7 C 6.97 g/m*3 7 C 0 km/h
1811 08-05-2020 06:50:00 6.9 C 6.93 g/m*3 6.9 C 0 km/h
1812 08-05-2020 06:55:00 6.9 C 7.01 g/m*3 6.9 C 0 km/h
1813 08-05-2020 07:00:00 6.8 C 6.96 g/m*3 6.8 C 0 km/h
1814 08-05-2020 07:05:00 6.8 C 6.96 g/m*3 6.8 C 0 km/h
1815 08-05-2020 07:10:00 6.9 C 7.08 g/m*3 6.9 C 0 km/h
1816 08-05-2020 07:15:00 7.1 C 7.18 g/m*3 7.1 C 0 km/h
1817 08-05-2020 07:20:00 7.3 C 7.35 g/m*3 7.3 C 0 km/h
1818 08-05-2020 07:25:00 7.4 C 7.32 g/m*3 7.4 C 0 km/h
1819 08-05-2020 07:30:00 7.4 C 7.32 g/m*3 7.4 C 0 km/h
1820 08-05-2020 07:35:00 7.4 C 7.32 g/m*3 7.4 C 1.6 km/h
1821 08-05-2020 07:40:00 7.4 C 7.32 g/m*3 7.4 C 3.2 km/h
1822 08-05-2020 07:45:00 7.5 C 7.36 g/m*3 7.5 C 0 km/h
1823 08-05-2020 07:50:00 7.6 C 7.41 g/m*3 7.6 C 0 km/h
1824 08-05-2020 07:55:00 7.7 C 7.46 g/m*3 7.7 C 0 km/h
1825 08-05-2020 08:00:00 7.8 C 7.59 g/m*3 7.8 C 0 km/h
Sensor: Nr:Datum:Temp:Abs-Feuchte:Windchill:Wind:
Aussen-T/F 1826 08-05-2020 08:05:00 8.1 C 7.74 g/m*3 8.1 C 1.6 km/h
1827 08-05-2020 08:10:00 8.2 C 7.7 g/m*3 8.2 C 0 km/h
1828 08-05-2020 08:15:00 8.3 C 7.75 g/m*3 8.3 C 0 km/h
1829 08-05-2020 08:20:00 8.4 C 7.8 g/m*3 8.4 C 0 km/h
1830 08-05-2020 08:25:00 8.5 C 7.77 g/m*3 8.5 C 0 km/h
1831 08-05-2020 08:30:00 8.5 C 7.77 g/m*3 8.5 C 0 km/h
1832 08-05-2020 08:35:00 8.6 C 7.82 g/m*3 8.6 C 0 km/h
1833 08-05-2020 08:40:00 8.6 C 7.82 g/m*3 8.6 C 0 km/h
1834 08-05-2020 08:45:00 8.7 C 7.87 g/m*3 8.7 C 0 km/h
1835 08-05-2020 08:50:00 8.7 C 7.87 g/m*3 8.7 C 0 km/h
1836 08-05-2020 08:55:00 8.8 C 7.92 g/m*3 8.8 C 0 km/h
1837 08-05-2020 09:00:00 8.9 C 7.97 g/m*3 8.9 C 1.6 km/h
1838 08-05-2020 09:05:00 9.1 C 8.07 g/m*3 9.1 C 0 km/h
1839 08-05-2020 09:10:00 9.2 C 8.13 g/m*3 9.2 C 1.6 km/h
1840 08-05-2020 09:15:00 9.4 C 8.14 g/m*3 9.4 C 3.2 km/h
1841 08-05-2020 09:20:00 9.7 C 8.3 g/m*3 9.7 C 0 km/h
1842 08-05-2020 09:25:00 9.8 C 8.35 g/m*3 9.8 C 0 km/h
1843 08-05-2020 09:30:00 10 C 8.36 g/m*3 10 C 0 km/h
1844 08-05-2020 09:35:00 10.2 C 8.47 g/m*3 10.2 C 0 km/h
1845 08-05-2020 09:40:00 10.3 C 8.52 g/m*3 10.3 C 0 km/h
1846 08-05-2020 09:45:00 10.5 C 8.73 g/m*3 10.5 C 0 km/h
1847 08-05-2020 09:50:00 10.7 C 8.84 g/m*3 10.7 C 0 km/h
1848 08-05-2020 09:55:00 10.8 C 8.8 g/m*3 10.8 C 0 km/h
1849 08-05-2020 10:00:00 11 C 8.91 g/m*3 11 C 0 km/h
1850 08-05-2020 10:05:00 11.2 C 9.02 g/m*3 11.2 C 0 km/h
Sensor: Nr:Datum:Temp:Abs-Feuchte:Windchill:Wind:
Aussen-T/F 1851 08-05-2020 10:10:00 11.4 C 9.03 g/m*3 11.4 C 0 km/h
1852 08-05-2020 10:15:00 11.6 C 9.04 g/m*3 11.6 C 0 km/h
1853 08-05-2020 10:20:00 11.8 C 9.05 g/m*3 11.8 C 0 km/h
1854 08-05-2020 10:25:00 12.2 C 9.28 g/m*3 12.2 C 0 km/h
1855 08-05-2020 10:30:00 12.4 C 9.29 g/m*3 12.4 C 0 km/h
1856 08-05-2020 10:35:00 12.7 C 9.35 g/m*3 12.7 C 0 km/h
1857 08-05-2020 10:40:00 13 C 9.53 g/m*3 13 C 0 km/h
1858 08-05-2020 10:45:00 13.5 C 9.24 g/m*3 13.5 C 0 km/h
1859 08-05-2020 10:50:00 14.1 C 8.98 g/m*3 14.1 C 1.6 km/h
1860 08-05-2020 10:55:00 14.6 C 9.13 g/m*3 14.6 C 1.6 km/h
1861 08-05-2020 11:00:00 15 C 9.49 g/m*3 15 C 1.6 km/h
1862 08-05-2020 11:05:00 15.3 C 9.53 g/m*3 15.3 C 3.2 km/h
1863 08-05-2020 11:10:00 15.5 C 9.78 g/m*3 15.5 C 1.6 km/h
1864 08-05-2020 11:15:00 15.8 C 9.83 g/m*3 15.8 C 0 km/h
1865 08-05-2020 11:20:00 15.9 C 9.75 g/m*3 15.9 C 0 km/h
1866 08-05-2020 11:25:00 16.2 C 9.79 g/m*3 16.2 C 1.6 km/h
1867 08-05-2020 11:30:00 16.4 C 9.63 g/m*3 16.4 C 0 km/h
1868 08-05-2020 11:35:00 16.7 C 9.52 g/m*3 16.7 C 1.6 km/h
1869 08-05-2020 11:40:00 17.1 C 9.17 g/m*3 17.1 C 3.2 km/h
1870 08-05-2020 11:45:00 17.4 C 8.89 g/m*3 17.4 C 3.2 km/h
1871 08-05-2020 11:50:00 17.7 C 8.75 g/m*3 17.7 C 1.6 km/h
1872 08-05-2020 11:55:00 17.9 C 8.7 g/m*3 17.9 C 1.6 km/h
1873 08-05-2020 12:00:00 18.2 C 8.7 g/m*3 18.2 C 1.6 km/h
1874 08-05-2020 12:05:00 18.3 C 8.29 g/m*3 18.3 C 1.6 km/h
1875 08-05-2020 12:10:00 18.6 C 8.44 g/m*3 18.6 C 1.6 km/h
Sensor: Nr:Datum:Temp:Abs-Feuchte:Windchill:Wind:
Aussen-T/F 1876 08-05-2020 12:15:00 18.7 C 8.49 g/m*3 18.7 C 1.6 km/h
1877 08-05-2020 12:20:00 18.8 C 8.21 g/m*3 18.8 C 3.2 km/h
1878 08-05-2020 12:25:00 19 C 8.15 g/m*3 19 C 1.6 km/h
1879 08-05-2020 12:30:00 19.2 C 7.91 g/m*3 19.2 C 4.8 km/h
1880 08-05-2020 12:35:00 19.3 C 7.8 g/m*3 19.3 C 3.2 km/h
1881 08-05-2020 12:40:00 19.4 C 7.51 g/m*3 19.4 C 3.2 km/h
1882 08-05-2020 12:45:00 19.6 C 8.1 g/m*3 19.6 C 3.2 km/h
1883 08-05-2020 12:50:00 19.8 C 7.52 g/m*3 19.8 C 4.8 km/h
1884 08-05-2020 12:55:00 19.8 C 7.52 g/m*3 19.8 C 1.6 km/h
1885 08-05-2020 13:00:00 19.9 C 7.9 g/m*3 19.9 C 4.8 km/h
1886 08-05-2020 13:05:00 20.1 C 7.65 g/m*3 20.1 C 8.1 km/h
1887 08-05-2020 13:10:00 20.3 C 7.91 g/m*3 20.3 C 8.1 km/h
1888 08-05-2020 13:15:00 20.5 C 7.47 g/m*3 20.5 C 8.1 km/h
1889 08-05-2020 13:20:00 20.6 C 7.7 g/m*3 20.6 C 1.6 km/h
1890 08-05-2020 13:25:00 20.7 C 7.74 g/m*3 20.7 C 4.8 km/h
1891 08-05-2020 13:30:00 20.8 C 7.42 g/m*3 20.8 C 4.8 km/h
1892 08-05-2020 13:35:00 21 C 7.14 g/m*3 21 C 3.2 km/h
1893 08-05-2020 13:40:00 21.2 C 8.15 g/m*3 21.2 C 6.4 km/h
1894 08-05-2020 13:45:00 21.3 C 7.64 g/m*3 21.3 C 3.2 km/h
1895 08-05-2020 13:50:00 21.4 C 7.69 g/m*3 21.4 C 6.4 km/h
1896 08-05-2020 13:55:00 21.6 C 6.83 g/m*3 21.6 C 6.4 km/h
1897 08-05-2020 14:00:00 21.7 C 7.06 g/m*3 21.7 C 3.2 km/h
1898 08-05-2020 14:05:00 21.8 C 7.29 g/m*3 21.8 C 4.8 km/h
1899 08-05-2020 14:10:00 21.9 C 7.14 g/m*3 21.9 C 3.2 km/h
1900 08-05-2020 14:15:00 21.9 C 7.14 g/m*3 21.9 C 6.4 km/h
Sensor: Nr:Datum:Temp:Abs-Feuchte:Windchill:Wind:
Aussen-T/F 1901 08-05-2020 14:20:00 22.1 C 7.22 g/m*3 22.1 C 6.4 km/h
1902 08-05-2020 14:25:00 22.2 C 7.07 g/m*3 22.2 C 4.8 km/h
1903 08-05-2020 14:30:00 22.3 C 7.31 g/m*3 22.3 C 6.4 km/h
1904 08-05-2020 14:35:00 22.5 C 6.99 g/m*3 22.5 C 8.1 km/h
1905 08-05-2020 14:40:00 22.6 C 7.03 g/m*3 22.6 C 8.1 km/h
1906 08-05-2020 14:45:00 22.7 C 6.87 g/m*3 22.7 C 11.3 km/h
1907 08-05-2020 14:50:00 22.7 C 6.87 g/m*3 22.7 C 4.8 km/h
1908 08-05-2020 14:55:00 22.7 C 6.67 g/m*3 22.7 C 6.4 km/h
1909 08-05-2020 15:00:00 22.7 C 6.87 g/m*3 22.7 C 1.6 km/h
1910 08-05-2020 15:05:00 22.8 C 6.91 g/m*3 22.8 C 6.4 km/h
1911 08-05-2020 15:10:00 22.8 C 6.71 g/m*3 22.8 C 4.8 km/h
1912 08-05-2020 15:15:00 22.9 C 7.36 g/m*3 22.9 C 3.2 km/h
1913 08-05-2020 15:20:00 22.9 C 6.74 g/m*3 22.9 C 6.4 km/h
1914 08-05-2020 15:25:00 22.9 C 6.74 g/m*3 22.9 C 4.8 km/h
1915 08-05-2020 15:30:00 23 C 7.19 g/m*3 23 C 6.4 km/h
1916 08-05-2020 15:35:00 23.1 C 6.82 g/m*3 23.1 C 6.4 km/h
1917 08-05-2020 15:40:00 23.2 C 7.07 g/m*3 23.2 C 3.2 km/h
1918 08-05-2020 15:45:00 23.5 C 6.98 g/m*3 23.5 C 1.6 km/h
1919 08-05-2020 15:50:00 23.7 C 7.06 g/m*3 23.7 C 6.4 km/h
1920 08-05-2020 15:55:00 24.1 C 7.66 g/m*3 24.1 C 6.4 km/h
1921 08-05-2020 16:00:00 24.6 C 7.2 g/m*3 24.6 C 1.6 km/h
1922 08-05-2020 16:05:00 24.8 C 6.83 g/m*3 24.8 C 6.4 km/h
1923 08-05-2020 16:10:00 25 C 6.91 g/m*3 25 C 6.4 km/h
1924 08-05-2020 16:15:00 25.1 C 6.71 g/m*3 25.1 C 6.4 km/h
1925 08-05-2020 16:20:00 25.1 C 6.71 g/m*3 25.1 C 6.4 km/h
Sensor: Nr:Datum:Temp:Abs-Feuchte:Windchill:Wind:
Aussen-T/F 1926 08-05-2020 16:25:00 25.2 C 6.98 g/m*3 25.2 C 3.2 km/h
1927 08-05-2020 16:30:00 25.5 C 6.16 g/m*3 25.5 C 8.1 km/h
1928 08-05-2020 16:35:00 25.3 C 5.85 g/m*3 25.3 C 8.1 km/h
1929 08-05-2020 16:40:00 24.9 C 6.64 g/m*3 24.9 C 4.8 km/h
1930 08-05-2020 16:45:00 24.7 C 6.79 g/m*3 24.7 C 3.2 km/h
1931 08-05-2020 16:50:00 24.6 C 6.08 g/m*3 24.6 C 3.2 km/h
1932 08-05-2020 16:55:00 24.5 C 7.61 g/m*3 24.5 C 0 km/h
1933 08-05-2020 17:00:00 24.4 C 8.68 g/m*3 24.4 C 1.6 km/h
1934 08-05-2020 17:05:00 24.4 C 6.23 g/m*3 24.4 C 1.6 km/h
1935 08-05-2020 17:10:00 24.4 C 6.68 g/m*3 24.4 C 6.4 km/h
1936 08-05-2020 17:15:00 24.7 C 8.15 g/m*3 24.7 C 3.2 km/h
1937 08-05-2020 17:20:00 24.9 C 7.32 g/m*3 24.9 C 4.8 km/h
1938 08-05-2020 17:25:00 24.9 C 6.87 g/m*3 24.9 C 4.8 km/h
1939 08-05-2020 17:30:00 24.7 C 7.24 g/m*3 24.7 C 4.8 km/h
1940 08-05-2020 17:35:00 24.3 C 7.08 g/m*3 24.3 C 6.4 km/h
1941 08-05-2020 17:40:00 24.4 C 7.57 g/m*3 24.4 C 4.8 km/h
1942 08-05-2020 17:45:00 24.7 C 7.47 g/m*3 24.7 C 6.4 km/h
1943 08-05-2020 17:50:00 24.7 C 7.24 g/m*3 24.7 C 4.8 km/h
1944 08-05-2020 17:55:00 24.6 C 6.98 g/m*3 24.6 C 6.4 km/h
1945 08-05-2020 18:00:00 24.4 C 7.12 g/m*3 24.4 C 6.4 km/h
1946 08-05-2020 18:05:00 24.3 C 7.3 g/m*3 24.3 C 4.8 km/h
1947 08-05-2020 18:10:00 24.4 C 7.12 g/m*3 24.4 C 6.4 km/h
1948 08-05-2020 18:15:00 24.4 C 6.9 g/m*3 24.4 C 6.4 km/h
1949 08-05-2020 18:20:00 24.4 C 7.34 g/m*3 24.4 C 1.6 km/h
1950 08-05-2020 18:25:00 24.6 C 6.98 g/m*3 24.6 C 4.8 km/h
Sensor: Nr:Datum:Temp:Abs-Feuchte:Windchill:Wind:
Aussen-T/F 1951 08-05-2020 18:30:00 24.7 C 7.24 g/m*3 24.7 C 6.4 km/h
1952 08-05-2020 18:35:00 24.8 C 7.28 g/m*3 24.8 C 4.8 km/h
1953 08-05-2020 18:40:00 24.8 C 7.28 g/m*3 24.8 C 6.4 km/h
1954 08-05-2020 18:45:00 24.7 C 7.47 g/m*3 24.7 C 9.7 km/h
1955 08-05-2020 18:50:00 24.7 C 7.47 g/m*3 24.7 C 4.8 km/h
1956 08-05-2020 18:55:00 24.7 C 7.47 g/m*3 24.7 C 9.7 km/h
1957 08-05-2020 19:00:00 24.5 C 7.61 g/m*3 24.5 C 6.4 km/h
1958 08-05-2020 19:05:00 24.1 C 7.22 g/m*3 24.1 C 6.4 km/h
1959 08-05-2020 19:10:00 23.9 C 7.36 g/m*3 23.9 C 4.8 km/h
1960 08-05-2020 19:15:00 23.9 C 7.14 g/m*3 23.9 C 8.1 km/h
1961 08-05-2020 19:20:00 23.8 C 7.1 g/m*3 23.8 C 6.4 km/h
1962 08-05-2020 19:25:00 23.7 C 7.49 g/m*3 23.7 C 8.1 km/h
1963 08-05-2020 19:30:00 23.5 C 7.19 g/m*3 23.5 C 8.1 km/h
1964 08-05-2020 19:35:00 23.3 C 7.11 g/m*3 23.3 C 8.1 km/h
1965 08-05-2020 19:40:00 23.1 C 7.44 g/m*3 23.1 C 4.8 km/h
1966 08-05-2020 19:45:00 23 C 6.99 g/m*3 23 C 8.1 km/h
1967 08-05-2020 19:50:00 22.8 C 7.32 g/m*3 22.8 C 3.2 km/h
1968 08-05-2020 19:55:00 22.6 C 8.04 g/m*3 22.6 C 1.6 km/h
1969 08-05-2020 20:00:00 22.2 C 8.64 g/m*3 22.2 C 3.2 km/h
1970 08-05-2020 20:05:00 21.6 C 8.72 g/m*3 21.6 C 1.6 km/h
1971 08-05-2020 20:10:00 20.9 C 8.56 g/m*3 20.9 C 3.2 km/h
1972 08-05-2020 20:15:00 20.3 C 8.62 g/m*3 20.3 C 4.8 km/h
1973 08-05-2020 20:20:00 19.8 C 8.54 g/m*3 19.8 C 3.2 km/h
1974 08-05-2020 20:25:00 19.3 C 8.79 g/m*3 19.3 C 3.2 km/h
1975 08-05-2020 20:30:00 18.9 C 8.59 g/m*3 18.9 C 0 km/h
Sensor: Nr:Datum:Temp:Abs-Feuchte:Windchill:Wind:
Aussen-T/F 1976 08-05-2020 20:35:00 18.5 C 8.39 g/m*3 18.5 C 1.6 km/h
1977 08-05-2020 20:40:00 18.2 C 8.24 g/m*3 18.2 C 3.2 km/h
1978 08-05-2020 20:45:00 17.9 C 8.09 g/m*3 17.9 C 4.8 km/h
1979 08-05-2020 20:50:00 17.7 C 8.3 g/m*3 17.7 C 4.8 km/h
1980 08-05-2020 20:55:00 17.6 C 8.4 g/m*3 17.6 C 4.8 km/h
1981 08-05-2020 21:00:00 17.4 C 8.45 g/m*3 17.4 C 3.2 km/h
1982 08-05-2020 21:05:00 17.3 C 8.25 g/m*3 17.3 C 4.8 km/h
1983 08-05-2020 21:10:00 17.2 C 8.05 g/m*3 17.2 C 4.8 km/h
1984 08-05-2020 21:15:00 17.1 C 8.88 g/m*3 17.1 C 3.2 km/h
1985 08-05-2020 21:20:00 16.9 C 8.34 g/m*3 16.9 C 6.4 km/h
1986 08-05-2020 21:25:00 16.7 C 8.38 g/m*3 16.7 C 4.8 km/h
1987 08-05-2020 21:30:00 16.4 C 8.1 g/m*3 16.4 C 3.2 km/h
1988 08-05-2020 21:35:00 16.3 C 8.32 g/m*3 16.3 C 3.2 km/h
1989 08-05-2020 21:40:00 16.2 C 8.41 g/m*3 16.2 C 3.2 km/h
1990 08-05-2020 21:45:00 16 C 8.58 g/m*3 16 C 4.8 km/h
1991 08-05-2020 21:50:00 15.8 C 8.62 g/m*3 15.8 C 3.2 km/h
1992 08-05-2020 21:55:00 15.6 C 8.38 g/m*3 15.6 C 1.6 km/h
1993 08-05-2020 22:00:00 15.4 C 8.54 g/m*3 15.4 C 3.2 km/h
1994 08-05-2020 22:05:00 15.3 C 8.62 g/m*3 15.3 C 3.2 km/h
1995 08-05-2020 22:10:00 15.2 C 8.44 g/m*3 15.2 C 3.2 km/h
1996 08-05-2020 22:15:00 15.2 C 8.7 g/m*3 15.2 C 0 km/h
1997 08-05-2020 22:20:00 15.1 C 8.64 g/m*3 15.1 C 0 km/h
1998 08-05-2020 22:25:00 15.1 C 8.64 g/m*3 15.1 C 0 km/h
1999 08-05-2020 22:30:00 15 C 8.59 g/m*3 15 C 0 km/h
2000 08-05-2020 22:35:00 14.9 C 8.67 g/m*3 14.9 C 0 km/h
Sensor: Nr:Datum:Temp:Abs-Feuchte:Windchill:Wind:
Aussen-T/F 2001 08-05-2020 22:40:00 14.8 C 8.74 g/m*3 14.8 C 0 km/h
2002 08-05-2020 22:45:00 14.8 C 8.87 g/m*3 14.8 C 0 km/h
2003 08-05-2020 22:50:00 14.6 C 8.76 g/m*3 14.6 C 0 km/h
2004 08-05-2020 22:55:00 14.4 C 8.41 g/m*3 14.4 C 0 km/h
2005 08-05-2020 23:00:00 14.3 C 8.35 g/m*3 14.3 C 0 km/h
2006 08-05-2020 23:05:00 14.3 C 8.35 g/m*3 14.3 C 0 km/h
2007 08-05-2020 23:10:00 14.2 C 8.55 g/m*3 14.2 C 0 km/h
2008 08-05-2020 23:15:00 14.1 C 8.37 g/m*3 14.1 C 0 km/h
2009 08-05-2020 23:20:00 14.1 C 8.5 g/m*3 14.1 C 0 km/h
2010 08-05-2020 23:25:00 13.9 C 8.51 g/m*3 13.9 C 0 km/h
2011 08-05-2020 23:30:00 13.8 C 8.46 g/m*3 13.8 C 0 km/h
2012 08-05-2020 23:35:00 13.7 C 8.29 g/m*3 13.7 C 0 km/h
2013 08-05-2020 23:40:00 13.6 C 8.12 g/m*3 13.6 C 0 km/h
2014 08-05-2020 23:45:00 13.6 C 8.47 g/m*3 13.6 C 0 km/h
2015 08-05-2020 23:50:00 13.5 C 8.3 g/m*3 13.5 C 0 km/h
2016 08-05-2020 23:55:00 13.4 C 8.14 g/m*3 13.4 C 0 km/h

Legende:
   Min
   Max


Maximal/Minimal-Werte vom 02.05.2020 - 08.05.2020

Sensor Min Max Avg
Temp
(Aussen-T/F)
2 °C
06-05-2020  06:30:00
25.5 °C
08-05-2020  16:30:00
11.47 °C
Abs-Feuchte
(Aussen-T/F)
4.31 g/m*3
06-05-2020  14:35:00
10.67 g/m*3
04-05-2020  10:55:00
7.15 g/m*3
Windchill
(Aussen-T/F)
2 C
06-05-2020  06:30:00
25.5 C
08-05-2020  16:30:00
11.34 C

Die Daten stammen von einer Davis Vantage Pro 2 Wetter-Station und werden unter Linux mit der Software wview2wettercgi und aufbereitet. Alle Angaben erfolgen ohne Gewähr für ihre Vollständigkeit oder Richtigkeit.
Kontakt: Rainer Krienke krienke@uni-koblenz.de . Meine Webseiten an der Uni Koblenz oder privat.
Version: $Revision: 0.78 $